<?xml version="1.0" encoding="UTF-8" standalone="no" ?>
<gpx xmlns="http://www.topografix.com/GPX/1/1" xmlns:xsi="http://www.w3.org/2001/XMLSchema-instance" xsi:schemaLocation="http://www.topografix.com/GPX/1/1 http://www.topografix.com/GPX/1/1/gpx.xsd" version="1.1" creator="VisuGPX - https://www.visugpx.com">
  <metadata>
    <name>RANDO LA PRADETTE BIGORRE 26 KM</name>
    <desc><![CDATA[RANDO LA PRADETTE HAUTE BIGORRE 26 KM.DEPART ARRIVEE LA PRADETTE HAUTE.MONTCHARRET.MONTUSCLAT.POUZOLS.VIEUX.LA CROIX DE LETOILE.CROS DE MONTROY..CANCOULES.LES SAGNIAUX.CHALENDAR.LES MAZIAUX.BIGORRE.]]></desc>
  </metadata>
  <trk>
    <name><![CDATA[16-OCT-22 16:52:25]]></name>
    <desc><![CDATA[]]></desc>
    <extensions>
      <line xmlns="http://www.topografix.com/GPX/gpx_style/0/2">
        <color>0000FF</color>
        <width>4</width>
      </line>
    </extensions>
    <trkseg>
      <trkpt lat="45.00821" lon="4.0855">
        <ele>1077.78</ele>
        <time>2022-10-16T07:11:16Z</time>
      </trkpt>
      <trkpt lat="45.0082" lon="4.08551">
        <ele>1077.78</ele>
        <time>2022-10-16T07:11:27Z</time>
      </trkpt>
      <trkpt lat="45.00813" lon="4.08558">
        <ele>1065.76</ele>
        <time>2022-10-16T07:11:43Z</time>
      </trkpt>
      <trkpt lat="45.00813" lon="4.08561">
        <ele>1065.28</ele>
        <time>2022-10-16T07:12:00Z</time>
      </trkpt>
      <trkpt lat="45.00811" lon="4.08553">
        <ele>1063.84</ele>
        <time>2022-10-16T07:12:22Z</time>
      </trkpt>
      <trkpt lat="45.0081" lon="4.08551">
        <ele>1062.87</ele>
        <time>2022-10-16T07:12:37Z</time>
      </trkpt>
      <trkpt lat="45.00808" lon="4.0855">
        <ele>1062.87</ele>
        <time>2022-10-16T07:12:39Z</time>
      </trkpt>
      <trkpt lat="45.00806" lon="4.08552">
        <ele>1063.36</ele>
        <time>2022-10-16T07:12:52Z</time>
      </trkpt>
      <trkpt lat="45.00812" lon="4.08552">
        <ele>1063.36</ele>
        <time>2022-10-16T07:13:06Z</time>
      </trkpt>
      <trkpt lat="45.00812" lon="4.08553">
        <ele>1062.39</ele>
        <time>2022-10-16T07:13:23Z</time>
      </trkpt>
      <trkpt lat="45.00811" lon="4.08552">
        <ele>1062.39</ele>
        <time>2022-10-16T07:13:42Z</time>
      </trkpt>
      <trkpt lat="45.00807" lon="4.08552">
        <ele>1061.43</ele>
        <time>2022-10-16T07:14:03Z</time>
      </trkpt>
      <trkpt lat="45.00807" lon="4.08553">
        <ele>1061.43</ele>
        <time>2022-10-16T07:14:19Z</time>
      </trkpt>
      <trkpt lat="45.00807" lon="4.08552">
        <ele>1060.95</ele>
        <time>2022-10-16T07:14:52Z</time>
      </trkpt>
      <trkpt lat="45.00807" lon="4.08551">
        <ele>1060.95</ele>
        <time>2022-10-16T07:15:14Z</time>
      </trkpt>
      <trkpt lat="45.00808" lon="4.08551">
        <ele>1062.39</ele>
        <time>2022-10-16T07:15:25Z</time>
      </trkpt>
      <trkpt lat="45.0081" lon="4.08552">
        <ele>1062.39</ele>
        <time>2022-10-16T07:15:39Z</time>
      </trkpt>
      <trkpt lat="45.00816" lon="4.08556">
        <ele>1062.39</ele>
        <time>2022-10-16T07:16:00Z</time>
      </trkpt>
      <trkpt lat="45.00816" lon="4.08557">
        <ele>1063.84</ele>
        <time>2022-10-16T07:16:13Z</time>
      </trkpt>
      <trkpt lat="45.00815" lon="4.08558">
        <ele>1062.87</ele>
        <time>2022-10-16T07:16:31Z</time>
      </trkpt>
      <trkpt lat="45.00815" lon="4.08557">
        <ele>1062.39</ele>
        <time>2022-10-16T07:16:53Z</time>
      </trkpt>
      <trkpt lat="45.00819" lon="4.08567">
        <ele>1060.95</ele>
        <time>2022-10-16T07:17:08Z</time>
      </trkpt>
      <trkpt lat="45.00825" lon="4.08586">
        <ele>1060.47</ele>
        <time>2022-10-16T07:17:21Z</time>
      </trkpt>
      <trkpt lat="45.00827" lon="4.08601">
        <ele>1060.47</ele>
        <time>2022-10-16T07:17:32Z</time>
      </trkpt>
      <trkpt lat="45.00835" lon="4.08609">
        <ele>1060.95</ele>
        <time>2022-10-16T07:17:43Z</time>
      </trkpt>
      <trkpt lat="45.00844" lon="4.08622">
        <ele>1059.51</ele>
        <time>2022-10-16T07:17:55Z</time>
      </trkpt>
      <trkpt lat="45.0085" lon="4.08642">
        <ele>1058.55</ele>
        <time>2022-10-16T07:18:08Z</time>
      </trkpt>
      <trkpt lat="45.00854" lon="4.08668">
        <ele>1057.59</ele>
        <time>2022-10-16T07:18:23Z</time>
      </trkpt>
      <trkpt lat="45.00858" lon="4.08684">
        <ele>1056.63</ele>
        <time>2022-10-16T07:18:33Z</time>
      </trkpt>
      <trkpt lat="45.00861" lon="4.08697">
        <ele>1056.15</ele>
        <time>2022-10-16T07:18:43Z</time>
      </trkpt>
      <trkpt lat="45.00865" lon="4.08713">
        <ele>1057.59</ele>
        <time>2022-10-16T07:18:54Z</time>
      </trkpt>
      <trkpt lat="45.00866" lon="4.08716">
        <ele>1058.55</ele>
        <time>2022-10-16T07:18:57Z</time>
      </trkpt>
      <trkpt lat="45.0087" lon="4.08734">
        <ele>1059.51</ele>
        <time>2022-10-16T07:19:08Z</time>
      </trkpt>
      <trkpt lat="45.00871" lon="4.08737">
        <ele>1059.03</ele>
        <time>2022-10-16T07:19:10Z</time>
      </trkpt>
      <trkpt lat="45.00874" lon="4.08752">
        <ele>1059.03</ele>
        <time>2022-10-16T07:19:20Z</time>
      </trkpt>
      <trkpt lat="45.00875" lon="4.08754">
        <ele>1058.55</ele>
        <time>2022-10-16T07:19:22Z</time>
      </trkpt>
      <trkpt lat="45.00881" lon="4.08774">
        <ele>1057.11</ele>
        <time>2022-10-16T07:19:33Z</time>
      </trkpt>
      <trkpt lat="45.00886" lon="4.0879">
        <ele>1057.11</ele>
        <time>2022-10-16T07:19:43Z</time>
      </trkpt>
      <trkpt lat="45.00892" lon="4.08812">
        <ele>1059.03</ele>
        <time>2022-10-16T07:19:58Z</time>
      </trkpt>
      <trkpt lat="45.00898" lon="4.08836">
        <ele>1059.99</ele>
        <time>2022-10-16T07:20:13Z</time>
      </trkpt>
      <trkpt lat="45.00904" lon="4.08855">
        <ele>1061.43</ele>
        <time>2022-10-16T07:20:29Z</time>
      </trkpt>
      <trkpt lat="45.00909" lon="4.08876">
        <ele>1062.39</ele>
        <time>2022-10-16T07:20:45Z</time>
      </trkpt>
      <trkpt lat="45.00915" lon="4.08895">
        <ele>1064.32</ele>
        <time>2022-10-16T07:20:59Z</time>
      </trkpt>
      <trkpt lat="45.00921" lon="4.08918">
        <ele>1065.76</ele>
        <time>2022-10-16T07:21:15Z</time>
      </trkpt>
      <trkpt lat="45.00928" lon="4.0894">
        <ele>1067.2</ele>
        <time>2022-10-16T07:21:33Z</time>
      </trkpt>
      <trkpt lat="45.00934" lon="4.08967">
        <ele>1066.72</ele>
        <time>2022-10-16T07:21:50Z</time>
      </trkpt>
      <trkpt lat="45.00941" lon="4.08988">
        <ele>1069.6</ele>
        <time>2022-10-16T07:22:04Z</time>
      </trkpt>
      <trkpt lat="45.00946" lon="4.09001">
        <ele>1069.12</ele>
        <time>2022-10-16T07:22:15Z</time>
      </trkpt>
      <trkpt lat="45.00949" lon="4.09018">
        <ele>1069.12</ele>
        <time>2022-10-16T07:22:29Z</time>
      </trkpt>
      <trkpt lat="45.00958" lon="4.09039">
        <ele>1069.6</ele>
        <time>2022-10-16T07:22:47Z</time>
      </trkpt>
      <trkpt lat="45.00962" lon="4.09058">
        <ele>1070.57</ele>
        <time>2022-10-16T07:23:01Z</time>
      </trkpt>
      <trkpt lat="45.00966" lon="4.09071">
        <ele>1075.37</ele>
        <time>2022-10-16T07:23:13Z</time>
      </trkpt>
      <trkpt lat="45.00972" lon="4.09082">
        <ele>1077.29</ele>
        <time>2022-10-16T07:23:24Z</time>
      </trkpt>
      <trkpt lat="45.00973" lon="4.09083">
        <ele>1077.78</ele>
        <time>2022-10-16T07:23:26Z</time>
      </trkpt>
      <trkpt lat="45.00982" lon="4.09082">
        <ele>1078.26</ele>
        <time>2022-10-16T07:23:36Z</time>
      </trkpt>
      <trkpt lat="45.00983" lon="4.09081">
        <ele>1078.26</ele>
        <time>2022-10-16T07:23:37Z</time>
      </trkpt>
      <trkpt lat="45.00992" lon="4.09082">
        <ele>1080.18</ele>
        <time>2022-10-16T07:23:48Z</time>
      </trkpt>
      <trkpt lat="45.01003" lon="4.09086">
        <ele>1082.1</ele>
        <time>2022-10-16T07:24:03Z</time>
      </trkpt>
      <trkpt lat="45.01019" lon="4.09092">
        <ele>1084.02</ele>
        <time>2022-10-16T07:24:21Z</time>
      </trkpt>
      <trkpt lat="45.01032" lon="4.09107">
        <ele>1085.47</ele>
        <time>2022-10-16T07:24:42Z</time>
      </trkpt>
      <trkpt lat="45.01034" lon="4.09112">
        <ele>1085.95</ele>
        <time>2022-10-16T07:24:46Z</time>
      </trkpt>
      <trkpt lat="45.01048" lon="4.09133">
        <ele>1091.71</ele>
        <time>2022-10-16T07:25:07Z</time>
      </trkpt>
      <trkpt lat="45.01051" lon="4.09147">
        <ele>1094.12</ele>
        <time>2022-10-16T07:25:21Z</time>
      </trkpt>
      <trkpt lat="45.01048" lon="4.09154">
        <ele>1096.04</ele>
        <time>2022-10-16T07:25:36Z</time>
      </trkpt>
      <trkpt lat="45.01052" lon="4.09176">
        <ele>1096.04</ele>
        <time>2022-10-16T07:25:52Z</time>
      </trkpt>
      <trkpt lat="45.01063" lon="4.09204">
        <ele>1096.52</ele>
        <time>2022-10-16T07:26:12Z</time>
      </trkpt>
      <trkpt lat="45.01066" lon="4.09228">
        <ele>1099.89</ele>
        <time>2022-10-16T07:26:32Z</time>
      </trkpt>
      <trkpt lat="45.01066" lon="4.09228">
        <ele>1099.89</ele>
        <time>2022-10-16T07:26:33Z</time>
      </trkpt>
      <trkpt lat="45.0107" lon="4.09239">
        <ele>1101.33</ele>
        <time>2022-10-16T07:26:39Z</time>
      </trkpt>
      <trkpt lat="45.01076" lon="4.09266">
        <ele>1105.17</ele>
        <time>2022-10-16T07:27:01Z</time>
      </trkpt>
      <trkpt lat="45.01082" lon="4.09294">
        <ele>1108.06</ele>
        <time>2022-10-16T07:27:23Z</time>
      </trkpt>
      <trkpt lat="45.0109" lon="4.09322">
        <ele>1109.98</ele>
        <time>2022-10-16T07:27:44Z</time>
      </trkpt>
      <trkpt lat="45.01096" lon="4.09353">
        <ele>1114.79</ele>
        <time>2022-10-16T07:28:04Z</time>
      </trkpt>
      <trkpt lat="45.01099" lon="4.09362">
        <ele>1116.23</ele>
        <time>2022-10-16T07:28:11Z</time>
      </trkpt>
      <trkpt lat="45.01105" lon="4.0938">
        <ele>1119.11</ele>
        <time>2022-10-16T07:28:25Z</time>
      </trkpt>
      <trkpt lat="45.01113" lon="4.09398">
        <ele>1118.63</ele>
        <time>2022-10-16T07:28:41Z</time>
      </trkpt>
      <trkpt lat="45.01121" lon="4.09426">
        <ele>1117.67</ele>
        <time>2022-10-16T07:29:02Z</time>
      </trkpt>
      <trkpt lat="45.01129" lon="4.09453">
        <ele>1119.11</ele>
        <time>2022-10-16T07:29:23Z</time>
      </trkpt>
      <trkpt lat="45.01133" lon="4.09479">
        <ele>1121.03</ele>
        <time>2022-10-16T07:29:43Z</time>
      </trkpt>
      <trkpt lat="45.01138" lon="4.09497">
        <ele>1125.36</ele>
        <time>2022-10-16T07:30:01Z</time>
      </trkpt>
      <trkpt lat="45.01154" lon="4.09509">
        <ele>1127.28</ele>
        <time>2022-10-16T07:30:21Z</time>
      </trkpt>
      <trkpt lat="45.01169" lon="4.09527">
        <ele>1134.01</ele>
        <time>2022-10-16T07:30:40Z</time>
      </trkpt>
      <trkpt lat="45.01183" lon="4.09541">
        <ele>1138.34</ele>
        <time>2022-10-16T07:31:01Z</time>
      </trkpt>
      <trkpt lat="45.01198" lon="4.09551">
        <ele>1142.18</ele>
        <time>2022-10-16T07:31:19Z</time>
      </trkpt>
      <trkpt lat="45.01202" lon="4.09552">
        <ele>1143.14</ele>
        <time>2022-10-16T07:31:22Z</time>
      </trkpt>
      <trkpt lat="45.01214" lon="4.09558">
        <ele>1148.91</ele>
        <time>2022-10-16T07:31:36Z</time>
      </trkpt>
      <trkpt lat="45.01226" lon="4.09557">
        <ele>1152.76</ele>
        <time>2022-10-16T07:31:53Z</time>
      </trkpt>
      <trkpt lat="45.0124" lon="4.09559">
        <ele>1158.05</ele>
        <time>2022-10-16T07:32:13Z</time>
      </trkpt>
      <trkpt lat="45.01251" lon="4.09556">
        <ele>1164.77</ele>
        <time>2022-10-16T07:32:31Z</time>
      </trkpt>
      <trkpt lat="45.01268" lon="4.09561">
        <ele>1166.22</ele>
        <time>2022-10-16T07:32:52Z</time>
      </trkpt>
      <trkpt lat="45.01282" lon="4.09576">
        <ele>1167.66</ele>
        <time>2022-10-16T07:33:12Z</time>
      </trkpt>
      <trkpt lat="45.01301" lon="4.09588">
        <ele>1168.14</ele>
        <time>2022-10-16T07:33:33Z</time>
      </trkpt>
      <trkpt lat="45.01313" lon="4.09604">
        <ele>1169.1</ele>
        <time>2022-10-16T07:33:52Z</time>
      </trkpt>
      <trkpt lat="45.01315" lon="4.09623">
        <ele>1169.1</ele>
        <time>2022-10-16T07:34:11Z</time>
      </trkpt>
      <trkpt lat="45.01329" lon="4.09651">
        <ele>1172.95</ele>
        <time>2022-10-16T07:34:35Z</time>
      </trkpt>
      <trkpt lat="45.01343" lon="4.09675">
        <ele>1176.31</ele>
        <time>2022-10-16T07:34:57Z</time>
      </trkpt>
      <trkpt lat="45.01352" lon="4.09696">
        <ele>1172.95</ele>
        <time>2022-10-16T07:35:16Z</time>
      </trkpt>
      <trkpt lat="45.01361" lon="4.09719">
        <ele>1171.02</ele>
        <time>2022-10-16T07:35:40Z</time>
      </trkpt>
      <trkpt lat="45.01372" lon="4.09726">
        <ele>1173.43</ele>
        <time>2022-10-16T07:36:00Z</time>
      </trkpt>
      <trkpt lat="45.01387" lon="4.09719">
        <ele>1181.6</ele>
        <time>2022-10-16T07:36:20Z</time>
      </trkpt>
      <trkpt lat="45.01397" lon="4.09705">
        <ele>1177.75</ele>
        <time>2022-10-16T07:36:40Z</time>
      </trkpt>
      <trkpt lat="45.01403" lon="4.0971">
        <ele>1177.75</ele>
        <time>2022-10-16T07:37:03Z</time>
      </trkpt>
      <trkpt lat="45.01404" lon="4.09709">
        <ele>1177.27</ele>
        <time>2022-10-16T07:37:24Z</time>
      </trkpt>
      <trkpt lat="45.0141" lon="4.09714">
        <ele>1175.83</ele>
        <time>2022-10-16T07:37:38Z</time>
      </trkpt>
      <trkpt lat="45.01415" lon="4.09736">
        <ele>1177.75</ele>
        <time>2022-10-16T07:37:57Z</time>
      </trkpt>
      <trkpt lat="45.01418" lon="4.09749">
        <ele>1177.27</ele>
        <time>2022-10-16T07:38:13Z</time>
      </trkpt>
      <trkpt lat="45.01421" lon="4.09763">
        <ele>1177.27</ele>
        <time>2022-10-16T07:38:30Z</time>
      </trkpt>
      <trkpt lat="45.01428" lon="4.09789">
        <ele>1177.27</ele>
        <time>2022-10-16T07:38:50Z</time>
      </trkpt>
      <trkpt lat="45.01436" lon="4.09806">
        <ele>1179.67</ele>
        <time>2022-10-16T07:39:07Z</time>
      </trkpt>
      <trkpt lat="45.01426" lon="4.09811">
        <ele>1178.71</ele>
        <time>2022-10-16T07:39:21Z</time>
      </trkpt>
      <trkpt lat="45.01424" lon="4.09813">
        <ele>1178.71</ele>
        <time>2022-10-16T07:39:43Z</time>
      </trkpt>
      <trkpt lat="45.01425" lon="4.09826">
        <ele>1178.71</ele>
        <time>2022-10-16T07:40:01Z</time>
      </trkpt>
      <trkpt lat="45.01426" lon="4.09826">
        <ele>1178.23</ele>
        <time>2022-10-16T07:40:22Z</time>
      </trkpt>
      <trkpt lat="45.01423" lon="4.09839">
        <ele>1179.67</ele>
        <time>2022-10-16T07:40:38Z</time>
      </trkpt>
      <trkpt lat="45.01422" lon="4.09849">
        <ele>1180.64</ele>
        <time>2022-10-16T07:40:52Z</time>
      </trkpt>
      <trkpt lat="45.01423" lon="4.09851">
        <ele>1180.64</ele>
        <time>2022-10-16T07:41:08Z</time>
      </trkpt>
      <trkpt lat="45.01422" lon="4.09849">
        <ele>1180.16</ele>
        <time>2022-10-16T07:41:29Z</time>
      </trkpt>
      <trkpt lat="45.01419" lon="4.09863">
        <ele>1180.64</ele>
        <time>2022-10-16T07:41:46Z</time>
      </trkpt>
      <trkpt lat="45.01413" lon="4.09877">
        <ele>1184</ele>
        <time>2022-10-16T07:42:00Z</time>
      </trkpt>
      <trkpt lat="45.0141" lon="4.09883">
        <ele>1190.73</ele>
        <time>2022-10-16T07:42:14Z</time>
      </trkpt>
      <trkpt lat="45.0141" lon="4.09886">
        <ele>1191.69</ele>
        <time>2022-10-16T07:42:30Z</time>
      </trkpt>
      <trkpt lat="45.01409" lon="4.09887">
        <ele>1193.61</ele>
        <time>2022-10-16T07:42:56Z</time>
      </trkpt>
      <trkpt lat="45.01409" lon="4.0989">
        <ele>1193.61</ele>
        <time>2022-10-16T07:43:16Z</time>
      </trkpt>
      <trkpt lat="45.01409" lon="4.09902">
        <ele>1195.54</ele>
        <time>2022-10-16T07:43:36Z</time>
      </trkpt>
      <trkpt lat="45.0141" lon="4.09904">
        <ele>1195.54</ele>
        <time>2022-10-16T07:43:50Z</time>
      </trkpt>
      <trkpt lat="45.01407" lon="4.09913">
        <ele>1195.54</ele>
        <time>2022-10-16T07:44:01Z</time>
      </trkpt>
      <trkpt lat="45.01407" lon="4.09914">
        <ele>1195.54</ele>
        <time>2022-10-16T07:44:05Z</time>
      </trkpt>
      <trkpt lat="45.0141" lon="4.0992">
        <ele>1195.54</ele>
        <time>2022-10-16T07:44:19Z</time>
      </trkpt>
      <trkpt lat="45.01412" lon="4.09922">
        <ele>1194.58</ele>
        <time>2022-10-16T07:44:41Z</time>
      </trkpt>
      <trkpt lat="45.01422" lon="4.0993">
        <ele>1191.21</ele>
        <time>2022-10-16T07:45:06Z</time>
      </trkpt>
      <trkpt lat="45.0143" lon="4.09932">
        <ele>1188.81</ele>
        <time>2022-10-16T07:45:28Z</time>
      </trkpt>
      <trkpt lat="45.01435" lon="4.09935">
        <ele>1188.81</ele>
        <time>2022-10-16T07:45:49Z</time>
      </trkpt>
      <trkpt lat="45.0144" lon="4.09945">
        <ele>1184.48</ele>
        <time>2022-10-16T07:46:13Z</time>
      </trkpt>
      <trkpt lat="45.01446" lon="4.09961">
        <ele>1179.67</ele>
        <time>2022-10-16T07:46:32Z</time>
      </trkpt>
      <trkpt lat="45.01452" lon="4.09981">
        <ele>1178.23</ele>
        <time>2022-10-16T07:46:55Z</time>
      </trkpt>
      <trkpt lat="45.01459" lon="4.09991">
        <ele>1174.87</ele>
        <time>2022-10-16T07:47:10Z</time>
      </trkpt>
      <trkpt lat="45.0147" lon="4.09993">
        <ele>1175.35</ele>
        <time>2022-10-16T07:47:24Z</time>
      </trkpt>
      <trkpt lat="45.01479" lon="4.09991">
        <ele>1175.83</ele>
        <time>2022-10-16T07:47:37Z</time>
      </trkpt>
      <trkpt lat="45.01494" lon="4.09996">
        <ele>1172.47</ele>
        <time>2022-10-16T07:47:55Z</time>
      </trkpt>
      <trkpt lat="45.01511" lon="4.1001">
        <ele>1169.1</ele>
        <time>2022-10-16T07:48:14Z</time>
      </trkpt>
      <trkpt lat="45.01525" lon="4.10025">
        <ele>1162.85</ele>
        <time>2022-10-16T07:48:31Z</time>
      </trkpt>
      <trkpt lat="45.01523" lon="4.10038">
        <ele>1159.97</ele>
        <time>2022-10-16T07:48:40Z</time>
      </trkpt>
      <trkpt lat="45.01519" lon="4.10047">
        <ele>1156.12</ele>
        <time>2022-10-16T07:48:52Z</time>
      </trkpt>
      <trkpt lat="45.01517" lon="4.10049">
        <ele>1154.68</ele>
        <time>2022-10-16T07:48:55Z</time>
      </trkpt>
      <trkpt lat="45.0151" lon="4.10055">
        <ele>1154.2</ele>
        <time>2022-10-16T07:49:09Z</time>
      </trkpt>
      <trkpt lat="45.01507" lon="4.10068">
        <ele>1154.68</ele>
        <time>2022-10-16T07:49:20Z</time>
      </trkpt>
      <trkpt lat="45.01504" lon="4.10073">
        <ele>1153.72</ele>
        <time>2022-10-16T07:49:27Z</time>
      </trkpt>
      <trkpt lat="45.01504" lon="4.10082">
        <ele>1151.8</ele>
        <time>2022-10-16T07:49:35Z</time>
      </trkpt>
      <trkpt lat="45.015" lon="4.10098">
        <ele>1148.43</ele>
        <time>2022-10-16T07:49:51Z</time>
      </trkpt>
      <trkpt lat="45.01496" lon="4.10114">
        <ele>1145.07</ele>
        <time>2022-10-16T07:50:04Z</time>
      </trkpt>
      <trkpt lat="45.01499" lon="4.10126">
        <ele>1143.14</ele>
        <time>2022-10-16T07:50:13Z</time>
      </trkpt>
      <trkpt lat="45.01503" lon="4.10143">
        <ele>1137.86</ele>
        <time>2022-10-16T07:50:27Z</time>
      </trkpt>
      <trkpt lat="45.01509" lon="4.10158">
        <ele>1134.97</ele>
        <time>2022-10-16T07:50:39Z</time>
      </trkpt>
      <trkpt lat="45.01515" lon="4.10176">
        <ele>1130.17</ele>
        <time>2022-10-16T07:50:52Z</time>
      </trkpt>
      <trkpt lat="45.01515" lon="4.10177">
        <ele>1130.17</ele>
        <time>2022-10-16T07:50:53Z</time>
      </trkpt>
      <trkpt lat="45.01521" lon="4.10194">
        <ele>1128.73</ele>
        <time>2022-10-16T07:51:03Z</time>
      </trkpt>
      <trkpt lat="45.01523" lon="4.10213">
        <ele>1125.36</ele>
        <time>2022-10-16T07:51:16Z</time>
      </trkpt>
      <trkpt lat="45.01526" lon="4.10232">
        <ele>1124.4</ele>
        <time>2022-10-16T07:51:27Z</time>
      </trkpt>
      <trkpt lat="45.01526" lon="4.10238">
        <ele>1123.92</ele>
        <time>2022-10-16T07:51:31Z</time>
      </trkpt>
      <trkpt lat="45.01527" lon="4.10244">
        <ele>1123.92</ele>
        <time>2022-10-16T07:51:36Z</time>
      </trkpt>
      <trkpt lat="45.01527" lon="4.10247">
        <ele>1124.4</ele>
        <time>2022-10-16T07:51:38Z</time>
      </trkpt>
      <trkpt lat="45.01533" lon="4.10271">
        <ele>1128.73</ele>
        <time>2022-10-16T07:51:56Z</time>
      </trkpt>
      <trkpt lat="45.0154" lon="4.10288">
        <ele>1130.65</ele>
        <time>2022-10-16T07:52:10Z</time>
      </trkpt>
      <trkpt lat="45.01547" lon="4.10314">
        <ele>1134.01</ele>
        <time>2022-10-16T07:52:28Z</time>
      </trkpt>
      <trkpt lat="45.01548" lon="4.10326">
        <ele>1134.49</ele>
        <time>2022-10-16T07:52:35Z</time>
      </trkpt>
      <trkpt lat="45.01549" lon="4.10341">
        <ele>1136.42</ele>
        <time>2022-10-16T07:52:43Z</time>
      </trkpt>
      <trkpt lat="45.01555" lon="4.10361">
        <ele>1137.38</ele>
        <time>2022-10-16T07:52:57Z</time>
      </trkpt>
      <trkpt lat="45.01563" lon="4.10379">
        <ele>1134.49</ele>
        <time>2022-10-16T07:53:09Z</time>
      </trkpt>
      <trkpt lat="45.01565" lon="4.10386">
        <ele>1133.05</ele>
        <time>2022-10-16T07:53:15Z</time>
      </trkpt>
      <trkpt lat="45.01565" lon="4.10391">
        <ele>1132.09</ele>
        <time>2022-10-16T07:53:19Z</time>
      </trkpt>
      <trkpt lat="45.01562" lon="4.10408">
        <ele>1132.57</ele>
        <time>2022-10-16T07:53:32Z</time>
      </trkpt>
      <trkpt lat="45.01562" lon="4.10427">
        <ele>1133.53</ele>
        <time>2022-10-16T07:53:45Z</time>
      </trkpt>
      <trkpt lat="45.01564" lon="4.10445">
        <ele>1134.97</ele>
        <time>2022-10-16T07:53:58Z</time>
      </trkpt>
      <trkpt lat="45.01567" lon="4.10459">
        <ele>1135.94</ele>
        <time>2022-10-16T07:54:08Z</time>
      </trkpt>
      <trkpt lat="45.01568" lon="4.10484">
        <ele>1136.42</ele>
        <time>2022-10-16T07:54:24Z</time>
      </trkpt>
      <trkpt lat="45.01569" lon="4.1049">
        <ele>1136.9</ele>
        <time>2022-10-16T07:54:29Z</time>
      </trkpt>
      <trkpt lat="45.01572" lon="4.1051">
        <ele>1138.34</ele>
        <time>2022-10-16T07:54:41Z</time>
      </trkpt>
      <trkpt lat="45.01576" lon="4.10522">
        <ele>1138.82</ele>
        <time>2022-10-16T07:54:49Z</time>
      </trkpt>
      <trkpt lat="45.01576" lon="4.10528">
        <ele>1138.82</ele>
        <time>2022-10-16T07:54:54Z</time>
      </trkpt>
      <trkpt lat="45.01579" lon="4.10548">
        <ele>1138.82</ele>
        <time>2022-10-16T07:55:06Z</time>
      </trkpt>
      <trkpt lat="45.01581" lon="4.10564">
        <ele>1137.86</ele>
        <time>2022-10-16T07:55:16Z</time>
      </trkpt>
      <trkpt lat="45.01581" lon="4.10584">
        <ele>1138.34</ele>
        <time>2022-10-16T07:55:27Z</time>
      </trkpt>
      <trkpt lat="45.01581" lon="4.10601">
        <ele>1137.86</ele>
        <time>2022-10-16T07:55:38Z</time>
      </trkpt>
      <trkpt lat="45.01582" lon="4.10624">
        <ele>1137.86</ele>
        <time>2022-10-16T07:55:51Z</time>
      </trkpt>
      <trkpt lat="45.01582" lon="4.10636">
        <ele>1138.34</ele>
        <time>2022-10-16T07:55:58Z</time>
      </trkpt>
      <trkpt lat="45.01582" lon="4.10644">
        <ele>1139.78</ele>
        <time>2022-10-16T07:56:03Z</time>
      </trkpt>
      <trkpt lat="45.01581" lon="4.10669">
        <ele>1140.26</ele>
        <time>2022-10-16T07:56:17Z</time>
      </trkpt>
      <trkpt lat="45.01581" lon="4.10671">
        <ele>1141.22</ele>
        <time>2022-10-16T07:56:34Z</time>
      </trkpt>
      <trkpt lat="45.01581" lon="4.10674">
        <ele>1141.22</ele>
        <time>2022-10-16T07:56:47Z</time>
      </trkpt>
      <trkpt lat="45.01581" lon="4.10682">
        <ele>1142.18</ele>
        <time>2022-10-16T07:56:52Z</time>
      </trkpt>
      <trkpt lat="45.01583" lon="4.10706">
        <ele>1143.63</ele>
        <time>2022-10-16T07:57:06Z</time>
      </trkpt>
      <trkpt lat="45.01582" lon="4.10732">
        <ele>1144.11</ele>
        <time>2022-10-16T07:57:19Z</time>
      </trkpt>
      <trkpt lat="45.01579" lon="4.10748">
        <ele>1144.11</ele>
        <time>2022-10-16T07:57:29Z</time>
      </trkpt>
      <trkpt lat="45.01579" lon="4.10757">
        <ele>1144.11</ele>
        <time>2022-10-16T07:57:34Z</time>
      </trkpt>
      <trkpt lat="45.0158" lon="4.1078">
        <ele>1146.51</ele>
        <time>2022-10-16T07:57:48Z</time>
      </trkpt>
      <trkpt lat="45.0158" lon="4.10786">
        <ele>1146.99</ele>
        <time>2022-10-16T07:57:52Z</time>
      </trkpt>
      <trkpt lat="45.0158" lon="4.10805">
        <ele>1149.39</ele>
        <time>2022-10-16T07:58:03Z</time>
      </trkpt>
      <trkpt lat="45.0158" lon="4.1081">
        <ele>1149.87</ele>
        <time>2022-10-16T07:58:06Z</time>
      </trkpt>
      <trkpt lat="45.01577" lon="4.1082">
        <ele>1148.91</ele>
        <time>2022-10-16T07:58:20Z</time>
      </trkpt>
      <trkpt lat="45.01577" lon="4.10845">
        <ele>1149.39</ele>
        <time>2022-10-16T07:58:32Z</time>
      </trkpt>
      <trkpt lat="45.01575" lon="4.10868">
        <ele>1149.87</ele>
        <time>2022-10-16T07:58:45Z</time>
      </trkpt>
      <trkpt lat="45.01575" lon="4.10882">
        <ele>1150.84</ele>
        <time>2022-10-16T07:58:54Z</time>
      </trkpt>
      <trkpt lat="45.01575" lon="4.10888">
        <ele>1151.8</ele>
        <time>2022-10-16T07:58:58Z</time>
      </trkpt>
      <trkpt lat="45.01572" lon="4.1091">
        <ele>1152.76</ele>
        <time>2022-10-16T07:59:12Z</time>
      </trkpt>
      <trkpt lat="45.01572" lon="4.10922">
        <ele>1153.72</ele>
        <time>2022-10-16T07:59:20Z</time>
      </trkpt>
      <trkpt lat="45.0157" lon="4.10945">
        <ele>1153.24</ele>
        <time>2022-10-16T07:59:34Z</time>
      </trkpt>
      <trkpt lat="45.01569" lon="4.10954">
        <ele>1153.24</ele>
        <time>2022-10-16T07:59:39Z</time>
      </trkpt>
      <trkpt lat="45.01566" lon="4.10976">
        <ele>1154.2</ele>
        <time>2022-10-16T07:59:52Z</time>
      </trkpt>
      <trkpt lat="45.01562" lon="4.10994">
        <ele>1153.24</ele>
        <time>2022-10-16T08:00:04Z</time>
      </trkpt>
      <trkpt lat="45.01559" lon="4.11016">
        <ele>1155.16</ele>
        <time>2022-10-16T08:00:18Z</time>
      </trkpt>
      <trkpt lat="45.01558" lon="4.1102">
        <ele>1155.64</ele>
        <time>2022-10-16T08:00:20Z</time>
      </trkpt>
      <trkpt lat="45.01558" lon="4.11023">
        <ele>1155.64</ele>
        <time>2022-10-16T08:00:22Z</time>
      </trkpt>
      <trkpt lat="45.01558" lon="4.11028">
        <ele>1156.6</ele>
        <time>2022-10-16T08:00:25Z</time>
      </trkpt>
      <trkpt lat="45.01557" lon="4.11052">
        <ele>1158.05</ele>
        <time>2022-10-16T08:00:40Z</time>
      </trkpt>
      <trkpt lat="45.01556" lon="4.11075">
        <ele>1158.53</ele>
        <time>2022-10-16T08:00:55Z</time>
      </trkpt>
      <trkpt lat="45.01556" lon="4.11098">
        <ele>1157.56</ele>
        <time>2022-10-16T08:01:08Z</time>
      </trkpt>
      <trkpt lat="45.01553" lon="4.11118">
        <ele>1156.6</ele>
        <time>2022-10-16T08:01:22Z</time>
      </trkpt>
      <trkpt lat="45.01548" lon="4.11133">
        <ele>1155.64</ele>
        <time>2022-10-16T08:01:34Z</time>
      </trkpt>
      <trkpt lat="45.01542" lon="4.11152">
        <ele>1156.12</ele>
        <time>2022-10-16T08:01:48Z</time>
      </trkpt>
      <trkpt lat="45.01541" lon="4.11156">
        <ele>1156.12</ele>
        <time>2022-10-16T08:01:52Z</time>
      </trkpt>
      <trkpt lat="45.01539" lon="4.11175">
        <ele>1154.68</ele>
        <time>2022-10-16T08:02:03Z</time>
      </trkpt>
      <trkpt lat="45.01539" lon="4.11183">
        <ele>1155.16</ele>
        <time>2022-10-16T08:02:08Z</time>
      </trkpt>
      <trkpt lat="45.01535" lon="4.11202">
        <ele>1156.12</ele>
        <time>2022-10-16T08:02:21Z</time>
      </trkpt>
      <trkpt lat="45.01535" lon="4.11222">
        <ele>1156.6</ele>
        <time>2022-10-16T08:02:32Z</time>
      </trkpt>
      <trkpt lat="45.01536" lon="4.11241">
        <ele>1155.64</ele>
        <time>2022-10-16T08:02:44Z</time>
      </trkpt>
      <trkpt lat="45.01536" lon="4.11245">
        <ele>1155.64</ele>
        <time>2022-10-16T08:02:46Z</time>
      </trkpt>
      <trkpt lat="45.01538" lon="4.11269">
        <ele>1155.64</ele>
        <time>2022-10-16T08:03:00Z</time>
      </trkpt>
      <trkpt lat="45.01538" lon="4.11294">
        <ele>1154.68</ele>
        <time>2022-10-16T08:03:15Z</time>
      </trkpt>
      <trkpt lat="45.01538" lon="4.11315">
        <ele>1154.2</ele>
        <time>2022-10-16T08:03:27Z</time>
      </trkpt>
      <trkpt lat="45.01537" lon="4.11319">
        <ele>1153.24</ele>
        <time>2022-10-16T08:03:30Z</time>
      </trkpt>
      <trkpt lat="45.01534" lon="4.11323">
        <ele>1152.28</ele>
        <time>2022-10-16T08:03:34Z</time>
      </trkpt>
      <trkpt lat="45.01535" lon="4.1134">
        <ele>1152.28</ele>
        <time>2022-10-16T08:03:48Z</time>
      </trkpt>
      <trkpt lat="45.01535" lon="4.11342">
        <ele>1152.28</ele>
        <time>2022-10-16T08:03:50Z</time>
      </trkpt>
      <trkpt lat="45.01535" lon="4.11348">
        <ele>1151.8</ele>
        <time>2022-10-16T08:03:54Z</time>
      </trkpt>
      <trkpt lat="45.01529" lon="4.11372">
        <ele>1149.39</ele>
        <time>2022-10-16T08:04:09Z</time>
      </trkpt>
      <trkpt lat="45.01528" lon="4.11375">
        <ele>1148.91</ele>
        <time>2022-10-16T08:04:11Z</time>
      </trkpt>
      <trkpt lat="45.01521" lon="4.11391">
        <ele>1146.51</ele>
        <time>2022-10-16T08:04:24Z</time>
      </trkpt>
      <trkpt lat="45.01515" lon="4.11401">
        <ele>1146.51</ele>
        <time>2022-10-16T08:04:33Z</time>
      </trkpt>
      <trkpt lat="45.01509" lon="4.11416">
        <ele>1144.59</ele>
        <time>2022-10-16T08:04:46Z</time>
      </trkpt>
      <trkpt lat="45.01504" lon="4.11432">
        <ele>1140.74</ele>
        <time>2022-10-16T08:04:59Z</time>
      </trkpt>
      <trkpt lat="45.01502" lon="4.11435">
        <ele>1139.78</ele>
        <time>2022-10-16T08:05:02Z</time>
      </trkpt>
      <trkpt lat="45.01498" lon="4.1145">
        <ele>1136.42</ele>
        <time>2022-10-16T08:05:13Z</time>
      </trkpt>
      <trkpt lat="45.01492" lon="4.11469">
        <ele>1133.53</ele>
        <time>2022-10-16T08:05:26Z</time>
      </trkpt>
      <trkpt lat="45.01491" lon="4.11478">
        <ele>1133.53</ele>
        <time>2022-10-16T08:05:32Z</time>
      </trkpt>
      <trkpt lat="45.01489" lon="4.11493">
        <ele>1132.57</ele>
        <time>2022-10-16T08:05:42Z</time>
      </trkpt>
      <trkpt lat="45.01484" lon="4.11512">
        <ele>1133.05</ele>
        <time>2022-10-16T08:05:54Z</time>
      </trkpt>
      <trkpt lat="45.01478" lon="4.11529">
        <ele>1132.09</ele>
        <time>2022-10-16T08:06:06Z</time>
      </trkpt>
      <trkpt lat="45.01472" lon="4.11545">
        <ele>1130.17</ele>
        <time>2022-10-16T08:06:17Z</time>
      </trkpt>
      <trkpt lat="45.0147" lon="4.11549">
        <ele>1130.17</ele>
        <time>2022-10-16T08:06:20Z</time>
      </trkpt>
      <trkpt lat="45.01464" lon="4.11567">
        <ele>1129.69</ele>
        <time>2022-10-16T08:06:34Z</time>
      </trkpt>
      <trkpt lat="45.01459" lon="4.11583">
        <ele>1126.32</ele>
        <time>2022-10-16T08:06:49Z</time>
      </trkpt>
      <trkpt lat="45.01458" lon="4.116">
        <ele>1123.92</ele>
        <time>2022-10-16T08:07:01Z</time>
      </trkpt>
      <trkpt lat="45.01454" lon="4.11618">
        <ele>1119.59</ele>
        <time>2022-10-16T08:07:15Z</time>
      </trkpt>
      <trkpt lat="45.0145" lon="4.11631">
        <ele>1117.67</ele>
        <time>2022-10-16T08:07:27Z</time>
      </trkpt>
      <trkpt lat="45.01447" lon="4.11649">
        <ele>1115.75</ele>
        <time>2022-10-16T08:07:40Z</time>
      </trkpt>
      <trkpt lat="45.01444" lon="4.11671">
        <ele>1115.27</ele>
        <time>2022-10-16T08:07:55Z</time>
      </trkpt>
      <trkpt lat="45.01442" lon="4.11688">
        <ele>1113.82</ele>
        <time>2022-10-16T08:08:10Z</time>
      </trkpt>
      <trkpt lat="45.01439" lon="4.11704">
        <ele>1112.38</ele>
        <time>2022-10-16T08:08:23Z</time>
      </trkpt>
      <trkpt lat="45.01437" lon="4.11718">
        <ele>1110.46</ele>
        <time>2022-10-16T08:08:32Z</time>
      </trkpt>
      <trkpt lat="45.01431" lon="4.11729">
        <ele>1108.54</ele>
        <time>2022-10-16T08:08:44Z</time>
      </trkpt>
      <trkpt lat="45.01425" lon="4.11741">
        <ele>1106.61</ele>
        <time>2022-10-16T08:08:56Z</time>
      </trkpt>
      <trkpt lat="45.0142" lon="4.1175">
        <ele>1105.65</ele>
        <time>2022-10-16T08:09:03Z</time>
      </trkpt>
      <trkpt lat="45.01408" lon="4.11761">
        <ele>1105.17</ele>
        <time>2022-10-16T08:09:15Z</time>
      </trkpt>
      <trkpt lat="45.01396" lon="4.11768">
        <ele>1104.21</ele>
        <time>2022-10-16T08:09:28Z</time>
      </trkpt>
      <trkpt lat="45.01391" lon="4.11776">
        <ele>1104.21</ele>
        <time>2022-10-16T08:09:38Z</time>
      </trkpt>
      <trkpt lat="45.01391" lon="4.11786">
        <ele>1104.21</ele>
        <time>2022-10-16T08:09:46Z</time>
      </trkpt>
      <trkpt lat="45.01392" lon="4.11789">
        <ele>1104.21</ele>
        <time>2022-10-16T08:09:48Z</time>
      </trkpt>
      <trkpt lat="45.01392" lon="4.11794">
        <ele>1104.69</ele>
        <time>2022-10-16T08:09:52Z</time>
      </trkpt>
      <trkpt lat="45.01391" lon="4.11811">
        <ele>1103.25</ele>
        <time>2022-10-16T08:10:03Z</time>
      </trkpt>
      <trkpt lat="45.01389" lon="4.11831">
        <ele>1101.81</ele>
        <time>2022-10-16T08:10:16Z</time>
      </trkpt>
      <trkpt lat="45.01388" lon="4.11839">
        <ele>1100.85</ele>
        <time>2022-10-16T08:10:21Z</time>
      </trkpt>
      <trkpt lat="45.0138" lon="4.11862">
        <ele>1098.44</ele>
        <time>2022-10-16T08:10:35Z</time>
      </trkpt>
      <trkpt lat="45.0138" lon="4.11864">
        <ele>1098.44</ele>
        <time>2022-10-16T08:10:37Z</time>
      </trkpt>
      <trkpt lat="45.01378" lon="4.11885">
        <ele>1096.52</ele>
        <time>2022-10-16T08:10:50Z</time>
      </trkpt>
      <trkpt lat="45.01376" lon="4.11893">
        <ele>1095.56</ele>
        <time>2022-10-16T08:10:55Z</time>
      </trkpt>
      <trkpt lat="45.01374" lon="4.119">
        <ele>1094.6</ele>
        <time>2022-10-16T08:11:00Z</time>
      </trkpt>
      <trkpt lat="45.01368" lon="4.11918">
        <ele>1092.68</ele>
        <time>2022-10-16T08:11:11Z</time>
      </trkpt>
      <trkpt lat="45.01359" lon="4.11933">
        <ele>1091.23</ele>
        <time>2022-10-16T08:11:23Z</time>
      </trkpt>
      <trkpt lat="45.01351" lon="4.11947">
        <ele>1089.79</ele>
        <time>2022-10-16T08:11:34Z</time>
      </trkpt>
      <trkpt lat="45.01344" lon="4.11963">
        <ele>1089.79</ele>
        <time>2022-10-16T08:11:45Z</time>
      </trkpt>
      <trkpt lat="45.01342" lon="4.11968">
        <ele>1088.83</ele>
        <time>2022-10-16T08:11:50Z</time>
      </trkpt>
      <trkpt lat="45.01337" lon="4.11986">
        <ele>1087.39</ele>
        <time>2022-10-16T08:12:02Z</time>
      </trkpt>
      <trkpt lat="45.01335" lon="4.11995">
        <ele>1086.91</ele>
        <time>2022-10-16T08:12:08Z</time>
      </trkpt>
      <trkpt lat="45.01334" lon="4.12017">
        <ele>1084.99</ele>
        <time>2022-10-16T08:12:20Z</time>
      </trkpt>
      <trkpt lat="45.01332" lon="4.12029">
        <ele>1084.02</ele>
        <time>2022-10-16T08:12:29Z</time>
      </trkpt>
      <trkpt lat="45.0133" lon="4.1204">
        <ele>1084.02</ele>
        <time>2022-10-16T08:12:35Z</time>
      </trkpt>
      <trkpt lat="45.01328" lon="4.12059">
        <ele>1083.06</ele>
        <time>2022-10-16T08:12:46Z</time>
      </trkpt>
      <trkpt lat="45.01328" lon="4.1206">
        <ele>1083.06</ele>
        <time>2022-10-16T08:12:48Z</time>
      </trkpt>
      <trkpt lat="45.01327" lon="4.1208">
        <ele>1081.14</ele>
        <time>2022-10-16T08:13:00Z</time>
      </trkpt>
      <trkpt lat="45.01327" lon="4.12082">
        <ele>1081.14</ele>
        <time>2022-10-16T08:13:01Z</time>
      </trkpt>
      <trkpt lat="45.01328" lon="4.1209">
        <ele>1079.7</ele>
        <time>2022-10-16T08:13:06Z</time>
      </trkpt>
      <trkpt lat="45.01329" lon="4.12098">
        <ele>1078.74</ele>
        <time>2022-10-16T08:13:11Z</time>
      </trkpt>
      <trkpt lat="45.01329" lon="4.12114">
        <ele>1076.81</ele>
        <time>2022-10-16T08:13:23Z</time>
      </trkpt>
      <trkpt lat="45.01329" lon="4.12134">
        <ele>1074.41</ele>
        <time>2022-10-16T08:13:35Z</time>
      </trkpt>
      <trkpt lat="45.01329" lon="4.12135">
        <ele>1074.41</ele>
        <time>2022-10-16T08:13:36Z</time>
      </trkpt>
      <trkpt lat="45.0133" lon="4.12142">
        <ele>1074.41</ele>
        <time>2022-10-16T08:13:41Z</time>
      </trkpt>
      <trkpt lat="45.01329" lon="4.12155">
        <ele>1074.41</ele>
        <time>2022-10-16T08:13:49Z</time>
      </trkpt>
      <trkpt lat="45.01328" lon="4.12174">
        <ele>1072.97</ele>
        <time>2022-10-16T08:14:01Z</time>
      </trkpt>
      <trkpt lat="45.01329" lon="4.12191">
        <ele>1070.08</ele>
        <time>2022-10-16T08:14:12Z</time>
      </trkpt>
      <trkpt lat="45.01327" lon="4.12201">
        <ele>1069.6</ele>
        <time>2022-10-16T08:14:17Z</time>
      </trkpt>
      <trkpt lat="45.01327" lon="4.12217">
        <ele>1069.12</ele>
        <time>2022-10-16T08:14:29Z</time>
      </trkpt>
      <trkpt lat="45.01324" lon="4.12233">
        <ele>1068.64</ele>
        <time>2022-10-16T08:14:40Z</time>
      </trkpt>
      <trkpt lat="45.01324" lon="4.12234">
        <ele>1068.64</ele>
        <time>2022-10-16T08:14:41Z</time>
      </trkpt>
      <trkpt lat="45.01324" lon="4.12238">
        <ele>1068.16</ele>
        <time>2022-10-16T08:14:43Z</time>
      </trkpt>
      <trkpt lat="45.01323" lon="4.12244">
        <ele>1068.16</ele>
        <time>2022-10-16T08:14:48Z</time>
      </trkpt>
      <trkpt lat="45.01322" lon="4.12254">
        <ele>1068.16</ele>
        <time>2022-10-16T08:14:53Z</time>
      </trkpt>
      <trkpt lat="45.01321" lon="4.12257">
        <ele>1068.16</ele>
        <time>2022-10-16T08:14:55Z</time>
      </trkpt>
      <trkpt lat="45.0132" lon="4.12265">
        <ele>1067.68</ele>
        <time>2022-10-16T08:14:59Z</time>
      </trkpt>
      <trkpt lat="45.01318" lon="4.12272">
        <ele>1067.2</ele>
        <time>2022-10-16T08:15:04Z</time>
      </trkpt>
      <trkpt lat="45.01318" lon="4.12292">
        <ele>1064.32</ele>
        <time>2022-10-16T08:15:17Z</time>
      </trkpt>
      <trkpt lat="45.01315" lon="4.12308">
        <ele>1062.39</ele>
        <time>2022-10-16T08:15:27Z</time>
      </trkpt>
      <trkpt lat="45.01311" lon="4.12314">
        <ele>1061.43</ele>
        <time>2022-10-16T08:15:31Z</time>
      </trkpt>
      <trkpt lat="45.01309" lon="4.12315">
        <ele>1060.95</ele>
        <time>2022-10-16T08:15:33Z</time>
      </trkpt>
      <trkpt lat="45.01306" lon="4.12323">
        <ele>1059.51</ele>
        <time>2022-10-16T08:15:38Z</time>
      </trkpt>
      <trkpt lat="45.01304" lon="4.12332">
        <ele>1060.95</ele>
        <time>2022-10-16T08:15:46Z</time>
      </trkpt>
      <trkpt lat="45.01298" lon="4.12342">
        <ele>1061.91</ele>
        <time>2022-10-16T08:15:54Z</time>
      </trkpt>
      <trkpt lat="45.01297" lon="4.12348">
        <ele>1061.43</ele>
        <time>2022-10-16T08:15:59Z</time>
      </trkpt>
      <trkpt lat="45.01298" lon="4.12367">
        <ele>1059.99</ele>
        <time>2022-10-16T08:16:11Z</time>
      </trkpt>
      <trkpt lat="45.01298" lon="4.12379">
        <ele>1059.99</ele>
        <time>2022-10-16T08:16:18Z</time>
      </trkpt>
      <trkpt lat="45.01294" lon="4.12399">
        <ele>1060.47</ele>
        <time>2022-10-16T08:16:31Z</time>
      </trkpt>
      <trkpt lat="45.01293" lon="4.12409">
        <ele>1060.47</ele>
        <time>2022-10-16T08:16:38Z</time>
      </trkpt>
      <trkpt lat="45.01301" lon="4.12421">
        <ele>1056.63</ele>
        <time>2022-10-16T08:16:48Z</time>
      </trkpt>
      <trkpt lat="45.01311" lon="4.12431">
        <ele>1054.22</ele>
        <time>2022-10-16T08:16:59Z</time>
      </trkpt>
      <trkpt lat="45.01314" lon="4.12443">
        <ele>1053.26</ele>
        <time>2022-10-16T08:17:06Z</time>
      </trkpt>
      <trkpt lat="45.01321" lon="4.12462">
        <ele>1053.74</ele>
        <time>2022-10-16T08:17:21Z</time>
      </trkpt>
      <trkpt lat="45.01321" lon="4.12465">
        <ele>1054.22</ele>
        <time>2022-10-16T08:17:28Z</time>
      </trkpt>
      <trkpt lat="45.01321" lon="4.12468">
        <ele>1053.74</ele>
        <time>2022-10-16T08:17:32Z</time>
      </trkpt>
      <trkpt lat="45.01324" lon="4.12475">
        <ele>1053.74</ele>
        <time>2022-10-16T08:17:37Z</time>
      </trkpt>
      <trkpt lat="45.01332" lon="4.12498">
        <ele>1053.26</ele>
        <time>2022-10-16T08:17:51Z</time>
      </trkpt>
      <trkpt lat="45.01337" lon="4.12505">
        <ele>1052.78</ele>
        <time>2022-10-16T08:17:58Z</time>
      </trkpt>
      <trkpt lat="45.01336" lon="4.12513">
        <ele>1052.78</ele>
        <time>2022-10-16T08:18:04Z</time>
      </trkpt>
      <trkpt lat="45.01321" lon="4.1252">
        <ele>1050.38</ele>
        <time>2022-10-16T08:18:16Z</time>
      </trkpt>
      <trkpt lat="45.01305" lon="4.12525">
        <ele>1049.42</ele>
        <time>2022-10-16T08:18:30Z</time>
      </trkpt>
      <trkpt lat="45.01293" lon="4.1252">
        <ele>1047.01</ele>
        <time>2022-10-16T08:18:39Z</time>
      </trkpt>
      <trkpt lat="45.01284" lon="4.12519">
        <ele>1045.09</ele>
        <time>2022-10-16T08:18:46Z</time>
      </trkpt>
      <trkpt lat="45.01264" lon="4.1251">
        <ele>1049.9</ele>
        <time>2022-10-16T08:23:04Z</time>
      </trkpt>
      <trkpt lat="45.01245" lon="4.12492">
        <ele>1047.49</ele>
        <time>2022-10-16T08:23:22Z</time>
      </trkpt>
      <trkpt lat="45.0123" lon="4.12472">
        <ele>1046.05</ele>
        <time>2022-10-16T08:23:38Z</time>
      </trkpt>
      <trkpt lat="45.01216" lon="4.1245">
        <ele>1046.53</ele>
        <time>2022-10-16T08:23:55Z</time>
      </trkpt>
      <trkpt lat="45.01204" lon="4.1243">
        <ele>1047.01</ele>
        <time>2022-10-16T08:24:09Z</time>
      </trkpt>
      <trkpt lat="45.01192" lon="4.12402">
        <ele>1048.45</ele>
        <time>2022-10-16T08:24:26Z</time>
      </trkpt>
      <trkpt lat="45.01186" lon="4.12374">
        <ele>1047.01</ele>
        <time>2022-10-16T08:24:42Z</time>
      </trkpt>
      <trkpt lat="45.01181" lon="4.12356">
        <ele>1044.61</ele>
        <time>2022-10-16T08:24:58Z</time>
      </trkpt>
      <trkpt lat="45.01181" lon="4.12356">
        <ele>1044.61</ele>
        <time>2022-10-16T08:25:00Z</time>
      </trkpt>
      <trkpt lat="45.01178" lon="4.12345">
        <ele>1044.13</ele>
        <time>2022-10-16T08:25:06Z</time>
      </trkpt>
      <trkpt lat="45.01163" lon="4.12312">
        <ele>1042.21</ele>
        <time>2022-10-16T08:25:26Z</time>
      </trkpt>
      <trkpt lat="45.01161" lon="4.1231">
        <ele>1042.21</ele>
        <time>2022-10-16T08:25:28Z</time>
      </trkpt>
      <trkpt lat="45.01147" lon="4.12296">
        <ele>1041.73</ele>
        <time>2022-10-16T08:25:42Z</time>
      </trkpt>
      <trkpt lat="45.01133" lon="4.12278">
        <ele>1044.61</ele>
        <time>2022-10-16T08:25:59Z</time>
      </trkpt>
      <trkpt lat="45.01117" lon="4.12261">
        <ele>1047.97</ele>
        <time>2022-10-16T08:26:15Z</time>
      </trkpt>
      <trkpt lat="45.01106" lon="4.12257">
        <ele>1048.94</ele>
        <time>2022-10-16T08:26:24Z</time>
      </trkpt>
      <trkpt lat="45.01086" lon="4.12259">
        <ele>1049.42</ele>
        <time>2022-10-16T08:26:40Z</time>
      </trkpt>
      <trkpt lat="45.01066" lon="4.12254">
        <ele>1048.94</ele>
        <time>2022-10-16T08:26:54Z</time>
      </trkpt>
      <trkpt lat="45.01047" lon="4.12241">
        <ele>1046.53</ele>
        <time>2022-10-16T08:27:10Z</time>
      </trkpt>
      <trkpt lat="45.01039" lon="4.12226">
        <ele>1046.05</ele>
        <time>2022-10-16T08:27:21Z</time>
      </trkpt>
      <trkpt lat="45.01018" lon="4.12206">
        <ele>1044.13</ele>
        <time>2022-10-16T08:27:39Z</time>
      </trkpt>
      <trkpt lat="45.01005" lon="4.12187">
        <ele>1042.69</ele>
        <time>2022-10-16T08:27:53Z</time>
      </trkpt>
      <trkpt lat="45.00994" lon="4.12176">
        <ele>1040.76</ele>
        <time>2022-10-16T08:28:05Z</time>
      </trkpt>
      <trkpt lat="45.00973" lon="4.12161">
        <ele>1038.84</ele>
        <time>2022-10-16T08:28:21Z</time>
      </trkpt>
      <trkpt lat="45.00955" lon="4.1214">
        <ele>1037.88</ele>
        <time>2022-10-16T08:28:40Z</time>
      </trkpt>
      <trkpt lat="45.00946" lon="4.1212">
        <ele>1038.36</ele>
        <time>2022-10-16T08:28:54Z</time>
      </trkpt>
      <trkpt lat="45.00945" lon="4.12117">
        <ele>1038.36</ele>
        <time>2022-10-16T08:28:56Z</time>
      </trkpt>
      <trkpt lat="45.00938" lon="4.12098">
        <ele>1038.84</ele>
        <time>2022-10-16T08:29:07Z</time>
      </trkpt>
      <trkpt lat="45.00923" lon="4.12068">
        <ele>1039.32</ele>
        <time>2022-10-16T08:29:27Z</time>
      </trkpt>
      <trkpt lat="45.00907" lon="4.12049">
        <ele>1039.32</ele>
        <time>2022-10-16T08:29:44Z</time>
      </trkpt>
      <trkpt lat="45.00894" lon="4.12023">
        <ele>1041.73</ele>
        <time>2022-10-16T08:30:03Z</time>
      </trkpt>
      <trkpt lat="45.0089" lon="4.12008">
        <ele>1043.17</ele>
        <time>2022-10-16T08:30:12Z</time>
      </trkpt>
      <trkpt lat="45.00886" lon="4.11973">
        <ele>1043.65</ele>
        <time>2022-10-16T08:30:31Z</time>
      </trkpt>
      <trkpt lat="45.00885" lon="4.1197">
        <ele>1043.65</ele>
        <time>2022-10-16T08:30:33Z</time>
      </trkpt>
      <trkpt lat="45.00878" lon="4.11933">
        <ele>1037.4</ele>
        <time>2022-10-16T08:30:54Z</time>
      </trkpt>
      <trkpt lat="45.00871" lon="4.1191">
        <ele>1035.96</ele>
        <time>2022-10-16T08:31:08Z</time>
      </trkpt>
      <trkpt lat="45.00869" lon="4.11884">
        <ele>1035.48</ele>
        <time>2022-10-16T08:31:22Z</time>
      </trkpt>
      <trkpt lat="45.00867" lon="4.11851">
        <ele>1035.96</ele>
        <time>2022-10-16T08:31:39Z</time>
      </trkpt>
      <trkpt lat="45.00864" lon="4.1183">
        <ele>1035.48</ele>
        <time>2022-10-16T08:31:51Z</time>
      </trkpt>
      <trkpt lat="45.00861" lon="4.11808">
        <ele>1035.48</ele>
        <time>2022-10-16T08:32:04Z</time>
      </trkpt>
      <trkpt lat="45.0086" lon="4.11787">
        <ele>1035.96</ele>
        <time>2022-10-16T08:32:14Z</time>
      </trkpt>
      <trkpt lat="45.00865" lon="4.11767">
        <ele>1035.48</ele>
        <time>2022-10-16T08:32:27Z</time>
      </trkpt>
      <trkpt lat="45.00869" lon="4.11747">
        <ele>1037.4</ele>
        <time>2022-10-16T08:32:38Z</time>
      </trkpt>
      <trkpt lat="45.00875" lon="4.11731">
        <ele>1038.36</ele>
        <time>2022-10-16T08:32:48Z</time>
      </trkpt>
      <trkpt lat="45.00875" lon="4.11728">
        <ele>1038.84</ele>
        <time>2022-10-16T08:32:49Z</time>
      </trkpt>
      <trkpt lat="45.00879" lon="4.11708">
        <ele>1038.36</ele>
        <time>2022-10-16T08:33:02Z</time>
      </trkpt>
      <trkpt lat="45.00882" lon="4.11691">
        <ele>1038.36</ele>
        <time>2022-10-16T08:33:11Z</time>
      </trkpt>
      <trkpt lat="45.00886" lon="4.11672">
        <ele>1036.92</ele>
        <time>2022-10-16T08:33:21Z</time>
      </trkpt>
      <trkpt lat="45.00887" lon="4.11647">
        <ele>1035.48</ele>
        <time>2022-10-16T08:33:35Z</time>
      </trkpt>
      <trkpt lat="45.00887" lon="4.11619">
        <ele>1032.11</ele>
        <time>2022-10-16T08:33:50Z</time>
      </trkpt>
      <trkpt lat="45.00892" lon="4.11601">
        <ele>1033.07</ele>
        <time>2022-10-16T08:34:01Z</time>
      </trkpt>
      <trkpt lat="45.00895" lon="4.11593">
        <ele>1033.55</ele>
        <time>2022-10-16T08:34:06Z</time>
      </trkpt>
      <trkpt lat="45.00897" lon="4.1157">
        <ele>1034.04</ele>
        <time>2022-10-16T08:34:17Z</time>
      </trkpt>
      <trkpt lat="45.009" lon="4.1155">
        <ele>1034.52</ele>
        <time>2022-10-16T08:34:28Z</time>
      </trkpt>
      <trkpt lat="45.00898" lon="4.11533">
        <ele>1035</ele>
        <time>2022-10-16T08:34:38Z</time>
      </trkpt>
      <trkpt lat="45.00895" lon="4.11514">
        <ele>1035.48</ele>
        <time>2022-10-16T08:34:49Z</time>
      </trkpt>
      <trkpt lat="45.00891" lon="4.11495">
        <ele>1037.4</ele>
        <time>2022-10-16T08:35:01Z</time>
      </trkpt>
      <trkpt lat="45.00885" lon="4.11476">
        <ele>1036.92</ele>
        <time>2022-10-16T08:35:12Z</time>
      </trkpt>
      <trkpt lat="45.00885" lon="4.11473">
        <ele>1036.44</ele>
        <time>2022-10-16T08:35:14Z</time>
      </trkpt>
      <trkpt lat="45.00884" lon="4.1147">
        <ele>1036.44</ele>
        <time>2022-10-16T08:35:16Z</time>
      </trkpt>
      <trkpt lat="45.0088" lon="4.11449">
        <ele>1037.4</ele>
        <time>2022-10-16T08:35:28Z</time>
      </trkpt>
      <trkpt lat="45.00879" lon="4.11435">
        <ele>1038.36</ele>
        <time>2022-10-16T08:35:36Z</time>
      </trkpt>
      <trkpt lat="45.00879" lon="4.11424">
        <ele>1038.36</ele>
        <time>2022-10-16T08:35:42Z</time>
      </trkpt>
      <trkpt lat="45.00878" lon="4.11407">
        <ele>1041.25</ele>
        <time>2022-10-16T08:35:52Z</time>
      </trkpt>
      <trkpt lat="45.00876" lon="4.11387">
        <ele>1044.13</ele>
        <time>2022-10-16T08:36:03Z</time>
      </trkpt>
      <trkpt lat="45.00876" lon="4.11358">
        <ele>1042.69</ele>
        <time>2022-10-16T08:36:17Z</time>
      </trkpt>
      <trkpt lat="45.0088" lon="4.11332">
        <ele>1043.65</ele>
        <time>2022-10-16T08:36:32Z</time>
      </trkpt>
      <trkpt lat="45.00882" lon="4.11313">
        <ele>1045.09</ele>
        <time>2022-10-16T08:36:46Z</time>
      </trkpt>
      <trkpt lat="45.0089" lon="4.11283">
        <ele>1045.57</ele>
        <time>2022-10-16T08:37:02Z</time>
      </trkpt>
      <trkpt lat="45.0089" lon="4.1128">
        <ele>1045.57</ele>
        <time>2022-10-16T08:37:03Z</time>
      </trkpt>
      <trkpt lat="45.00888" lon="4.11256">
        <ele>1043.17</ele>
        <time>2022-10-16T08:37:15Z</time>
      </trkpt>
      <trkpt lat="45.00886" lon="4.11253">
        <ele>1042.69</ele>
        <time>2022-10-16T08:37:18Z</time>
      </trkpt>
      <trkpt lat="45.00881" lon="4.11243">
        <ele>1043.17</ele>
        <time>2022-10-16T08:37:26Z</time>
      </trkpt>
      <trkpt lat="45.00872" lon="4.11226">
        <ele>1044.61</ele>
        <time>2022-10-16T08:37:38Z</time>
      </trkpt>
      <trkpt lat="45.00863" lon="4.1121">
        <ele>1046.53</ele>
        <time>2022-10-16T08:37:51Z</time>
      </trkpt>
      <trkpt lat="45.00855" lon="4.11197">
        <ele>1048.45</ele>
        <time>2022-10-16T08:38:01Z</time>
      </trkpt>
      <trkpt lat="45.00849" lon="4.11178">
        <ele>1047.97</ele>
        <time>2022-10-16T08:38:11Z</time>
      </trkpt>
      <trkpt lat="45.00846" lon="4.11172">
        <ele>1048.45</ele>
        <time>2022-10-16T08:38:16Z</time>
      </trkpt>
      <trkpt lat="45.00837" lon="4.1115">
        <ele>1048.45</ele>
        <time>2022-10-16T08:38:36Z</time>
      </trkpt>
      <trkpt lat="45.00836" lon="4.11146">
        <ele>1047.97</ele>
        <time>2022-10-16T08:38:55Z</time>
      </trkpt>
      <trkpt lat="45.00831" lon="4.11139">
        <ele>1047.49</ele>
        <time>2022-10-16T08:39:03Z</time>
      </trkpt>
      <trkpt lat="45.00823" lon="4.11119">
        <ele>1049.42</ele>
        <time>2022-10-16T08:39:20Z</time>
      </trkpt>
      <trkpt lat="45.00817" lon="4.11097">
        <ele>1051.34</ele>
        <time>2022-10-16T08:39:37Z</time>
      </trkpt>
      <trkpt lat="45.00806" lon="4.11075">
        <ele>1050.86</ele>
        <time>2022-10-16T08:39:54Z</time>
      </trkpt>
      <trkpt lat="45.00804" lon="4.11074">
        <ele>1050.86</ele>
        <time>2022-10-16T08:39:56Z</time>
      </trkpt>
      <trkpt lat="45.00798" lon="4.11068">
        <ele>1051.34</ele>
        <time>2022-10-16T08:40:03Z</time>
      </trkpt>
      <trkpt lat="45.00778" lon="4.1105">
        <ele>1055.18</ele>
        <time>2022-10-16T08:40:23Z</time>
      </trkpt>
      <trkpt lat="45.00772" lon="4.11037">
        <ele>1055.18</ele>
        <time>2022-10-16T08:40:33Z</time>
      </trkpt>
      <trkpt lat="45.00765" lon="4.11006">
        <ele>1053.26</ele>
        <time>2022-10-16T08:40:53Z</time>
      </trkpt>
      <trkpt lat="45.00766" lon="4.10996">
        <ele>1052.78</ele>
        <time>2022-10-16T08:40:59Z</time>
      </trkpt>
      <trkpt lat="45.00763" lon="4.10983">
        <ele>1054.7</ele>
        <time>2022-10-16T08:41:09Z</time>
      </trkpt>
      <trkpt lat="45.00764" lon="4.10961">
        <ele>1054.7</ele>
        <time>2022-10-16T08:41:24Z</time>
      </trkpt>
      <trkpt lat="45.00769" lon="4.10945">
        <ele>1049.9</ele>
        <time>2022-10-16T08:41:38Z</time>
      </trkpt>
      <trkpt lat="45.00773" lon="4.10927">
        <ele>1044.61</ele>
        <time>2022-10-16T08:41:50Z</time>
      </trkpt>
      <trkpt lat="45.00774" lon="4.10916">
        <ele>1041.25</ele>
        <time>2022-10-16T08:42:00Z</time>
      </trkpt>
      <trkpt lat="45.00772" lon="4.10899">
        <ele>1040.76</ele>
        <time>2022-10-16T08:42:13Z</time>
      </trkpt>
      <trkpt lat="45.00769" lon="4.10898">
        <ele>1040.76</ele>
        <time>2022-10-16T08:42:16Z</time>
      </trkpt>
      <trkpt lat="45.00753" lon="4.10891">
        <ele>1042.21</ele>
        <time>2022-10-16T08:42:28Z</time>
      </trkpt>
      <trkpt lat="45.00742" lon="4.10886">
        <ele>1042.21</ele>
        <time>2022-10-16T08:42:39Z</time>
      </trkpt>
      <trkpt lat="45.00731" lon="4.10875">
        <ele>1041.73</ele>
        <time>2022-10-16T08:42:52Z</time>
      </trkpt>
      <trkpt lat="45.0072" lon="4.10866">
        <ele>1043.17</ele>
        <time>2022-10-16T08:43:07Z</time>
      </trkpt>
      <trkpt lat="45.00717" lon="4.10864">
        <ele>1043.17</ele>
        <time>2022-10-16T08:43:10Z</time>
      </trkpt>
      <trkpt lat="45.00706" lon="4.10857">
        <ele>1042.69</ele>
        <time>2022-10-16T08:43:22Z</time>
      </trkpt>
      <trkpt lat="45.00693" lon="4.10847">
        <ele>1042.21</ele>
        <time>2022-10-16T08:43:35Z</time>
      </trkpt>
      <trkpt lat="45.00691" lon="4.10845">
        <ele>1042.21</ele>
        <time>2022-10-16T08:43:38Z</time>
      </trkpt>
      <trkpt lat="45.00684" lon="4.10832">
        <ele>1041.73</ele>
        <time>2022-10-16T08:43:48Z</time>
      </trkpt>
      <trkpt lat="45.00679" lon="4.10819">
        <ele>1041.73</ele>
        <time>2022-10-16T08:43:59Z</time>
      </trkpt>
      <trkpt lat="45.00678" lon="4.10816">
        <ele>1040.76</ele>
        <time>2022-10-16T08:44:01Z</time>
      </trkpt>
      <trkpt lat="45.00675" lon="4.10808">
        <ele>1038.36</ele>
        <time>2022-10-16T08:44:06Z</time>
      </trkpt>
      <trkpt lat="45.00668" lon="4.10794">
        <ele>1037.4</ele>
        <time>2022-10-16T08:44:16Z</time>
      </trkpt>
      <trkpt lat="45.00656" lon="4.1078">
        <ele>1040.76</ele>
        <time>2022-10-16T08:44:26Z</time>
      </trkpt>
      <trkpt lat="45.00651" lon="4.10776">
        <ele>1040.28</ele>
        <time>2022-10-16T08:44:31Z</time>
      </trkpt>
      <trkpt lat="45.00638" lon="4.10779">
        <ele>1040.28</ele>
        <time>2022-10-16T08:44:43Z</time>
      </trkpt>
      <trkpt lat="45.00625" lon="4.10789">
        <ele>1040.76</ele>
        <time>2022-10-16T08:44:58Z</time>
      </trkpt>
      <trkpt lat="45.0061" lon="4.10803">
        <ele>1044.13</ele>
        <time>2022-10-16T08:45:13Z</time>
      </trkpt>
      <trkpt lat="45.00602" lon="4.10818">
        <ele>1048.45</ele>
        <time>2022-10-16T08:45:26Z</time>
      </trkpt>
      <trkpt lat="45.00588" lon="4.10832">
        <ele>1050.86</ele>
        <time>2022-10-16T08:45:41Z</time>
      </trkpt>
      <trkpt lat="45.00586" lon="4.10838">
        <ele>1050.38</ele>
        <time>2022-10-16T08:45:46Z</time>
      </trkpt>
      <trkpt lat="45.0058" lon="4.10851">
        <ele>1051.82</ele>
        <time>2022-10-16T08:45:58Z</time>
      </trkpt>
      <trkpt lat="45.0057" lon="4.10863">
        <ele>1052.3</ele>
        <time>2022-10-16T08:46:10Z</time>
      </trkpt>
      <trkpt lat="45.00562" lon="4.10869">
        <ele>1052.3</ele>
        <time>2022-10-16T08:46:20Z</time>
      </trkpt>
      <trkpt lat="45.00547" lon="4.10879">
        <ele>1054.22</ele>
        <time>2022-10-16T08:46:37Z</time>
      </trkpt>
      <trkpt lat="45.00537" lon="4.10878">
        <ele>1056.15</ele>
        <time>2022-10-16T08:46:53Z</time>
      </trkpt>
      <trkpt lat="45.00515" lon="4.10882">
        <ele>1057.11</ele>
        <time>2022-10-16T08:47:13Z</time>
      </trkpt>
      <trkpt lat="45.00483" lon="4.109">
        <ele>1061.43</ele>
        <time>2022-10-16T08:47:32Z</time>
      </trkpt>
      <trkpt lat="45.00462" lon="4.10912">
        <ele>1063.36</ele>
        <time>2022-10-16T08:47:55Z</time>
      </trkpt>
      <trkpt lat="45.00443" lon="4.10925">
        <ele>1069.12</ele>
        <time>2022-10-16T08:48:16Z</time>
      </trkpt>
      <trkpt lat="45.00425" lon="4.10933">
        <ele>1077.29</ele>
        <time>2022-10-16T08:48:28Z</time>
      </trkpt>
      <trkpt lat="45.00416" lon="4.10943">
        <ele>1078.74</ele>
        <time>2022-10-16T08:48:40Z</time>
      </trkpt>
      <trkpt lat="45.00413" lon="4.10948">
        <ele>1079.22</ele>
        <time>2022-10-16T08:48:44Z</time>
      </trkpt>
      <trkpt lat="45.00407" lon="4.10958">
        <ele>1081.14</ele>
        <time>2022-10-16T08:48:53Z</time>
      </trkpt>
      <trkpt lat="45.00404" lon="4.10962">
        <ele>1083.54</ele>
        <time>2022-10-16T08:48:57Z</time>
      </trkpt>
      <trkpt lat="45.00396" lon="4.10968">
        <ele>1088.83</ele>
        <time>2022-10-16T08:49:05Z</time>
      </trkpt>
      <trkpt lat="45.00392" lon="4.10974">
        <ele>1090.75</ele>
        <time>2022-10-16T08:49:11Z</time>
      </trkpt>
      <trkpt lat="45.00387" lon="4.10992">
        <ele>1095.56</ele>
        <time>2022-10-16T08:49:26Z</time>
      </trkpt>
      <trkpt lat="45.0038" lon="4.11005">
        <ele>1097</ele>
        <time>2022-10-16T08:49:37Z</time>
      </trkpt>
      <trkpt lat="45.00373" lon="4.11011">
        <ele>1097.96</ele>
        <time>2022-10-16T08:49:43Z</time>
      </trkpt>
      <trkpt lat="45.00362" lon="4.11026">
        <ele>1100.85</ele>
        <time>2022-10-16T08:49:57Z</time>
      </trkpt>
      <trkpt lat="45.00357" lon="4.11037">
        <ele>1102.77</ele>
        <time>2022-10-16T08:50:07Z</time>
      </trkpt>
      <trkpt lat="45.00353" lon="4.11044">
        <ele>1102.77</ele>
        <time>2022-10-16T08:50:15Z</time>
      </trkpt>
      <trkpt lat="45.00347" lon="4.11065">
        <ele>1103.73</ele>
        <time>2022-10-16T08:50:28Z</time>
      </trkpt>
      <trkpt lat="45.00342" lon="4.1107">
        <ele>1106.13</ele>
        <time>2022-10-16T08:50:36Z</time>
      </trkpt>
      <trkpt lat="45.00336" lon="4.11077">
        <ele>1108.54</ele>
        <time>2022-10-16T08:50:42Z</time>
      </trkpt>
      <trkpt lat="45.00325" lon="4.11095">
        <ele>1111.42</ele>
        <time>2022-10-16T08:50:58Z</time>
      </trkpt>
      <trkpt lat="45.00314" lon="4.11111">
        <ele>1112.86</ele>
        <time>2022-10-16T08:51:11Z</time>
      </trkpt>
      <trkpt lat="45.00308" lon="4.11126">
        <ele>1115.27</ele>
        <time>2022-10-16T08:51:24Z</time>
      </trkpt>
      <trkpt lat="45.00306" lon="4.11127">
        <ele>1115.27</ele>
        <time>2022-10-16T08:51:26Z</time>
      </trkpt>
      <trkpt lat="45.00295" lon="4.11145">
        <ele>1116.71</ele>
        <time>2022-10-16T08:51:39Z</time>
      </trkpt>
      <trkpt lat="45.00288" lon="4.11159">
        <ele>1114.31</ele>
        <time>2022-10-16T08:51:53Z</time>
      </trkpt>
      <trkpt lat="45.00274" lon="4.11171">
        <ele>1113.82</ele>
        <time>2022-10-16T08:52:07Z</time>
      </trkpt>
      <trkpt lat="45.00264" lon="4.11183">
        <ele>1113.34</ele>
        <time>2022-10-16T08:52:19Z</time>
      </trkpt>
      <trkpt lat="45.00262" lon="4.11185">
        <ele>1112.86</ele>
        <time>2022-10-16T08:52:21Z</time>
      </trkpt>
      <trkpt lat="45.00259" lon="4.11208">
        <ele>1113.34</ele>
        <time>2022-10-16T08:52:35Z</time>
      </trkpt>
      <trkpt lat="45.00252" lon="4.11228">
        <ele>1113.82</ele>
        <time>2022-10-16T08:52:49Z</time>
      </trkpt>
      <trkpt lat="45.00252" lon="4.11231">
        <ele>1113.82</ele>
        <time>2022-10-16T08:52:51Z</time>
      </trkpt>
      <trkpt lat="45.0025" lon="4.1124">
        <ele>1113.34</ele>
        <time>2022-10-16T08:52:57Z</time>
      </trkpt>
      <trkpt lat="45.00244" lon="4.11252">
        <ele>1115.27</ele>
        <time>2022-10-16T08:53:04Z</time>
      </trkpt>
      <trkpt lat="45.00238" lon="4.11256">
        <ele>1115.75</ele>
        <time>2022-10-16T08:53:11Z</time>
      </trkpt>
      <trkpt lat="45.00232" lon="4.11262">
        <ele>1115.75</ele>
        <time>2022-10-16T08:53:17Z</time>
      </trkpt>
      <trkpt lat="45.0022" lon="4.11279">
        <ele>1116.23</ele>
        <time>2022-10-16T08:53:28Z</time>
      </trkpt>
      <trkpt lat="45.00212" lon="4.11287">
        <ele>1116.71</ele>
        <time>2022-10-16T08:53:37Z</time>
      </trkpt>
      <trkpt lat="45.00212" lon="4.11289">
        <ele>1117.19</ele>
        <time>2022-10-16T08:53:38Z</time>
      </trkpt>
      <trkpt lat="45.00203" lon="4.11306">
        <ele>1119.59</ele>
        <time>2022-10-16T08:53:51Z</time>
      </trkpt>
      <trkpt lat="45.00197" lon="4.11325">
        <ele>1121.03</ele>
        <time>2022-10-16T08:54:04Z</time>
      </trkpt>
      <trkpt lat="45.00194" lon="4.11334">
        <ele>1121.03</ele>
        <time>2022-10-16T08:54:08Z</time>
      </trkpt>
      <trkpt lat="45.00192" lon="4.11338">
        <ele>1121.52</ele>
        <time>2022-10-16T08:54:11Z</time>
      </trkpt>
      <trkpt lat="45.00189" lon="4.11347">
        <ele>1122</ele>
        <time>2022-10-16T08:54:17Z</time>
      </trkpt>
      <trkpt lat="45.00188" lon="4.11352">
        <ele>1122</ele>
        <time>2022-10-16T08:54:20Z</time>
      </trkpt>
      <trkpt lat="45.00186" lon="4.1136">
        <ele>1122</ele>
        <time>2022-10-16T08:54:25Z</time>
      </trkpt>
      <trkpt lat="45.00177" lon="4.11384">
        <ele>1122.96</ele>
        <time>2022-10-16T08:54:38Z</time>
      </trkpt>
      <trkpt lat="45.00173" lon="4.11401">
        <ele>1123.44</ele>
        <time>2022-10-16T08:54:49Z</time>
      </trkpt>
      <trkpt lat="45.0017" lon="4.11423">
        <ele>1123.92</ele>
        <time>2022-10-16T08:55:01Z</time>
      </trkpt>
      <trkpt lat="45.00166" lon="4.11443">
        <ele>1122.48</ele>
        <time>2022-10-16T08:55:13Z</time>
      </trkpt>
      <trkpt lat="45.00161" lon="4.11463">
        <ele>1121.03</ele>
        <time>2022-10-16T08:55:24Z</time>
      </trkpt>
      <trkpt lat="45.00161" lon="4.11468">
        <ele>1120.55</ele>
        <time>2022-10-16T08:55:26Z</time>
      </trkpt>
      <trkpt lat="45.00159" lon="4.11475">
        <ele>1119.59</ele>
        <time>2022-10-16T08:55:31Z</time>
      </trkpt>
      <trkpt lat="45.00158" lon="4.11485">
        <ele>1119.11</ele>
        <time>2022-10-16T08:55:35Z</time>
      </trkpt>
      <trkpt lat="45.00158" lon="4.11491">
        <ele>1119.11</ele>
        <time>2022-10-16T08:55:39Z</time>
      </trkpt>
      <trkpt lat="45.00158" lon="4.11518">
        <ele>1119.59</ele>
        <time>2022-10-16T08:55:52Z</time>
      </trkpt>
      <trkpt lat="45.00162" lon="4.11528">
        <ele>1119.59</ele>
        <time>2022-10-16T08:55:58Z</time>
      </trkpt>
      <trkpt lat="45.00158" lon="4.11538">
        <ele>1120.07</ele>
        <time>2022-10-16T08:56:05Z</time>
      </trkpt>
      <trkpt lat="45.00159" lon="4.11566">
        <ele>1117.67</ele>
        <time>2022-10-16T08:56:18Z</time>
      </trkpt>
      <trkpt lat="45.00153" lon="4.11592">
        <ele>1115.75</ele>
        <time>2022-10-16T08:56:35Z</time>
      </trkpt>
      <trkpt lat="45.00157" lon="4.11615">
        <ele>1115.75</ele>
        <time>2022-10-16T08:56:46Z</time>
      </trkpt>
      <trkpt lat="45.0016" lon="4.11632">
        <ele>1114.31</ele>
        <time>2022-10-16T08:56:55Z</time>
      </trkpt>
      <trkpt lat="45.00168" lon="4.11651">
        <ele>1113.34</ele>
        <time>2022-10-16T08:57:07Z</time>
      </trkpt>
      <trkpt lat="45.00175" lon="4.11668">
        <ele>1113.82</ele>
        <time>2022-10-16T08:57:17Z</time>
      </trkpt>
      <trkpt lat="45.00179" lon="4.11688">
        <ele>1113.82</ele>
        <time>2022-10-16T08:57:28Z</time>
      </trkpt>
      <trkpt lat="45.00181" lon="4.11705">
        <ele>1108.3</ele>
      </trkpt>
      <trkpt lat="45.00186" lon="4.11699">
        <ele>1108.6</ele>
      </trkpt>
      <trkpt lat="45.00205" lon="4.11697">
        <ele>1110.5</ele>
      </trkpt>
      <trkpt lat="45.00209" lon="4.11703">
        <ele>1110.8</ele>
      </trkpt>
      <trkpt lat="45.00231" lon="4.1169">
        <ele>1115.6</ele>
      </trkpt>
      <trkpt lat="45.0025" lon="4.11701">
        <ele>1119.3</ele>
      </trkpt>
      <trkpt lat="45.00256" lon="4.11701">
        <ele>1121</ele>
      </trkpt>
      <trkpt lat="45.00261" lon="4.11695">
        <ele>1123.1</ele>
      </trkpt>
      <trkpt lat="45.00258" lon="4.11678">
        <ele>1124.6</ele>
      </trkpt>
      <trkpt lat="45.0026" lon="4.1167">
        <ele>1126.5</ele>
      </trkpt>
      <trkpt lat="45.00264" lon="4.11673">
        <ele>1127.5</ele>
      </trkpt>
      <trkpt lat="45.00285" lon="4.11699">
        <ele>1130.8</ele>
      </trkpt>
      <trkpt lat="45.00317" lon="4.11744">
        <ele>1135</ele>
      </trkpt>
      <trkpt lat="45.00351" lon="4.11765">
        <ele>1145.2</ele>
      </trkpt>
      <trkpt lat="45.00369" lon="4.11788">
        <ele>1146.8</ele>
      </trkpt>
      <trkpt lat="45.00385" lon="4.1179">
        <ele>1150.4</ele>
      </trkpt>
      <trkpt lat="45.00391" lon="4.11791">
        <ele>1151.2</ele>
      </trkpt>
      <trkpt lat="45.00399" lon="4.11787">
        <ele>1152.2</ele>
      </trkpt>
      <trkpt lat="45.00414" lon="4.11792">
        <ele>1151.9</ele>
      </trkpt>
      <trkpt lat="45.00409" lon="4.11779">
        <ele>1153.8</ele>
      </trkpt>
      <trkpt lat="45.00402" lon="4.11767">
        <ele>1156.7</ele>
      </trkpt>
      <trkpt lat="45.0035" lon="4.11693">
        <ele>1167.9</ele>
      </trkpt>
      <trkpt lat="45.00406" lon="4.11666">
        <ele>1174</ele>
      </trkpt>
      <trkpt lat="45.00427" lon="4.1165">
        <ele>1173.7</ele>
      </trkpt>
      <trkpt lat="45.00445" lon="4.11631">
        <ele>1173.7</ele>
      </trkpt>
      <trkpt lat="45.00427" lon="4.1165">
        <ele>1173.7</ele>
      </trkpt>
      <trkpt lat="45.00406" lon="4.11666">
        <ele>1174</ele>
      </trkpt>
      <trkpt lat="45.0035" lon="4.11693">
        <ele>1167.9</ele>
      </trkpt>
      <trkpt lat="45.00402" lon="4.11767">
        <ele>1156.7</ele>
      </trkpt>
      <trkpt lat="45.00409" lon="4.11779">
        <ele>1153.8</ele>
      </trkpt>
      <trkpt lat="45.00414" lon="4.11792">
        <ele>1151.9</ele>
      </trkpt>
      <trkpt lat="45.00421" lon="4.11836">
        <ele>1146.7</ele>
      </trkpt>
      <trkpt lat="45.00426" lon="4.11893">
        <ele>1144.4</ele>
      </trkpt>
      <trkpt lat="45.00433" lon="4.11932">
        <ele>1144.7</ele>
      </trkpt>
      <trkpt lat="45.0045" lon="4.11986">
        <ele>1146.3</ele>
      </trkpt>
      <trkpt lat="45.00481" lon="4.12111">
        <ele>1145</ele>
      </trkpt>
      <trkpt lat="45.00486" lon="4.12136">
        <ele>1145</ele>
      </trkpt>
      <trkpt lat="45.00483" lon="4.12146">
        <ele>1145.2</ele>
      </trkpt>
      <trkpt lat="45.00488" lon="4.1216">
        <ele>1145.9</ele>
      </trkpt>
      <trkpt lat="45.00501" lon="4.12221">
        <ele>1149.9</ele>
      </trkpt>
      <trkpt lat="45.00506" lon="4.12236">
        <ele>1148.91</ele>
        <time>2022-10-16T09:33:32Z</time>
      </trkpt>
      <trkpt lat="45.00512" lon="4.12261">
        <ele>1150.35</ele>
        <time>2022-10-16T09:33:50Z</time>
      </trkpt>
      <trkpt lat="45.00517" lon="4.12288">
        <ele>1150.35</ele>
        <time>2022-10-16T09:34:08Z</time>
      </trkpt>
      <trkpt lat="45.0052" lon="4.12321">
        <ele>1151.8</ele>
        <time>2022-10-16T09:34:27Z</time>
      </trkpt>
      <trkpt lat="45.00525" lon="4.1235">
        <ele>1154.2</ele>
        <time>2022-10-16T09:34:46Z</time>
      </trkpt>
      <trkpt lat="45.0053" lon="4.12373">
        <ele>1157.08</ele>
        <time>2022-10-16T09:35:02Z</time>
      </trkpt>
      <trkpt lat="45.00536" lon="4.12405">
        <ele>1157.56</ele>
        <time>2022-10-16T09:35:19Z</time>
      </trkpt>
      <trkpt lat="45.00544" lon="4.12435">
        <ele>1159.97</ele>
        <time>2022-10-16T09:35:37Z</time>
      </trkpt>
      <trkpt lat="45.00552" lon="4.12466">
        <ele>1162.37</ele>
        <time>2022-10-16T09:35:55Z</time>
      </trkpt>
      <trkpt lat="45.00558" lon="4.12492">
        <ele>1163.33</ele>
        <time>2022-10-16T09:36:11Z</time>
      </trkpt>
      <trkpt lat="45.00568" lon="4.12525">
        <ele>1164.29</ele>
        <time>2022-10-16T09:36:31Z</time>
      </trkpt>
      <trkpt lat="45.00577" lon="4.12559">
        <ele>1166.22</ele>
        <time>2022-10-16T09:36:50Z</time>
      </trkpt>
      <trkpt lat="45.00585" lon="4.1259">
        <ele>1167.18</ele>
        <time>2022-10-16T09:37:08Z</time>
      </trkpt>
      <trkpt lat="45.00592" lon="4.12618">
        <ele>1166.22</ele>
        <time>2022-10-16T09:37:25Z</time>
      </trkpt>
      <trkpt lat="45.00598" lon="4.12654">
        <ele>1165.74</ele>
        <time>2022-10-16T09:37:45Z</time>
      </trkpt>
      <trkpt lat="45.00601" lon="4.12691">
        <ele>1164.29</ele>
        <time>2022-10-16T09:38:05Z</time>
      </trkpt>
      <trkpt lat="45.00607" lon="4.12723">
        <ele>1166.22</ele>
        <time>2022-10-16T09:38:24Z</time>
      </trkpt>
      <trkpt lat="45.00615" lon="4.12759">
        <ele>1167.66</ele>
        <time>2022-10-16T09:38:43Z</time>
      </trkpt>
      <trkpt lat="45.00623" lon="4.12786">
        <ele>1168.14</ele>
        <time>2022-10-16T09:38:59Z</time>
      </trkpt>
      <trkpt lat="45.0063" lon="4.12814">
        <ele>1168.62</ele>
        <time>2022-10-16T09:39:15Z</time>
      </trkpt>
      <trkpt lat="45.00641" lon="4.12847">
        <ele>1167.66</ele>
        <time>2022-10-16T09:39:34Z</time>
      </trkpt>
      <trkpt lat="45.00649" lon="4.12878">
        <ele>1166.7</ele>
        <time>2022-10-16T09:39:52Z</time>
      </trkpt>
      <trkpt lat="45.00659" lon="4.12909">
        <ele>1167.18</ele>
        <time>2022-10-16T09:40:10Z</time>
      </trkpt>
      <trkpt lat="45.00663" lon="4.12938">
        <ele>1167.66</ele>
        <time>2022-10-16T09:40:26Z</time>
      </trkpt>
      <trkpt lat="45.00668" lon="4.12975">
        <ele>1167.18</ele>
        <time>2022-10-16T09:40:46Z</time>
      </trkpt>
      <trkpt lat="45.00671" lon="4.1301">
        <ele>1166.7</ele>
        <time>2022-10-16T09:41:05Z</time>
      </trkpt>
      <trkpt lat="45.00675" lon="4.13042">
        <ele>1165.74</ele>
        <time>2022-10-16T09:41:22Z</time>
      </trkpt>
      <trkpt lat="45.00675" lon="4.13057">
        <ele>1162.85</ele>
        <time>2022-10-16T09:41:35Z</time>
      </trkpt>
      <trkpt lat="45.00675" lon="4.13084">
        <ele>1160.93</ele>
        <time>2022-10-16T09:41:51Z</time>
      </trkpt>
      <trkpt lat="45.00677" lon="4.13108">
        <ele>1160.93</ele>
        <time>2022-10-16T09:42:04Z</time>
      </trkpt>
      <trkpt lat="45.00682" lon="4.13137">
        <ele>1159.97</ele>
        <time>2022-10-16T09:42:21Z</time>
      </trkpt>
      <trkpt lat="45.00687" lon="4.13171">
        <ele>1160.45</ele>
        <time>2022-10-16T09:42:40Z</time>
      </trkpt>
      <trkpt lat="45.0069" lon="4.13204">
        <ele>1158.53</ele>
        <time>2022-10-16T09:42:59Z</time>
      </trkpt>
      <trkpt lat="45.00694" lon="4.1324">
        <ele>1157.56</ele>
        <time>2022-10-16T09:43:20Z</time>
      </trkpt>
      <trkpt lat="45.00688" lon="4.13274">
        <ele>1156.6</ele>
        <time>2022-10-16T09:43:37Z</time>
      </trkpt>
      <trkpt lat="45.0068" lon="4.13297">
        <ele>1159.49</ele>
        <time>2022-10-16T09:43:52Z</time>
      </trkpt>
      <trkpt lat="45.00666" lon="4.13318">
        <ele>1158.53</ele>
        <time>2022-10-16T09:44:08Z</time>
      </trkpt>
      <trkpt lat="45.0065" lon="4.13332">
        <ele>1158.05</ele>
        <time>2022-10-16T09:44:20Z</time>
      </trkpt>
      <trkpt lat="45.00639" lon="4.13338">
        <ele>1157.56</ele>
        <time>2022-10-16T09:44:30Z</time>
      </trkpt>
      <trkpt lat="45.00622" lon="4.13346">
        <ele>1157.08</ele>
        <time>2022-10-16T09:44:43Z</time>
      </trkpt>
      <trkpt lat="45.00605" lon="4.13353">
        <ele>1158.05</ele>
        <time>2022-10-16T09:44:57Z</time>
      </trkpt>
      <trkpt lat="45.00593" lon="4.13359">
        <ele>1157.56</ele>
        <time>2022-10-16T09:45:09Z</time>
      </trkpt>
      <trkpt lat="45.00583" lon="4.13365">
        <ele>1157.56</ele>
        <time>2022-10-16T09:45:17Z</time>
      </trkpt>
      <trkpt lat="45.00578" lon="4.1337">
        <ele>1157.08</ele>
        <time>2022-10-16T09:45:21Z</time>
      </trkpt>
      <trkpt lat="45.00565" lon="4.13397">
        <ele>1156.6</ele>
        <time>2022-10-16T09:45:39Z</time>
      </trkpt>
      <trkpt lat="45.00556" lon="4.13414">
        <ele>1155.64</ele>
        <time>2022-10-16T09:45:50Z</time>
      </trkpt>
      <trkpt lat="45.00548" lon="4.13432">
        <ele>1156.6</ele>
        <time>2022-10-16T09:46:02Z</time>
      </trkpt>
      <trkpt lat="45.00539" lon="4.13443">
        <ele>1157.56</ele>
        <time>2022-10-16T09:46:13Z</time>
      </trkpt>
      <trkpt lat="45.00536" lon="4.13449">
        <ele>1157.08</ele>
        <time>2022-10-16T09:46:16Z</time>
      </trkpt>
      <trkpt lat="45.00537" lon="4.13457">
        <ele>1157.08</ele>
        <time>2022-10-16T09:46:21Z</time>
      </trkpt>
      <trkpt lat="45.00544" lon="4.13465">
        <ele>1158.05</ele>
        <time>2022-10-16T09:46:28Z</time>
      </trkpt>
      <trkpt lat="45.00547" lon="4.13474">
        <ele>1159.01</ele>
        <time>2022-10-16T09:46:34Z</time>
      </trkpt>
      <trkpt lat="45.00545" lon="4.1349">
        <ele>1160.45</ele>
        <time>2022-10-16T09:46:42Z</time>
      </trkpt>
      <trkpt lat="45.00541" lon="4.13494">
        <ele>1160.93</ele>
        <time>2022-10-16T09:46:46Z</time>
      </trkpt>
      <trkpt lat="45.00534" lon="4.13514">
        <ele>1164.29</ele>
        <time>2022-10-16T09:46:59Z</time>
      </trkpt>
      <trkpt lat="45.00526" lon="4.13532">
        <ele>1166.22</ele>
        <time>2022-10-16T09:47:11Z</time>
      </trkpt>
      <trkpt lat="45.00519" lon="4.13549">
        <ele>1167.66</ele>
        <time>2022-10-16T09:47:23Z</time>
      </trkpt>
      <trkpt lat="45.00519" lon="4.1355">
        <ele>1167.66</ele>
        <time>2022-10-16T09:47:24Z</time>
      </trkpt>
      <trkpt lat="45.00519" lon="4.13554">
        <ele>1168.62</ele>
        <time>2022-10-16T09:47:27Z</time>
      </trkpt>
      <trkpt lat="45.00512" lon="4.13566">
        <ele>1170.54</ele>
        <time>2022-10-16T09:47:37Z</time>
      </trkpt>
      <trkpt lat="45.00509" lon="4.13571">
        <ele>1170.54</ele>
        <time>2022-10-16T09:47:41Z</time>
      </trkpt>
      <trkpt lat="45.00507" lon="4.13578">
        <ele>1171.02</ele>
        <time>2022-10-16T09:47:45Z</time>
      </trkpt>
      <trkpt lat="45.00501" lon="4.13592">
        <ele>1172.47</ele>
        <time>2022-10-16T09:47:55Z</time>
      </trkpt>
      <trkpt lat="45.00501" lon="4.13593">
        <ele>1172.47</ele>
        <time>2022-10-16T09:47:56Z</time>
      </trkpt>
      <trkpt lat="45.00497" lon="4.13613">
        <ele>1174.39</ele>
        <time>2022-10-16T09:48:08Z</time>
      </trkpt>
      <trkpt lat="45.00494" lon="4.13626">
        <ele>1176.31</ele>
        <time>2022-10-16T09:48:17Z</time>
      </trkpt>
      <trkpt lat="45.00492" lon="4.13639">
        <ele>1178.23</ele>
        <time>2022-10-16T09:48:26Z</time>
      </trkpt>
      <trkpt lat="45.00491" lon="4.13647">
        <ele>1179.19</ele>
        <time>2022-10-16T09:48:38Z</time>
      </trkpt>
      <trkpt lat="45.00491" lon="4.13659">
        <ele>1180.64</ele>
        <time>2022-10-16T09:48:46Z</time>
      </trkpt>
      <trkpt lat="45.00492" lon="4.13666">
        <ele>1181.6</ele>
        <time>2022-10-16T09:48:49Z</time>
      </trkpt>
      <trkpt lat="45.00489" lon="4.13683">
        <ele>1183.04</ele>
        <time>2022-10-16T09:48:59Z</time>
      </trkpt>
      <trkpt lat="45.00486" lon="4.13696">
        <ele>1184.48</ele>
        <time>2022-10-16T09:49:08Z</time>
      </trkpt>
      <trkpt lat="45.00484" lon="4.13713">
        <ele>1185.92</ele>
        <time>2022-10-16T09:49:18Z</time>
      </trkpt>
      <trkpt lat="45.00484" lon="4.13725">
        <ele>1186.88</ele>
        <time>2022-10-16T09:49:26Z</time>
      </trkpt>
      <trkpt lat="45.00486" lon="4.13744">
        <ele>1188.33</ele>
        <time>2022-10-16T09:49:41Z</time>
      </trkpt>
      <trkpt lat="45.00486" lon="4.13751">
        <ele>1188.81</ele>
        <time>2022-10-16T09:49:46Z</time>
      </trkpt>
      <trkpt lat="45.00485" lon="4.13756">
        <ele>1188.81</ele>
        <time>2022-10-16T09:49:49Z</time>
      </trkpt>
      <trkpt lat="45.0048" lon="4.13774">
        <ele>1189.77</ele>
        <time>2022-10-16T09:50:01Z</time>
      </trkpt>
      <trkpt lat="45.00476" lon="4.13788">
        <ele>1191.21</ele>
        <time>2022-10-16T09:50:12Z</time>
      </trkpt>
      <trkpt lat="45.00472" lon="4.13797">
        <ele>1192.17</ele>
        <time>2022-10-16T09:50:18Z</time>
      </trkpt>
      <trkpt lat="45.00467" lon="4.13809">
        <ele>1192.65</ele>
        <time>2022-10-16T09:50:27Z</time>
      </trkpt>
      <trkpt lat="45.00463" lon="4.13823">
        <ele>1193.13</ele>
        <time>2022-10-16T09:50:36Z</time>
      </trkpt>
      <trkpt lat="45.00457" lon="4.13841">
        <ele>1195.54</ele>
        <time>2022-10-16T09:50:48Z</time>
      </trkpt>
      <trkpt lat="45.00455" lon="4.1386">
        <ele>1197.94</ele>
        <time>2022-10-16T09:50:59Z</time>
      </trkpt>
      <trkpt lat="45.00455" lon="4.13868">
        <ele>1197.94</ele>
        <time>2022-10-16T09:51:09Z</time>
      </trkpt>
      <trkpt lat="45.00454" lon="4.13872">
        <ele>1198.42</ele>
        <time>2022-10-16T09:51:14Z</time>
      </trkpt>
      <trkpt lat="45.00454" lon="4.13892">
        <ele>1199.86</ele>
        <time>2022-10-16T09:51:25Z</time>
      </trkpt>
      <trkpt lat="45.00455" lon="4.13895">
        <ele>1200.34</ele>
        <time>2022-10-16T09:51:27Z</time>
      </trkpt>
      <trkpt lat="45.00458" lon="4.13911">
        <ele>1201.79</ele>
        <time>2022-10-16T09:51:38Z</time>
      </trkpt>
      <trkpt lat="45.00458" lon="4.13915">
        <ele>1201.79</ele>
        <time>2022-10-16T09:51:40Z</time>
      </trkpt>
      <trkpt lat="45.00456" lon="4.13932">
        <ele>1202.27</ele>
        <time>2022-10-16T09:51:50Z</time>
      </trkpt>
      <trkpt lat="45.00455" lon="4.13947">
        <ele>1203.71</ele>
        <time>2022-10-16T09:51:59Z</time>
      </trkpt>
      <trkpt lat="45.00451" lon="4.13957">
        <ele>1205.15</ele>
        <time>2022-10-16T09:52:11Z</time>
      </trkpt>
      <trkpt lat="45.00447" lon="4.13967">
        <ele>1208.03</ele>
        <time>2022-10-16T09:52:23Z</time>
      </trkpt>
      <trkpt lat="45.00443" lon="4.13994">
        <ele>1211.88</ele>
        <time>2022-10-16T09:52:37Z</time>
      </trkpt>
      <trkpt lat="45.00439" lon="4.14002">
        <ele>1214.28</ele>
        <time>2022-10-16T09:52:43Z</time>
      </trkpt>
      <trkpt lat="45.00438" lon="4.14012">
        <ele>1216.21</ele>
        <time>2022-10-16T09:52:49Z</time>
      </trkpt>
      <trkpt lat="45.00437" lon="4.14019">
        <ele>1217.65</ele>
        <time>2022-10-16T09:52:53Z</time>
      </trkpt>
      <trkpt lat="45.00439" lon="4.14034">
        <ele>1220.05</ele>
        <time>2022-10-16T09:53:04Z</time>
      </trkpt>
      <trkpt lat="45.0044" lon="4.14034">
        <ele>1220.05</ele>
        <time>2022-10-16T09:53:06Z</time>
      </trkpt>
      <trkpt lat="45.00437" lon="4.14033">
        <ele>1220.53</ele>
        <time>2022-10-16T09:53:11Z</time>
      </trkpt>
      <trkpt lat="45.00441" lon="4.14044">
        <ele>1220.05</ele>
        <time>2022-10-16T09:53:22Z</time>
      </trkpt>
      <trkpt lat="45.00442" lon="4.14051">
        <ele>1220.53</ele>
        <time>2022-10-16T09:53:27Z</time>
      </trkpt>
      <trkpt lat="45.00443" lon="4.1407">
        <ele>1222.45</ele>
        <time>2022-10-16T09:53:38Z</time>
      </trkpt>
      <trkpt lat="45.00444" lon="4.14073">
        <ele>1222.93</ele>
        <time>2022-10-16T09:53:40Z</time>
      </trkpt>
      <trkpt lat="45.00449" lon="4.14089">
        <ele>1223.9</ele>
        <time>2022-10-16T09:53:50Z</time>
      </trkpt>
      <trkpt lat="45.00452" lon="4.14111">
        <ele>1223.42</ele>
        <time>2022-10-16T09:54:01Z</time>
      </trkpt>
      <trkpt lat="45.00452" lon="4.14113">
        <ele>1223.9</ele>
        <time>2022-10-16T09:54:02Z</time>
      </trkpt>
      <trkpt lat="45.0045" lon="4.14133">
        <ele>1223.42</ele>
        <time>2022-10-16T09:54:13Z</time>
      </trkpt>
      <trkpt lat="45.0045" lon="4.14137">
        <ele>1223.42</ele>
        <time>2022-10-16T09:54:16Z</time>
      </trkpt>
      <trkpt lat="45.00443" lon="4.14151">
        <ele>1225.34</ele>
        <time>2022-10-16T09:54:27Z</time>
      </trkpt>
      <trkpt lat="45.00441" lon="4.14156">
        <ele>1225.34</ele>
        <time>2022-10-16T09:54:32Z</time>
      </trkpt>
      <trkpt lat="45.00431" lon="4.14172">
        <ele>1224.38</ele>
        <time>2022-10-16T09:54:43Z</time>
      </trkpt>
      <trkpt lat="45.00423" lon="4.14186">
        <ele>1222.45</ele>
        <time>2022-10-16T09:54:53Z</time>
      </trkpt>
      <trkpt lat="45.00419" lon="4.14197">
        <ele>1221.97</ele>
        <time>2022-10-16T09:54:59Z</time>
      </trkpt>
      <trkpt lat="45.0042" lon="4.1422">
        <ele>1220.05</ele>
        <time>2022-10-16T09:55:13Z</time>
      </trkpt>
      <trkpt lat="45.00419" lon="4.14222">
        <ele>1219.57</ele>
        <time>2022-10-16T09:55:15Z</time>
      </trkpt>
      <trkpt lat="45.00407" lon="4.14233">
        <ele>1215.24</ele>
        <time>2022-10-16T09:55:27Z</time>
      </trkpt>
      <trkpt lat="45.00401" lon="4.14234">
        <ele>1213.32</ele>
        <time>2022-10-16T09:55:37Z</time>
      </trkpt>
      <trkpt lat="45.00396" lon="4.14241">
        <ele>1212.84</ele>
        <time>2022-10-16T09:55:45Z</time>
      </trkpt>
      <trkpt lat="45.00394" lon="4.1426">
        <ele>1210.44</ele>
        <time>2022-10-16T09:55:57Z</time>
      </trkpt>
      <trkpt lat="45.00392" lon="4.14279">
        <ele>1209.96</ele>
        <time>2022-10-16T09:56:09Z</time>
      </trkpt>
      <trkpt lat="45.0039" lon="4.14292">
        <ele>1208.51</ele>
        <time>2022-10-16T09:56:18Z</time>
      </trkpt>
      <trkpt lat="45.0039" lon="4.14298">
        <ele>1207.55</ele>
        <time>2022-10-16T09:56:22Z</time>
      </trkpt>
      <trkpt lat="45.00382" lon="4.14314">
        <ele>1202.75</ele>
        <time>2022-10-16T09:56:36Z</time>
      </trkpt>
      <trkpt lat="45.00378" lon="4.14321">
        <ele>1202.27</ele>
        <time>2022-10-16T09:56:48Z</time>
      </trkpt>
      <trkpt lat="45.0037" lon="4.14342">
        <ele>1199.38</ele>
        <time>2022-10-16T09:57:04Z</time>
      </trkpt>
      <trkpt lat="45.0037" lon="4.14365">
        <ele>1197.94</ele>
        <time>2022-10-16T09:57:18Z</time>
      </trkpt>
      <trkpt lat="45.00369" lon="4.14387">
        <ele>1198.42</ele>
        <time>2022-10-16T09:57:32Z</time>
      </trkpt>
      <trkpt lat="45.00365" lon="4.14413">
        <ele>1196.5</ele>
        <time>2022-10-16T09:57:48Z</time>
      </trkpt>
      <trkpt lat="45.00363" lon="4.14422">
        <ele>1196.5</ele>
        <time>2022-10-16T09:57:54Z</time>
      </trkpt>
      <trkpt lat="45.00358" lon="4.14446">
        <ele>1199.38</ele>
        <time>2022-10-16T09:58:09Z</time>
      </trkpt>
      <trkpt lat="45.00352" lon="4.1447">
        <ele>1198.42</ele>
        <time>2022-10-16T09:58:23Z</time>
      </trkpt>
      <trkpt lat="45.00345" lon="4.14493">
        <ele>1199.86</ele>
        <time>2022-10-16T09:58:38Z</time>
      </trkpt>
      <trkpt lat="45.00343" lon="4.14517">
        <ele>1199.86</ele>
        <time>2022-10-16T09:58:52Z</time>
      </trkpt>
      <trkpt lat="45.00347" lon="4.14538">
        <ele>1198.9</ele>
        <time>2022-10-16T09:59:06Z</time>
      </trkpt>
      <trkpt lat="45.00352" lon="4.14563">
        <ele>1200.34</ele>
        <time>2022-10-16T09:59:23Z</time>
      </trkpt>
      <trkpt lat="45.00356" lon="4.14578">
        <ele>1200.34</ele>
        <time>2022-10-16T09:59:34Z</time>
      </trkpt>
      <trkpt lat="45.00359" lon="4.146">
        <ele>1199.38</ele>
        <time>2022-10-16T09:59:47Z</time>
      </trkpt>
      <trkpt lat="45.0036" lon="4.1461">
        <ele>1201.79</ele>
        <time>2022-10-16T09:59:54Z</time>
      </trkpt>
      <trkpt lat="45.0036" lon="4.1462">
        <ele>1204.19</ele>
        <time>2022-10-16T10:00:04Z</time>
      </trkpt>
      <trkpt lat="45.00361" lon="4.14639">
        <ele>1204.67</ele>
        <time>2022-10-16T10:00:15Z</time>
      </trkpt>
      <trkpt lat="45.00366" lon="4.14663">
        <ele>1205.63</ele>
        <time>2022-10-16T10:00:29Z</time>
      </trkpt>
      <trkpt lat="45.0037" lon="4.14676">
        <ele>1205.15</ele>
        <time>2022-10-16T10:00:38Z</time>
      </trkpt>
      <trkpt lat="45.00372" lon="4.14684">
        <ele>1204.67</ele>
        <time>2022-10-16T10:00:54Z</time>
      </trkpt>
      <trkpt lat="45.00376" lon="4.14701">
        <ele>1204.19</ele>
        <time>2022-10-16T10:01:15Z</time>
      </trkpt>
      <trkpt lat="45.00377" lon="4.14713">
        <ele>1203.71</ele>
        <time>2022-10-16T10:01:31Z</time>
      </trkpt>
      <trkpt lat="45.00385" lon="4.14742">
        <ele>1203.71</ele>
        <time>2022-10-16T10:01:53Z</time>
      </trkpt>
      <trkpt lat="45.00389" lon="4.14768">
        <ele>1205.15</ele>
        <time>2022-10-16T10:02:10Z</time>
      </trkpt>
      <trkpt lat="45.00384" lon="4.14794">
        <ele>1205.15</ele>
        <time>2022-10-16T10:02:26Z</time>
      </trkpt>
      <trkpt lat="45.00382" lon="4.14797">
        <ele>1205.15</ele>
        <time>2022-10-16T10:02:29Z</time>
      </trkpt>
      <trkpt lat="45.00364" lon="4.14817">
        <ele>1204.67</ele>
        <time>2022-10-16T10:02:49Z</time>
      </trkpt>
      <trkpt lat="45.00356" lon="4.14829">
        <ele>1205.15</ele>
        <time>2022-10-16T10:03:06Z</time>
      </trkpt>
      <trkpt lat="45.00355" lon="4.14839">
        <ele>1206.59</ele>
        <time>2022-10-16T10:03:23Z</time>
      </trkpt>
      <trkpt lat="45.00356" lon="4.14833">
        <ele>1207.55</ele>
        <time>2022-10-16T10:03:39Z</time>
      </trkpt>
      <trkpt lat="45.00354" lon="4.14843">
        <ele>1208.03</ele>
        <time>2022-10-16T10:03:45Z</time>
      </trkpt>
      <trkpt lat="45.00356" lon="4.14865">
        <ele>1212.36</ele>
        <time>2022-10-16T10:04:04Z</time>
      </trkpt>
      <trkpt lat="45.00358" lon="4.14867">
        <ele>1212.36</ele>
        <time>2022-10-16T10:04:06Z</time>
      </trkpt>
      <trkpt lat="45.00371" lon="4.14873">
        <ele>1215.24</ele>
        <time>2022-10-16T10:04:17Z</time>
      </trkpt>
      <trkpt lat="45.0038" lon="4.14885">
        <ele>1217.17</ele>
        <time>2022-10-16T10:04:35Z</time>
      </trkpt>
      <trkpt lat="45.00395" lon="4.14891">
        <ele>1221.01</ele>
        <time>2022-10-16T10:04:54Z</time>
      </trkpt>
      <trkpt lat="45.00396" lon="4.14903">
        <ele>1222.45</ele>
        <time>2022-10-16T10:05:02Z</time>
      </trkpt>
      <trkpt lat="45.00386" lon="4.14929">
        <ele>1223.9</ele>
        <time>2022-10-16T10:05:23Z</time>
      </trkpt>
      <trkpt lat="45.00385" lon="4.14936">
        <ele>1223.9</ele>
        <time>2022-10-16T10:05:32Z</time>
      </trkpt>
      <trkpt lat="45.00387" lon="4.14955">
        <ele>1224.38</ele>
        <time>2022-10-16T10:05:47Z</time>
      </trkpt>
      <trkpt lat="45.00368" lon="4.14975">
        <ele>1226.78</ele>
        <time>2022-10-16T10:06:07Z</time>
      </trkpt>
      <trkpt lat="45.00356" lon="4.14981">
        <ele>1225.34</ele>
        <time>2022-10-16T10:06:24Z</time>
      </trkpt>
      <trkpt lat="45.00344" lon="4.14984">
        <ele>1224.38</ele>
        <time>2022-10-16T10:06:39Z</time>
      </trkpt>
      <trkpt lat="45.00341" lon="4.14986">
        <ele>1224.38</ele>
        <time>2022-10-16T10:06:41Z</time>
      </trkpt>
      <trkpt lat="45.00321" lon="4.14995">
        <ele>1224.86</ele>
        <time>2022-10-16T10:07:00Z</time>
      </trkpt>
      <trkpt lat="45.00303" lon="4.15005">
        <ele>1221.01</ele>
        <time>2022-10-16T10:07:14Z</time>
      </trkpt>
      <trkpt lat="45.00287" lon="4.15021">
        <ele>1216.69</ele>
        <time>2022-10-16T10:07:29Z</time>
      </trkpt>
      <trkpt lat="45.00273" lon="4.1504">
        <ele>1211.88</ele>
        <time>2022-10-16T10:07:47Z</time>
      </trkpt>
      <trkpt lat="45.00257" lon="4.15066">
        <ele>1219.57</ele>
        <time>2022-10-16T10:08:05Z</time>
      </trkpt>
      <trkpt lat="45.00252" lon="4.15074">
        <ele>1222.93</ele>
        <time>2022-10-16T10:08:11Z</time>
      </trkpt>
      <trkpt lat="45.00248" lon="4.1508">
        <ele>1223.42</ele>
        <time>2022-10-16T10:08:15Z</time>
      </trkpt>
      <trkpt lat="45.00239" lon="4.15095">
        <ele>1222.93</ele>
        <time>2022-10-16T10:08:27Z</time>
      </trkpt>
      <trkpt lat="45.00225" lon="4.15104">
        <ele>1225.34</ele>
        <time>2022-10-16T10:08:39Z</time>
      </trkpt>
      <trkpt lat="45.0021" lon="4.15107">
        <ele>1224.86</ele>
        <time>2022-10-16T10:08:51Z</time>
      </trkpt>
      <trkpt lat="45.00196" lon="4.15107">
        <ele>1223.9</ele>
        <time>2022-10-16T10:09:02Z</time>
      </trkpt>
      <trkpt lat="45.00184" lon="4.15104">
        <ele>1221.49</ele>
        <time>2022-10-16T10:09:13Z</time>
      </trkpt>
      <trkpt lat="45.00171" lon="4.151">
        <ele>1222.45</ele>
        <time>2022-10-16T10:09:24Z</time>
      </trkpt>
      <trkpt lat="45.00156" lon="4.151">
        <ele>1223.42</ele>
        <time>2022-10-16T10:09:35Z</time>
      </trkpt>
      <trkpt lat="45.0015" lon="4.15101">
        <ele>1225.34</ele>
        <time>2022-10-16T10:09:42Z</time>
      </trkpt>
      <trkpt lat="45.00133" lon="4.15104">
        <ele>1228.7</ele>
        <time>2022-10-16T10:09:55Z</time>
      </trkpt>
      <trkpt lat="45.00121" lon="4.15114">
        <ele>1229.66</ele>
        <time>2022-10-16T10:10:07Z</time>
      </trkpt>
      <trkpt lat="45.00106" lon="4.15124">
        <ele>1231.59</ele>
        <time>2022-10-16T10:10:21Z</time>
      </trkpt>
      <trkpt lat="45.00088" lon="4.15134">
        <ele>1236.39</ele>
        <time>2022-10-16T10:10:36Z</time>
      </trkpt>
      <trkpt lat="45.00074" lon="4.1514">
        <ele>1238.32</ele>
        <time>2022-10-16T10:10:47Z</time>
      </trkpt>
      <trkpt lat="45.00063" lon="4.15144">
        <ele>1240.24</ele>
        <time>2022-10-16T10:10:58Z</time>
      </trkpt>
      <trkpt lat="45.00051" lon="4.15149">
        <ele>1241.68</ele>
        <time>2022-10-16T10:11:10Z</time>
      </trkpt>
      <trkpt lat="45.00041" lon="4.15152">
        <ele>1242.16</ele>
        <time>2022-10-16T10:11:20Z</time>
      </trkpt>
      <trkpt lat="45.00028" lon="4.15157">
        <ele>1243.6</ele>
        <time>2022-10-16T10:11:32Z</time>
      </trkpt>
      <trkpt lat="45.0002" lon="4.1516">
        <ele>1244.56</ele>
        <time>2022-10-16T10:11:39Z</time>
      </trkpt>
      <trkpt lat="45.00016" lon="4.15162">
        <ele>1244.56</ele>
        <time>2022-10-16T10:11:43Z</time>
      </trkpt>
      <trkpt lat="45.00005" lon="4.15166">
        <ele>1245.53</ele>
        <time>2022-10-16T10:11:53Z</time>
      </trkpt>
      <trkpt lat="44.99993" lon="4.1517">
        <ele>1246.97</ele>
        <time>2022-10-16T10:12:04Z</time>
      </trkpt>
      <trkpt lat="44.99981" lon="4.15172">
        <ele>1247.93</ele>
        <time>2022-10-16T10:12:15Z</time>
      </trkpt>
      <trkpt lat="44.99969" lon="4.15176">
        <ele>1249.37</ele>
        <time>2022-10-16T10:12:26Z</time>
      </trkpt>
      <trkpt lat="44.99959" lon="4.1518">
        <ele>1250.81</ele>
        <time>2022-10-16T10:12:36Z</time>
      </trkpt>
      <trkpt lat="44.99945" lon="4.15183">
        <ele>1252.74</ele>
        <time>2022-10-16T10:12:48Z</time>
      </trkpt>
      <trkpt lat="44.99933" lon="4.15189">
        <ele>1254.18</ele>
        <time>2022-10-16T10:13:00Z</time>
      </trkpt>
      <trkpt lat="44.99922" lon="4.15192">
        <ele>1255.62</ele>
        <time>2022-10-16T10:13:10Z</time>
      </trkpt>
      <trkpt lat="44.99913" lon="4.15193">
        <ele>1256.58</ele>
        <time>2022-10-16T10:13:18Z</time>
      </trkpt>
      <trkpt lat="44.99902" lon="4.1519">
        <ele>1257.06</ele>
        <time>2022-10-16T10:13:29Z</time>
      </trkpt>
      <trkpt lat="44.9989" lon="4.15183">
        <ele>1257.54</ele>
        <time>2022-10-16T10:13:40Z</time>
      </trkpt>
      <trkpt lat="44.99877" lon="4.15177">
        <ele>1258.5</ele>
        <time>2022-10-16T10:13:52Z</time>
      </trkpt>
      <trkpt lat="44.99874" lon="4.15176">
        <ele>1258.5</ele>
        <time>2022-10-16T10:13:55Z</time>
      </trkpt>
      <trkpt lat="44.9986" lon="4.15173">
        <ele>1258.02</ele>
        <time>2022-10-16T10:14:07Z</time>
      </trkpt>
      <trkpt lat="44.99847" lon="4.1517">
        <ele>1257.54</ele>
        <time>2022-10-16T10:14:19Z</time>
      </trkpt>
      <trkpt lat="44.99844" lon="4.15169">
        <ele>1258.02</ele>
        <time>2022-10-16T10:14:22Z</time>
      </trkpt>
      <trkpt lat="44.99838" lon="4.15164">
        <ele>1258.5</ele>
        <time>2022-10-16T10:14:28Z</time>
      </trkpt>
      <trkpt lat="44.9983" lon="4.15137">
        <ele>1258.02</ele>
        <time>2022-10-16T10:14:46Z</time>
      </trkpt>
      <trkpt lat="44.99826" lon="4.15126">
        <ele>1257.54</ele>
        <time>2022-10-16T10:15:03Z</time>
      </trkpt>
      <trkpt lat="44.99825" lon="4.15119">
        <ele>1257.54</ele>
        <time>2022-10-16T10:15:21Z</time>
      </trkpt>
      <trkpt lat="44.99825" lon="4.15109">
        <ele>1257.06</ele>
        <time>2022-10-16T10:15:36Z</time>
      </trkpt>
      <trkpt lat="44.99823" lon="4.15084">
        <ele>1257.06</ele>
        <time>2022-10-16T10:15:50Z</time>
      </trkpt>
      <trkpt lat="44.99823" lon="4.15058">
        <ele>1256.1</ele>
        <time>2022-10-16T10:16:04Z</time>
      </trkpt>
      <trkpt lat="44.9982" lon="4.15033">
        <ele>1256.1</ele>
        <time>2022-10-16T10:16:19Z</time>
      </trkpt>
      <trkpt lat="44.99817" lon="4.15025">
        <ele>1256.58</ele>
        <time>2022-10-16T10:16:36Z</time>
      </trkpt>
      <trkpt lat="44.99817" lon="4.15025">
        <ele>1256.58</ele>
        <time>2022-10-16T10:17:02Z</time>
      </trkpt>
      <trkpt lat="44.99815" lon="4.15013">
        <ele>1257.06</ele>
        <time>2022-10-16T10:17:14Z</time>
      </trkpt>
      <trkpt lat="44.99806" lon="4.14988">
        <ele>1256.1</ele>
        <time>2022-10-16T10:17:29Z</time>
      </trkpt>
      <trkpt lat="44.99805" lon="4.14983">
        <ele>1255.62</ele>
        <time>2022-10-16T10:17:52Z</time>
      </trkpt>
      <trkpt lat="44.99796" lon="4.14955">
        <ele>1254.66</ele>
        <time>2022-10-16T10:18:07Z</time>
      </trkpt>
      <trkpt lat="44.99783" lon="4.14928">
        <ele>1252.74</ele>
        <time>2022-10-16T10:18:23Z</time>
      </trkpt>
      <trkpt lat="44.99773" lon="4.14901">
        <ele>1249.85</ele>
        <time>2022-10-16T10:18:40Z</time>
      </trkpt>
      <trkpt lat="44.9976" lon="4.1488">
        <ele>1247.45</ele>
        <time>2022-10-16T10:18:54Z</time>
      </trkpt>
      <trkpt lat="44.99745" lon="4.14856">
        <ele>1244.56</ele>
        <time>2022-10-16T10:19:10Z</time>
      </trkpt>
      <trkpt lat="44.99731" lon="4.14826">
        <ele>1246.01</ele>
        <time>2022-10-16T10:19:27Z</time>
      </trkpt>
      <trkpt lat="44.99719" lon="4.14801">
        <ele>1245.04</ele>
        <time>2022-10-16T10:19:42Z</time>
      </trkpt>
      <trkpt lat="44.99708" lon="4.14787">
        <ele>1245.53</ele>
        <time>2022-10-16T10:19:57Z</time>
      </trkpt>
      <trkpt lat="44.99707" lon="4.14786">
        <ele>1246.49</ele>
        <time>2022-10-16T10:20:20Z</time>
      </trkpt>
      <trkpt lat="44.99707" lon="4.14786">
        <ele>1246.49</ele>
        <time>2022-10-16T10:20:24Z</time>
      </trkpt>
      <trkpt lat="44.99708" lon="4.14775">
        <ele>1246.49</ele>
        <time>2022-10-16T10:20:28Z</time>
      </trkpt>
      <trkpt lat="44.99696" lon="4.14743">
        <ele>1245.04</ele>
        <time>2022-10-16T10:20:41Z</time>
      </trkpt>
      <trkpt lat="44.99689" lon="4.14713">
        <ele>1241.2</ele>
        <time>2022-10-16T10:20:57Z</time>
      </trkpt>
      <trkpt lat="44.99682" lon="4.14683">
        <ele>1239.28</ele>
        <time>2022-10-16T10:21:13Z</time>
      </trkpt>
      <trkpt lat="44.9967" lon="4.14658">
        <ele>1236.39</ele>
        <time>2022-10-16T10:21:31Z</time>
      </trkpt>
      <trkpt lat="44.99669" lon="4.14654">
        <ele>1235.91</ele>
        <time>2022-10-16T10:21:34Z</time>
      </trkpt>
      <trkpt lat="44.99665" lon="4.14646">
        <ele>1234.47</ele>
        <time>2022-10-16T10:21:39Z</time>
      </trkpt>
      <trkpt lat="44.99647" lon="4.14624">
        <ele>1233.51</ele>
        <time>2022-10-16T10:21:55Z</time>
      </trkpt>
      <trkpt lat="44.99634" lon="4.14597">
        <ele>1235.43</ele>
        <time>2022-10-16T10:22:10Z</time>
      </trkpt>
      <trkpt lat="44.99625" lon="4.14569">
        <ele>1239.28</ele>
        <time>2022-10-16T10:22:24Z</time>
      </trkpt>
      <trkpt lat="44.99611" lon="4.14536">
        <ele>1240.72</ele>
        <time>2022-10-16T10:22:41Z</time>
      </trkpt>
      <trkpt lat="44.99602" lon="4.14511">
        <ele>1239.28</ele>
        <time>2022-10-16T10:22:56Z</time>
      </trkpt>
      <trkpt lat="44.99592" lon="4.14475">
        <ele>1239.76</ele>
        <time>2022-10-16T10:23:06Z</time>
      </trkpt>
      <trkpt lat="44.99588" lon="4.14456">
        <ele>1241.2</ele>
        <time>2022-10-16T10:23:17Z</time>
      </trkpt>
      <trkpt lat="44.99583" lon="4.14424">
        <ele>1242.64</ele>
        <time>2022-10-16T10:23:30Z</time>
      </trkpt>
      <trkpt lat="44.99583" lon="4.14422">
        <ele>1243.12</ele>
        <time>2022-10-16T10:23:36Z</time>
      </trkpt>
      <trkpt lat="44.99572" lon="4.14393">
        <ele>1240.72</ele>
        <time>2022-10-16T10:23:52Z</time>
      </trkpt>
      <trkpt lat="44.99558" lon="4.14396">
        <ele>1240.72</ele>
        <time>2022-10-16T10:24:02Z</time>
      </trkpt>
      <trkpt lat="44.99547" lon="4.14381">
        <ele>1241.2</ele>
        <time>2022-10-16T10:24:14Z</time>
      </trkpt>
      <trkpt lat="44.99542" lon="4.1435">
        <ele>1240.24</ele>
        <time>2022-10-16T10:24:31Z</time>
      </trkpt>
      <trkpt lat="44.99535" lon="4.14319">
        <ele>1238.8</ele>
        <time>2022-10-16T10:24:49Z</time>
      </trkpt>
      <trkpt lat="44.99525" lon="4.14288">
        <ele>1237.35</ele>
        <time>2022-10-16T10:25:07Z</time>
      </trkpt>
      <trkpt lat="44.99519" lon="4.1427">
        <ele>1236.87</ele>
        <time>2022-10-16T10:25:18Z</time>
      </trkpt>
      <trkpt lat="44.99515" lon="4.14242">
        <ele>1240.24</ele>
        <time>2022-10-16T10:25:31Z</time>
      </trkpt>
      <trkpt lat="44.99515" lon="4.14224">
        <ele>1240.24</ele>
        <time>2022-10-16T10:25:42Z</time>
      </trkpt>
      <trkpt lat="44.99517" lon="4.14216">
        <ele>1239.76</ele>
        <time>2022-10-16T10:25:46Z</time>
      </trkpt>
      <trkpt lat="44.99522" lon="4.14196">
        <ele>1238.32</ele>
        <time>2022-10-16T10:25:57Z</time>
      </trkpt>
      <trkpt lat="44.99523" lon="4.14193">
        <ele>1238.8</ele>
        <time>2022-10-16T10:25:59Z</time>
      </trkpt>
      <trkpt lat="44.99522" lon="4.1417">
        <ele>1239.76</ele>
        <time>2022-10-16T10:26:11Z</time>
      </trkpt>
      <trkpt lat="44.99523" lon="4.14152">
        <ele>1239.28</ele>
        <time>2022-10-16T10:26:21Z</time>
      </trkpt>
      <trkpt lat="44.99524" lon="4.14139">
        <ele>1238.8</ele>
        <time>2022-10-16T10:26:29Z</time>
      </trkpt>
      <trkpt lat="44.99524" lon="4.14133">
        <ele>1238.8</ele>
        <time>2022-10-16T10:26:32Z</time>
      </trkpt>
      <trkpt lat="44.99526" lon="4.14121">
        <ele>1238.32</ele>
        <time>2022-10-16T10:26:38Z</time>
      </trkpt>
      <trkpt lat="44.99525" lon="4.14112">
        <ele>1237.83</ele>
        <time>2022-10-16T10:26:42Z</time>
      </trkpt>
      <trkpt lat="44.99522" lon="4.14091">
        <ele>1236.87</ele>
        <time>2022-10-16T10:26:54Z</time>
      </trkpt>
      <trkpt lat="44.99518" lon="4.14072">
        <ele>1235.43</ele>
        <time>2022-10-16T10:27:05Z</time>
      </trkpt>
      <trkpt lat="44.99511" lon="4.1405">
        <ele>1233.99</ele>
        <time>2022-10-16T10:27:17Z</time>
      </trkpt>
      <trkpt lat="44.99506" lon="4.1403">
        <ele>1233.99</ele>
        <time>2022-10-16T10:27:29Z</time>
      </trkpt>
      <trkpt lat="44.99499" lon="4.14009">
        <ele>1230.62</ele>
        <time>2022-10-16T10:27:42Z</time>
      </trkpt>
      <trkpt lat="44.99485" lon="4.13988">
        <ele>1227.74</ele>
        <time>2022-10-16T10:27:57Z</time>
      </trkpt>
      <trkpt lat="44.99485" lon="4.13987">
        <ele>1227.74</ele>
        <time>2022-10-16T10:27:58Z</time>
      </trkpt>
      <trkpt lat="44.99475" lon="4.13985">
        <ele>1225.82</ele>
        <time>2022-10-16T10:28:07Z</time>
      </trkpt>
      <trkpt lat="44.99468" lon="4.13987">
        <ele>1226.78</ele>
        <time>2022-10-16T10:28:12Z</time>
      </trkpt>
      <trkpt lat="44.99447" lon="4.14001">
        <ele>1225.82</ele>
        <time>2022-10-16T10:28:29Z</time>
      </trkpt>
      <trkpt lat="44.99443" lon="4.14001">
        <ele>1225.34</ele>
        <time>2022-10-16T10:28:31Z</time>
      </trkpt>
      <trkpt lat="44.99433" lon="4.13992">
        <ele>1222.45</ele>
        <time>2022-10-16T10:28:42Z</time>
      </trkpt>
      <trkpt lat="44.99422" lon="4.13974">
        <ele>1219.57</ele>
        <time>2022-10-16T10:28:52Z</time>
      </trkpt>
      <trkpt lat="44.9942" lon="4.13971">
        <ele>1219.09</ele>
        <time>2022-10-16T10:28:55Z</time>
      </trkpt>
      <trkpt lat="44.99407" lon="4.13956">
        <ele>1217.17</ele>
        <time>2022-10-16T10:29:07Z</time>
      </trkpt>
      <trkpt lat="44.99395" lon="4.13937">
        <ele>1214.76</ele>
        <time>2022-10-16T10:29:22Z</time>
      </trkpt>
      <trkpt lat="44.99385" lon="4.13919">
        <ele>1213.32</ele>
        <time>2022-10-16T10:29:34Z</time>
      </trkpt>
      <trkpt lat="44.99376" lon="4.139">
        <ele>1213.32</ele>
        <time>2022-10-16T10:29:46Z</time>
      </trkpt>
      <trkpt lat="44.99371" lon="4.13891">
        <ele>1213.32</ele>
        <time>2022-10-16T10:29:52Z</time>
      </trkpt>
      <trkpt lat="44.99362" lon="4.13874">
        <ele>1213.32</ele>
        <time>2022-10-16T10:30:03Z</time>
      </trkpt>
      <trkpt lat="44.99352" lon="4.13853">
        <ele>1212.84</ele>
        <time>2022-10-16T10:30:15Z</time>
      </trkpt>
      <trkpt lat="44.99346" lon="4.1384">
        <ele>1210.92</ele>
        <time>2022-10-16T10:30:25Z</time>
      </trkpt>
      <trkpt lat="44.99345" lon="4.1384">
        <ele>1210.92</ele>
        <time>2022-10-16T10:30:26Z</time>
      </trkpt>
      <trkpt lat="44.9934" lon="4.13844">
        <ele>1209.96</ele>
        <time>2022-10-16T10:30:32Z</time>
      </trkpt>
      <trkpt lat="44.99331" lon="4.13865">
        <ele>1209</ele>
        <time>2022-10-16T10:30:45Z</time>
      </trkpt>
      <trkpt lat="44.99325" lon="4.13874">
        <ele>1203.1</ele>
      </trkpt>
      <trkpt lat="44.99292" lon="4.13964">
        <ele>1191.1</ele>
      </trkpt>
      <trkpt lat="44.99285" lon="4.13987">
        <ele>1189</ele>
      </trkpt>
      <trkpt lat="44.99277" lon="4.14002">
        <ele>1187</ele>
      </trkpt>
      <trkpt lat="44.99266" lon="4.14015">
        <ele>1185.4</ele>
      </trkpt>
      <trkpt lat="44.99254" lon="4.14035">
        <ele>1183.7</ele>
      </trkpt>
      <trkpt lat="44.99228" lon="4.14057">
        <ele>1179.3</ele>
      </trkpt>
      <trkpt lat="44.99216" lon="4.14086">
        <ele>1178.1</ele>
      </trkpt>
      <trkpt lat="44.99201" lon="4.14126">
        <ele>1176.2</ele>
      </trkpt>
      <trkpt lat="44.99179" lon="4.14154">
        <ele>1172.6</ele>
      </trkpt>
      <trkpt lat="44.99173" lon="4.14169">
        <ele>1172.1</ele>
      </trkpt>
      <trkpt lat="44.99167" lon="4.14222">
        <ele>1175.1</ele>
      </trkpt>
      <trkpt lat="44.99163" lon="4.14258">
        <ele>1179.3</ele>
      </trkpt>
      <trkpt lat="44.99152" lon="4.14285">
        <ele>1180.8</ele>
      </trkpt>
      <trkpt lat="44.9913" lon="4.14324">
        <ele>1181.8</ele>
      </trkpt>
      <trkpt lat="44.99113" lon="4.14338">
        <ele>1179.5</ele>
      </trkpt>
      <trkpt lat="44.99098" lon="4.14358">
        <ele>1180.5</ele>
      </trkpt>
      <trkpt lat="44.99085" lon="4.1438">
        <ele>1181.6</ele>
      </trkpt>
      <trkpt lat="44.99078" lon="4.14403">
        <ele>1184</ele>
      </trkpt>
      <trkpt lat="44.99058" lon="4.14431">
        <ele>1183.5</ele>
      </trkpt>
      <trkpt lat="44.99043" lon="4.1446">
        <ele>1184.8</ele>
      </trkpt>
      <trkpt lat="44.99021" lon="4.14492">
        <ele>1184.5</ele>
      </trkpt>
      <trkpt lat="44.99008" lon="4.14521">
        <ele>1185.5</ele>
      </trkpt>
      <trkpt lat="44.99005" lon="4.14544">
        <ele>1186.7</ele>
      </trkpt>
      <trkpt lat="44.99009" lon="4.14589">
        <ele>1191.2</ele>
      </trkpt>
      <trkpt lat="44.99017" lon="4.14634">
        <ele>1196.4</ele>
      </trkpt>
      <trkpt lat="44.9902" lon="4.14664">
        <ele>1199.8</ele>
      </trkpt>
      <trkpt lat="44.99015" lon="4.14766">
        <ele>1203.8</ele>
      </trkpt>
      <trkpt lat="44.99019" lon="4.14845">
        <ele>1206.6</ele>
      </trkpt>
      <trkpt lat="44.99021" lon="4.14865">
        <ele>1207.3</ele>
      </trkpt>
      <trkpt lat="44.9902" lon="4.14894">
        <ele>1207.3</ele>
      </trkpt>
      <trkpt lat="44.99028" lon="4.14939">
        <ele>1209</ele>
      </trkpt>
      <trkpt lat="44.99036" lon="4.14959">
        <ele>1209.6</ele>
      </trkpt>
      <trkpt lat="44.99037" lon="4.14982">
        <ele>1208.8</ele>
      </trkpt>
      <trkpt lat="44.99032" lon="4.15009">
        <ele>1207.9</ele>
      </trkpt>
      <trkpt lat="44.99" lon="4.15018">
        <ele>1206.3</ele>
      </trkpt>
      <trkpt lat="44.9898" lon="4.15016">
        <ele>1207</ele>
      </trkpt>
      <trkpt lat="44.98963" lon="4.15008">
        <ele>1206.7</ele>
      </trkpt>
      <trkpt lat="44.98944" lon="4.14992">
        <ele>1206.2</ele>
      </trkpt>
      <trkpt lat="44.98937" lon="4.14992">
        <ele>1206.4</ele>
      </trkpt>
      <trkpt lat="44.98938" lon="4.14984">
        <ele>1205.5</ele>
      </trkpt>
      <trkpt lat="44.98935" lon="4.14975">
        <ele>1204.6</ele>
      </trkpt>
      <trkpt lat="44.9892" lon="4.1496">
        <ele>1203.1</ele>
      </trkpt>
      <trkpt lat="44.98898" lon="4.14944">
        <ele>1202.3</ele>
      </trkpt>
      <trkpt lat="44.98871" lon="4.1491">
        <ele>1199.2</ele>
      </trkpt>
      <trkpt lat="44.9885" lon="4.14893">
        <ele>1198.3</ele>
      </trkpt>
      <trkpt lat="44.98795" lon="4.14861">
        <ele>1195.4</ele>
      </trkpt>
      <trkpt lat="44.9879" lon="4.14859">
        <ele>1195.4</ele>
      </trkpt>
      <trkpt lat="44.98779" lon="4.14853">
        <ele>1195.1</ele>
      </trkpt>
      <trkpt lat="44.98764" lon="4.14851">
        <ele>1194.9</ele>
      </trkpt>
      <trkpt lat="44.98716" lon="4.14823">
        <ele>1192.7</ele>
      </trkpt>
      <trkpt lat="44.98689" lon="4.1481">
        <ele>1191.8</ele>
      </trkpt>
      <trkpt lat="44.98654" lon="4.14761">
        <ele>1189.2</ele>
      </trkpt>
      <trkpt lat="44.98624" lon="4.14706">
        <ele>1187.6</ele>
      </trkpt>
      <trkpt lat="44.98614" lon="4.14694">
        <ele>1187</ele>
      </trkpt>
      <trkpt lat="44.98529" lon="4.1467">
        <ele>1178</ele>
      </trkpt>
      <trkpt lat="44.98466" lon="4.14636">
        <ele>1170.1</ele>
      </trkpt>
      <trkpt lat="44.98458" lon="4.14632">
        <ele>1168.5</ele>
      </trkpt>
      <trkpt lat="44.98416" lon="4.14621">
        <ele>1162.5</ele>
      </trkpt>
      <trkpt lat="44.98403" lon="4.14621">
        <ele>1160.7</ele>
      </trkpt>
      <trkpt lat="44.98381" lon="4.14625">
        <ele>1157.7</ele>
      </trkpt>
      <trkpt lat="44.98368" lon="4.14635">
        <ele>1156</ele>
      </trkpt>
      <trkpt lat="44.98367" lon="4.1463">
        <ele>1154.1</ele>
      </trkpt>
      <trkpt lat="44.98374" lon="4.14611">
        <ele>1150.2</ele>
      </trkpt>
      <trkpt lat="44.98388" lon="4.14592">
        <ele>1148.4</ele>
      </trkpt>
      <trkpt lat="44.98412" lon="4.1457">
        <ele>1146.9</ele>
      </trkpt>
      <trkpt lat="44.98422" lon="4.14552">
        <ele>1144.6</ele>
      </trkpt>
      <trkpt lat="44.98421" lon="4.14545">
        <ele>1143.1</ele>
      </trkpt>
      <trkpt lat="44.98411" lon="4.14536">
        <ele>1141.1</ele>
      </trkpt>
      <trkpt lat="44.98403" lon="4.14525">
        <ele>1141.1</ele>
      </trkpt>
      <trkpt lat="44.98384" lon="4.14492">
        <ele>1144.6</ele>
      </trkpt>
      <trkpt lat="44.98385" lon="4.1448">
        <ele>1145.4</ele>
      </trkpt>
      <trkpt lat="44.98415" lon="4.14423">
        <ele>1150.6</ele>
      </trkpt>
      <trkpt lat="44.98433" lon="4.14403">
        <ele>1150.8</ele>
      </trkpt>
      <trkpt lat="44.9846" lon="4.14378">
        <ele>1151.5</ele>
      </trkpt>
      <trkpt lat="44.98459" lon="4.14379">
        <ele>1151.5</ele>
      </trkpt>
      <trkpt lat="44.9846" lon="4.14378">
        <ele>1151.5</ele>
      </trkpt>
      <trkpt lat="44.98461" lon="4.14377">
        <ele>1151.5</ele>
      </trkpt>
      <trkpt lat="44.98483" lon="4.14364">
        <ele>1149.9</ele>
      </trkpt>
      <trkpt lat="44.98528" lon="4.14347">
        <ele>1142.5</ele>
      </trkpt>
      <trkpt lat="44.98561" lon="4.14342">
        <ele>1137.8</ele>
      </trkpt>
      <trkpt lat="44.9857" lon="4.14348">
        <ele>1135.8</ele>
      </trkpt>
      <trkpt lat="44.98674" lon="4.14342">
        <ele>1129.9</ele>
      </trkpt>
      <trkpt lat="44.9872" lon="4.14314">
        <ele>1125.9</ele>
      </trkpt>
      <trkpt lat="44.9877" lon="4.14289">
        <ele>1123.2</ele>
      </trkpt>
      <trkpt lat="44.98807" lon="4.14262">
        <ele>1121.6</ele>
      </trkpt>
      <trkpt lat="44.98819" lon="4.14242">
        <ele>1121.9</ele>
      </trkpt>
      <trkpt lat="44.98819" lon="4.14237">
        <ele>1122.5</ele>
      </trkpt>
      <trkpt lat="44.9882" lon="4.14212">
        <ele>1128.73</ele>
        <time>2022-10-16T11:49:18Z</time>
      </trkpt>
      <trkpt lat="44.98821" lon="4.14186">
        <ele>1127.76</ele>
        <time>2022-10-16T11:49:34Z</time>
      </trkpt>
      <trkpt lat="44.98825" lon="4.14156">
        <ele>1128.24</ele>
        <time>2022-10-16T11:49:52Z</time>
      </trkpt>
      <trkpt lat="44.98833" lon="4.14128">
        <ele>1130.65</ele>
        <time>2022-10-16T11:50:07Z</time>
      </trkpt>
      <trkpt lat="44.9884" lon="4.14101">
        <ele>1132.09</ele>
        <time>2022-10-16T11:50:23Z</time>
      </trkpt>
      <trkpt lat="44.98846" lon="4.14065">
        <ele>1136.9</ele>
        <time>2022-10-16T11:50:44Z</time>
      </trkpt>
      <trkpt lat="44.98845" lon="4.14052">
        <ele>1138.82</ele>
        <time>2022-10-16T11:50:53Z</time>
      </trkpt>
      <trkpt lat="44.98839" lon="4.14039">
        <ele>1142.66</ele>
        <time>2022-10-16T11:51:02Z</time>
      </trkpt>
      <trkpt lat="44.98829" lon="4.14023">
        <ele>1146.51</ele>
        <time>2022-10-16T11:51:16Z</time>
      </trkpt>
      <trkpt lat="44.98821" lon="4.14011">
        <ele>1149.87</ele>
        <time>2022-10-16T11:51:28Z</time>
      </trkpt>
      <trkpt lat="44.98809" lon="4.14003">
        <ele>1153.72</ele>
        <time>2022-10-16T11:51:41Z</time>
      </trkpt>
      <trkpt lat="44.98802" lon="4.13995">
        <ele>1155.16</ele>
        <time>2022-10-16T11:51:53Z</time>
      </trkpt>
      <trkpt lat="44.98788" lon="4.13983">
        <ele>1158.53</ele>
        <time>2022-10-16T11:52:08Z</time>
      </trkpt>
      <trkpt lat="44.98775" lon="4.13966">
        <ele>1159.97</ele>
        <time>2022-10-16T11:52:23Z</time>
      </trkpt>
      <trkpt lat="44.98775" lon="4.13964">
        <ele>1160.45</ele>
        <time>2022-10-16T11:52:25Z</time>
      </trkpt>
      <trkpt lat="44.98768" lon="4.13953">
        <ele>1162.85</ele>
        <time>2022-10-16T11:52:33Z</time>
      </trkpt>
      <trkpt lat="44.98761" lon="4.1394">
        <ele>1161.89</ele>
        <time>2022-10-16T11:52:46Z</time>
      </trkpt>
      <trkpt lat="44.98758" lon="4.13918">
        <ele>1162.37</ele>
        <time>2022-10-16T11:53:00Z</time>
      </trkpt>
      <trkpt lat="44.98752" lon="4.13902">
        <ele>1164.29</ele>
        <time>2022-10-16T11:53:12Z</time>
      </trkpt>
      <trkpt lat="44.9875" lon="4.13896">
        <ele>1164.77</ele>
        <time>2022-10-16T11:53:18Z</time>
      </trkpt>
      <trkpt lat="44.98746" lon="4.13871">
        <ele>1167.66</ele>
        <time>2022-10-16T11:53:31Z</time>
      </trkpt>
      <trkpt lat="44.98742" lon="4.13854">
        <ele>1169.58</ele>
        <time>2022-10-16T11:53:42Z</time>
      </trkpt>
      <trkpt lat="44.98742" lon="4.13831">
        <ele>1171.02</ele>
        <time>2022-10-16T11:53:57Z</time>
      </trkpt>
      <trkpt lat="44.98745" lon="4.13797">
        <ele>1172.95</ele>
        <time>2022-10-16T11:54:17Z</time>
      </trkpt>
      <trkpt lat="44.98753" lon="4.1377">
        <ele>1173.43</ele>
        <time>2022-10-16T11:54:37Z</time>
      </trkpt>
      <trkpt lat="44.9876" lon="4.13741">
        <ele>1175.83</ele>
        <time>2022-10-16T11:54:59Z</time>
      </trkpt>
      <trkpt lat="44.98759" lon="4.13715">
        <ele>1175.35</ele>
        <time>2022-10-16T11:55:18Z</time>
      </trkpt>
      <trkpt lat="44.98754" lon="4.13688">
        <ele>1177.27</ele>
        <time>2022-10-16T11:55:36Z</time>
      </trkpt>
      <trkpt lat="44.98753" lon="4.13679">
        <ele>1176.31</ele>
        <time>2022-10-16T11:55:45Z</time>
      </trkpt>
      <trkpt lat="44.98752" lon="4.13676">
        <ele>1176.31</ele>
        <time>2022-10-16T11:55:47Z</time>
      </trkpt>
      <trkpt lat="44.98749" lon="4.1366">
        <ele>1175.35</ele>
        <time>2022-10-16T11:55:57Z</time>
      </trkpt>
      <trkpt lat="44.98749" lon="4.13659">
        <ele>1175.35</ele>
        <time>2022-10-16T11:55:58Z</time>
      </trkpt>
      <trkpt lat="44.98744" lon="4.13637">
        <ele>1174.87</ele>
        <time>2022-10-16T11:56:12Z</time>
      </trkpt>
      <trkpt lat="44.98741" lon="4.13628">
        <ele>1174.39</ele>
        <time>2022-10-16T11:56:18Z</time>
      </trkpt>
      <trkpt lat="44.98735" lon="4.13615">
        <ele>1173.43</ele>
        <time>2022-10-16T11:56:26Z</time>
      </trkpt>
      <trkpt lat="44.9873" lon="4.1361">
        <ele>1172.47</ele>
        <time>2022-10-16T11:56:31Z</time>
      </trkpt>
      <trkpt lat="44.98721" lon="4.13592">
        <ele>1171.5</ele>
        <time>2022-10-16T11:56:45Z</time>
      </trkpt>
      <trkpt lat="44.98721" lon="4.1359">
        <ele>1171.02</ele>
        <time>2022-10-16T11:56:47Z</time>
      </trkpt>
      <trkpt lat="44.98719" lon="4.13567">
        <ele>1169.1</ele>
        <time>2022-10-16T11:57:00Z</time>
      </trkpt>
      <trkpt lat="44.98718" lon="4.1356">
        <ele>1167.18</ele>
        <time>2022-10-16T11:57:04Z</time>
      </trkpt>
      <trkpt lat="44.98713" lon="4.13549">
        <ele>1166.22</ele>
        <time>2022-10-16T11:57:14Z</time>
      </trkpt>
      <trkpt lat="44.98713" lon="4.13547">
        <ele>1166.22</ele>
        <time>2022-10-16T11:57:16Z</time>
      </trkpt>
      <trkpt lat="44.98699" lon="4.13545">
        <ele>1166.22</ele>
        <time>2022-10-16T11:57:28Z</time>
      </trkpt>
      <trkpt lat="44.98695" lon="4.13545">
        <ele>1166.22</ele>
        <time>2022-10-16T11:57:32Z</time>
      </trkpt>
      <trkpt lat="44.98692" lon="4.13547">
        <ele>1166.7</ele>
        <time>2022-10-16T11:57:36Z</time>
      </trkpt>
      <trkpt lat="44.98685" lon="4.13546">
        <ele>1166.7</ele>
        <time>2022-10-16T11:57:44Z</time>
      </trkpt>
      <trkpt lat="44.98682" lon="4.1355">
        <ele>1167.18</ele>
        <time>2022-10-16T11:57:47Z</time>
      </trkpt>
      <trkpt lat="44.9868" lon="4.13551">
        <ele>1167.66</ele>
        <time>2022-10-16T11:57:51Z</time>
      </trkpt>
      <trkpt lat="44.98675" lon="4.13554">
        <ele>1168.62</ele>
        <time>2022-10-16T11:57:55Z</time>
      </trkpt>
      <trkpt lat="44.98663" lon="4.13567">
        <ele>1168.62</ele>
        <time>2022-10-16T11:58:07Z</time>
      </trkpt>
      <trkpt lat="44.98651" lon="4.13573">
        <ele>1169.1</ele>
        <time>2022-10-16T11:58:18Z</time>
      </trkpt>
      <trkpt lat="44.98639" lon="4.13578">
        <ele>1168.62</ele>
        <time>2022-10-16T11:58:29Z</time>
      </trkpt>
      <trkpt lat="44.98632" lon="4.13578">
        <ele>1168.62</ele>
        <time>2022-10-16T11:58:35Z</time>
      </trkpt>
      <trkpt lat="44.98627" lon="4.13577">
        <ele>1168.62</ele>
        <time>2022-10-16T11:58:39Z</time>
      </trkpt>
      <trkpt lat="44.98613" lon="4.13575">
        <ele>1168.14</ele>
        <time>2022-10-16T11:58:51Z</time>
      </trkpt>
      <trkpt lat="44.986" lon="4.13571">
        <ele>1169.58</ele>
        <time>2022-10-16T11:59:03Z</time>
      </trkpt>
      <trkpt lat="44.98599" lon="4.13571">
        <ele>1169.58</ele>
        <time>2022-10-16T11:59:04Z</time>
      </trkpt>
      <trkpt lat="44.98585" lon="4.1357">
        <ele>1169.58</ele>
        <time>2022-10-16T11:59:15Z</time>
      </trkpt>
      <trkpt lat="44.98575" lon="4.13565">
        <ele>1168.14</ele>
        <time>2022-10-16T11:59:25Z</time>
      </trkpt>
      <trkpt lat="44.98565" lon="4.13556">
        <ele>1167.66</ele>
        <time>2022-10-16T11:59:35Z</time>
      </trkpt>
      <trkpt lat="44.98553" lon="4.13547">
        <ele>1167.18</ele>
        <time>2022-10-16T11:59:45Z</time>
      </trkpt>
      <trkpt lat="44.98546" lon="4.13544">
        <ele>1166.7</ele>
        <time>2022-10-16T11:59:51Z</time>
      </trkpt>
      <trkpt lat="44.98542" lon="4.13539">
        <ele>1167.18</ele>
        <time>2022-10-16T11:59:56Z</time>
      </trkpt>
      <trkpt lat="44.98537" lon="4.13534">
        <ele>1167.66</ele>
        <time>2022-10-16T12:00:00Z</time>
      </trkpt>
      <trkpt lat="44.98514" lon="4.13514">
        <ele>1167.18</ele>
        <time>2022-10-16T12:00:19Z</time>
      </trkpt>
      <trkpt lat="44.98493" lon="4.13491">
        <ele>1168.14</ele>
        <time>2022-10-16T12:00:36Z</time>
      </trkpt>
      <trkpt lat="44.98478" lon="4.13477">
        <ele>1169.58</ele>
        <time>2022-10-16T12:00:52Z</time>
      </trkpt>
      <trkpt lat="44.98462" lon="4.13461">
        <ele>1169.58</ele>
        <time>2022-10-16T12:01:08Z</time>
      </trkpt>
      <trkpt lat="44.98459" lon="4.1345">
        <ele>1168.14</ele>
        <time>2022-10-16T12:01:16Z</time>
      </trkpt>
      <trkpt lat="44.98451" lon="4.13421">
        <ele>1164.29</ele>
        <time>2022-10-16T12:01:32Z</time>
      </trkpt>
      <trkpt lat="44.98436" lon="4.13395">
        <ele>1159.01</ele>
        <time>2022-10-16T12:01:50Z</time>
      </trkpt>
      <trkpt lat="44.98426" lon="4.13388">
        <ele>1159.01</ele>
        <time>2022-10-16T12:02:05Z</time>
      </trkpt>
      <trkpt lat="44.98417" lon="4.13379">
        <ele>1159.97</ele>
        <time>2022-10-16T12:02:23Z</time>
      </trkpt>
      <trkpt lat="44.98408" lon="4.13366">
        <ele>1162.85</ele>
        <time>2022-10-16T12:02:43Z</time>
      </trkpt>
      <trkpt lat="44.98402" lon="4.13353">
        <ele>1164.77</ele>
        <time>2022-10-16T12:03:03Z</time>
      </trkpt>
      <trkpt lat="44.9838" lon="4.13331">
        <ele>1166.7</ele>
        <time>2022-10-16T12:03:23Z</time>
      </trkpt>
      <trkpt lat="44.98367" lon="4.13312">
        <ele>1167.66</ele>
        <time>2022-10-16T12:03:41Z</time>
      </trkpt>
      <trkpt lat="44.98353" lon="4.13286">
        <ele>1169.1</ele>
        <time>2022-10-16T12:03:58Z</time>
      </trkpt>
      <trkpt lat="44.98339" lon="4.13266">
        <ele>1168.14</ele>
        <time>2022-10-16T12:04:14Z</time>
      </trkpt>
      <trkpt lat="44.98324" lon="4.13241">
        <ele>1166.7</ele>
        <time>2022-10-16T12:04:32Z</time>
      </trkpt>
      <trkpt lat="44.98314" lon="4.13216">
        <ele>1167.66</ele>
        <time>2022-10-16T12:04:50Z</time>
      </trkpt>
      <trkpt lat="44.98303" lon="4.13185">
        <ele>1169.58</ele>
        <time>2022-10-16T12:05:08Z</time>
      </trkpt>
      <trkpt lat="44.98292" lon="4.13162">
        <ele>1170.06</ele>
        <time>2022-10-16T12:05:23Z</time>
      </trkpt>
      <trkpt lat="44.98282" lon="4.13142">
        <ele>1170.54</ele>
        <time>2022-10-16T12:05:36Z</time>
      </trkpt>
      <trkpt lat="44.98268" lon="4.1312">
        <ele>1170.06</ele>
        <time>2022-10-16T12:05:51Z</time>
      </trkpt>
      <trkpt lat="44.9825" lon="4.13107">
        <ele>1171.98</ele>
        <time>2022-10-16T12:06:07Z</time>
      </trkpt>
      <trkpt lat="44.98229" lon="4.13106">
        <ele>1173.43</ele>
        <time>2022-10-16T12:06:24Z</time>
      </trkpt>
      <trkpt lat="44.9821" lon="4.13112">
        <ele>1176.79</ele>
        <time>2022-10-16T12:06:44Z</time>
      </trkpt>
      <trkpt lat="44.98202" lon="4.13115">
        <ele>1178.71</ele>
        <time>2022-10-16T12:06:53Z</time>
      </trkpt>
      <trkpt lat="44.98183" lon="4.13119">
        <ele>1183.04</ele>
        <time>2022-10-16T12:07:11Z</time>
      </trkpt>
      <trkpt lat="44.98165" lon="4.13129">
        <ele>1184.96</ele>
        <time>2022-10-16T12:07:29Z</time>
      </trkpt>
      <trkpt lat="44.9815" lon="4.13134">
        <ele>1186.4</ele>
        <time>2022-10-16T12:07:44Z</time>
      </trkpt>
      <trkpt lat="44.98131" lon="4.13139">
        <ele>1187.85</ele>
        <time>2022-10-16T12:08:01Z</time>
      </trkpt>
      <trkpt lat="44.98125" lon="4.13143">
        <ele>1188.81</ele>
        <time>2022-10-16T12:08:07Z</time>
      </trkpt>
      <trkpt lat="44.98109" lon="4.13148">
        <ele>1191.21</ele>
        <time>2022-10-16T12:08:23Z</time>
      </trkpt>
      <trkpt lat="44.9809" lon="4.13159">
        <ele>1194.58</ele>
        <time>2022-10-16T12:08:43Z</time>
      </trkpt>
      <trkpt lat="44.98071" lon="4.13169">
        <ele>1196.02</ele>
        <time>2022-10-16T12:09:01Z</time>
      </trkpt>
      <trkpt lat="44.98056" lon="4.13179">
        <ele>1197.94</ele>
        <time>2022-10-16T12:09:17Z</time>
      </trkpt>
      <trkpt lat="44.98035" lon="4.13187">
        <ele>1199.38</ele>
        <time>2022-10-16T12:09:35Z</time>
      </trkpt>
      <trkpt lat="44.98018" lon="4.13189">
        <ele>1201.3</ele>
        <time>2022-10-16T12:09:53Z</time>
      </trkpt>
      <trkpt lat="44.98008" lon="4.13195">
        <ele>1203.23</ele>
        <time>2022-10-16T12:10:04Z</time>
      </trkpt>
      <trkpt lat="44.97987" lon="4.13198">
        <ele>1204.19</ele>
        <time>2022-10-16T12:10:22Z</time>
      </trkpt>
      <trkpt lat="44.97969" lon="4.13212">
        <ele>1207.07</ele>
        <time>2022-10-16T12:10:40Z</time>
      </trkpt>
      <trkpt lat="44.97959" lon="4.13219">
        <ele>1207.07</ele>
        <time>2022-10-16T12:10:49Z</time>
      </trkpt>
      <trkpt lat="44.97938" lon="4.13232">
        <ele>1209</ele>
        <time>2022-10-16T12:11:08Z</time>
      </trkpt>
      <trkpt lat="44.97922" lon="4.13242">
        <ele>1210.44</ele>
        <time>2022-10-16T12:11:24Z</time>
      </trkpt>
      <trkpt lat="44.9792" lon="4.13245">
        <ele>1210.44</ele>
        <time>2022-10-16T12:11:28Z</time>
      </trkpt>
      <trkpt lat="44.97905" lon="4.13259">
        <ele>1209.96</ele>
        <time>2022-10-16T12:11:44Z</time>
      </trkpt>
      <trkpt lat="44.97887" lon="4.13271">
        <ele>1210.92</ele>
        <time>2022-10-16T12:12:02Z</time>
      </trkpt>
      <trkpt lat="44.97868" lon="4.13283">
        <ele>1213.8</ele>
        <time>2022-10-16T12:12:20Z</time>
      </trkpt>
      <trkpt lat="44.97849" lon="4.13292">
        <ele>1217.17</ele>
        <time>2022-10-16T12:12:38Z</time>
      </trkpt>
      <trkpt lat="44.97845" lon="4.13296">
        <ele>1218.13</ele>
        <time>2022-10-16T12:12:43Z</time>
      </trkpt>
      <trkpt lat="44.9784" lon="4.13301">
        <ele>1218.61</ele>
        <time>2022-10-16T12:12:49Z</time>
      </trkpt>
      <trkpt lat="44.97829" lon="4.13313">
        <ele>1222.45</ele>
        <time>2022-10-16T12:13:01Z</time>
      </trkpt>
      <trkpt lat="44.97818" lon="4.13321">
        <ele>1223.9</ele>
        <time>2022-10-16T12:13:11Z</time>
      </trkpt>
      <trkpt lat="44.97806" lon="4.13323">
        <ele>1224.86</ele>
        <time>2022-10-16T12:13:22Z</time>
      </trkpt>
      <trkpt lat="44.97794" lon="4.13315">
        <ele>1226.78</ele>
        <time>2022-10-16T12:13:33Z</time>
      </trkpt>
      <trkpt lat="44.9778" lon="4.13306">
        <ele>1227.74</ele>
        <time>2022-10-16T12:13:45Z</time>
      </trkpt>
      <trkpt lat="44.97761" lon="4.13292">
        <ele>1228.22</ele>
        <time>2022-10-16T12:14:01Z</time>
      </trkpt>
      <trkpt lat="44.97745" lon="4.13286">
        <ele>1230.62</ele>
        <time>2022-10-16T12:14:14Z</time>
      </trkpt>
      <trkpt lat="44.97733" lon="4.13277">
        <ele>1233.51</ele>
        <time>2022-10-16T12:14:27Z</time>
      </trkpt>
      <trkpt lat="44.97729" lon="4.13274">
        <ele>1233.51</ele>
        <time>2022-10-16T12:14:31Z</time>
      </trkpt>
      <trkpt lat="44.97718" lon="4.13263">
        <ele>1231.11</ele>
        <time>2022-10-16T12:14:43Z</time>
      </trkpt>
      <trkpt lat="44.97702" lon="4.13248">
        <ele>1233.03</ele>
        <time>2022-10-16T12:14:58Z</time>
      </trkpt>
      <trkpt lat="44.97686" lon="4.13236">
        <ele>1233.99</ele>
        <time>2022-10-16T12:15:12Z</time>
      </trkpt>
      <trkpt lat="44.97671" lon="4.13227">
        <ele>1234.95</ele>
        <time>2022-10-16T12:15:25Z</time>
      </trkpt>
      <trkpt lat="44.97663" lon="4.13222">
        <ele>1236.87</ele>
        <time>2022-10-16T12:15:35Z</time>
      </trkpt>
      <trkpt lat="44.97661" lon="4.13219">
        <ele>1237.35</ele>
        <time>2022-10-16T12:15:38Z</time>
      </trkpt>
      <trkpt lat="44.97656" lon="4.13206">
        <ele>1237.83</ele>
        <time>2022-10-16T12:15:49Z</time>
      </trkpt>
      <trkpt lat="44.97656" lon="4.13205">
        <ele>1237.83</ele>
        <time>2022-10-16T12:15:50Z</time>
      </trkpt>
      <trkpt lat="44.97657" lon="4.13199">
        <ele>1239.76</ele>
        <time>2022-10-16T12:15:56Z</time>
      </trkpt>
      <trkpt lat="44.97664" lon="4.13174">
        <ele>1244.08</ele>
        <time>2022-10-16T12:16:10Z</time>
      </trkpt>
      <trkpt lat="44.97667" lon="4.13149">
        <ele>1247.45</ele>
        <time>2022-10-16T12:16:24Z</time>
      </trkpt>
      <trkpt lat="44.97672" lon="4.13118">
        <ele>1251.77</ele>
        <time>2022-10-16T12:16:44Z</time>
      </trkpt>
      <trkpt lat="44.97675" lon="4.13087">
        <ele>1255.62</ele>
        <time>2022-10-16T12:17:03Z</time>
      </trkpt>
      <trkpt lat="44.9768" lon="4.13057">
        <ele>1258.02</ele>
        <time>2022-10-16T12:17:21Z</time>
      </trkpt>
      <trkpt lat="44.97682" lon="4.1303">
        <ele>1257.06</ele>
        <time>2022-10-16T12:17:39Z</time>
      </trkpt>
      <trkpt lat="44.97683" lon="4.12996">
        <ele>1256.58</ele>
        <time>2022-10-16T12:17:59Z</time>
      </trkpt>
      <trkpt lat="44.97693" lon="4.12972">
        <ele>1257.06</ele>
        <time>2022-10-16T12:18:16Z</time>
      </trkpt>
      <trkpt lat="44.97696" lon="4.12958">
        <ele>1257.06</ele>
        <time>2022-10-16T12:18:25Z</time>
      </trkpt>
      <trkpt lat="44.97699" lon="4.12936">
        <ele>1255.62</ele>
        <time>2022-10-16T12:18:41Z</time>
      </trkpt>
      <trkpt lat="44.97699" lon="4.12923">
        <ele>1255.14</ele>
        <time>2022-10-16T12:19:01Z</time>
      </trkpt>
      <trkpt lat="44.97702" lon="4.129">
        <ele>1247.45</ele>
        <time>2022-10-16T12:19:16Z</time>
      </trkpt>
      <trkpt lat="44.97708" lon="4.12872">
        <ele>1243.6</ele>
        <time>2022-10-16T12:19:33Z</time>
      </trkpt>
      <trkpt lat="44.9771" lon="4.12847">
        <ele>1242.16</ele>
        <time>2022-10-16T12:19:49Z</time>
      </trkpt>
      <trkpt lat="44.97709" lon="4.12836">
        <ele>1241.2</ele>
        <time>2022-10-16T12:19:57Z</time>
      </trkpt>
      <trkpt lat="44.97707" lon="4.12805">
        <ele>1241.2</ele>
        <time>2022-10-16T12:20:15Z</time>
      </trkpt>
      <trkpt lat="44.97706" lon="4.12802">
        <ele>1241.2</ele>
        <time>2022-10-16T12:20:16Z</time>
      </trkpt>
      <trkpt lat="44.9771" lon="4.12772">
        <ele>1241.2</ele>
        <time>2022-10-16T12:20:34Z</time>
      </trkpt>
      <trkpt lat="44.97716" lon="4.12744">
        <ele>1241.2</ele>
        <time>2022-10-16T12:20:51Z</time>
      </trkpt>
      <trkpt lat="44.9772" lon="4.12711">
        <ele>1245.04</ele>
        <time>2022-10-16T12:21:10Z</time>
      </trkpt>
      <trkpt lat="44.97726" lon="4.12682">
        <ele>1239.28</ele>
        <time>2022-10-16T12:21:27Z</time>
      </trkpt>
      <trkpt lat="44.97727" lon="4.12657">
        <ele>1238.32</ele>
        <time>2022-10-16T12:21:42Z</time>
      </trkpt>
      <trkpt lat="44.97732" lon="4.12623">
        <ele>1233.99</ele>
        <time>2022-10-16T12:22:01Z</time>
      </trkpt>
      <trkpt lat="44.97732" lon="4.126">
        <ele>1229.66</ele>
        <time>2022-10-16T12:22:13Z</time>
      </trkpt>
      <trkpt lat="44.97735" lon="4.1259">
        <ele>1228.22</ele>
        <time>2022-10-16T12:22:19Z</time>
      </trkpt>
      <trkpt lat="44.97736" lon="4.12575">
        <ele>1225.82</ele>
        <time>2022-10-16T12:22:27Z</time>
      </trkpt>
      <trkpt lat="44.97736" lon="4.12566">
        <ele>1224.86</ele>
        <time>2022-10-16T12:22:32Z</time>
      </trkpt>
      <trkpt lat="44.97742" lon="4.12543">
        <ele>1224.38</ele>
        <time>2022-10-16T12:22:45Z</time>
      </trkpt>
      <trkpt lat="44.97743" lon="4.1254">
        <ele>1223.9</ele>
        <time>2022-10-16T12:22:47Z</time>
      </trkpt>
      <trkpt lat="44.97745" lon="4.12534">
        <ele>1222.93</ele>
        <time>2022-10-16T12:22:51Z</time>
      </trkpt>
      <trkpt lat="44.97754" lon="4.12516">
        <ele>1219.57</ele>
        <time>2022-10-16T12:23:04Z</time>
      </trkpt>
      <trkpt lat="44.97762" lon="4.12501">
        <ele>1217.65</ele>
        <time>2022-10-16T12:23:14Z</time>
      </trkpt>
      <trkpt lat="44.97763" lon="4.12499">
        <ele>1217.65</ele>
        <time>2022-10-16T12:23:15Z</time>
      </trkpt>
      <trkpt lat="44.97773" lon="4.12486">
        <ele>1216.69</ele>
        <time>2022-10-16T12:23:26Z</time>
      </trkpt>
      <trkpt lat="44.97781" lon="4.12474">
        <ele>1215.24</ele>
        <time>2022-10-16T12:23:36Z</time>
      </trkpt>
      <trkpt lat="44.97789" lon="4.1246">
        <ele>1215.24</ele>
        <time>2022-10-16T12:23:46Z</time>
      </trkpt>
      <trkpt lat="44.97799" lon="4.12447">
        <ele>1212.84</ele>
        <time>2022-10-16T12:23:56Z</time>
      </trkpt>
      <trkpt lat="44.97806" lon="4.12434">
        <ele>1211.88</ele>
        <time>2022-10-16T12:24:05Z</time>
      </trkpt>
      <trkpt lat="44.97816" lon="4.1242">
        <ele>1211.4</ele>
        <time>2022-10-16T12:24:16Z</time>
      </trkpt>
      <trkpt lat="44.97825" lon="4.12403">
        <ele>1209.96</ele>
        <time>2022-10-16T12:24:26Z</time>
      </trkpt>
      <trkpt lat="44.97835" lon="4.12394">
        <ele>1208.03</ele>
        <time>2022-10-16T12:24:36Z</time>
      </trkpt>
      <trkpt lat="44.97844" lon="4.12384">
        <ele>1206.11</ele>
        <time>2022-10-16T12:24:45Z</time>
      </trkpt>
      <trkpt lat="44.97857" lon="4.12369">
        <ele>1207.07</ele>
        <time>2022-10-16T12:24:54Z</time>
      </trkpt>
      <trkpt lat="44.97866" lon="4.12359">
        <ele>1207.07</ele>
        <time>2022-10-16T12:25:03Z</time>
      </trkpt>
      <trkpt lat="44.97881" lon="4.12348">
        <ele>1200.82</ele>
        <time>2022-10-16T12:25:16Z</time>
      </trkpt>
      <trkpt lat="44.97899" lon="4.1233">
        <ele>1200.82</ele>
        <time>2022-10-16T12:25:34Z</time>
      </trkpt>
      <trkpt lat="44.97908" lon="4.12316">
        <ele>1202.75</ele>
        <time>2022-10-16T12:25:44Z</time>
      </trkpt>
      <trkpt lat="44.97919" lon="4.12301">
        <ele>1204.67</ele>
        <time>2022-10-16T12:25:54Z</time>
      </trkpt>
      <trkpt lat="44.97922" lon="4.12299">
        <ele>1204.67</ele>
        <time>2022-10-16T12:25:57Z</time>
      </trkpt>
      <trkpt lat="44.97932" lon="4.12283">
        <ele>1206.59</ele>
        <time>2022-10-16T12:26:08Z</time>
      </trkpt>
      <trkpt lat="44.97933" lon="4.12282">
        <ele>1206.59</ele>
        <time>2022-10-16T12:26:09Z</time>
      </trkpt>
      <trkpt lat="44.97939" lon="4.12271">
        <ele>1207.07</ele>
        <time>2022-10-16T12:26:14Z</time>
      </trkpt>
      <trkpt lat="44.97944" lon="4.12266">
        <ele>1206.59</ele>
        <time>2022-10-16T12:26:20Z</time>
      </trkpt>
      <trkpt lat="44.97957" lon="4.12247">
        <ele>1205.63</ele>
        <time>2022-10-16T12:26:33Z</time>
      </trkpt>
      <trkpt lat="44.97968" lon="4.12229">
        <ele>1204.19</ele>
        <time>2022-10-16T12:26:45Z</time>
      </trkpt>
      <trkpt lat="44.9797" lon="4.12224">
        <ele>1204.19</ele>
        <time>2022-10-16T12:26:47Z</time>
      </trkpt>
      <trkpt lat="44.97973" lon="4.1222">
        <ele>1203.71</ele>
        <time>2022-10-16T12:26:52Z</time>
      </trkpt>
      <trkpt lat="44.97978" lon="4.12211">
        <ele>1203.71</ele>
        <time>2022-10-16T12:26:57Z</time>
      </trkpt>
      <trkpt lat="44.97992" lon="4.12203">
        <ele>1203.23</ele>
        <time>2022-10-16T12:27:08Z</time>
      </trkpt>
      <trkpt lat="44.98006" lon="4.12204">
        <ele>1202.27</ele>
        <time>2022-10-16T12:27:18Z</time>
      </trkpt>
      <trkpt lat="44.98021" lon="4.122">
        <ele>1200.82</ele>
        <time>2022-10-16T12:27:30Z</time>
      </trkpt>
      <trkpt lat="44.98022" lon="4.122">
        <ele>1200.82</ele>
        <time>2022-10-16T12:27:32Z</time>
      </trkpt>
      <trkpt lat="44.98032" lon="4.12188">
        <ele>1197.94</ele>
        <time>2022-10-16T12:27:41Z</time>
      </trkpt>
      <trkpt lat="44.98042" lon="4.12178">
        <ele>1196.02</ele>
        <time>2022-10-16T12:27:51Z</time>
      </trkpt>
      <trkpt lat="44.98053" lon="4.12164">
        <ele>1195.06</ele>
        <time>2022-10-16T12:28:02Z</time>
      </trkpt>
      <trkpt lat="44.9806" lon="4.12153">
        <ele>1193.13</ele>
        <time>2022-10-16T12:28:10Z</time>
      </trkpt>
      <trkpt lat="44.98069" lon="4.12137">
        <ele>1188.33</ele>
        <time>2022-10-16T12:28:20Z</time>
      </trkpt>
      <trkpt lat="44.98075" lon="4.12125">
        <ele>1186.88</ele>
        <time>2022-10-16T12:28:29Z</time>
      </trkpt>
      <trkpt lat="44.98082" lon="4.12116">
        <ele>1186.4</ele>
        <time>2022-10-16T12:28:37Z</time>
      </trkpt>
      <trkpt lat="44.98093" lon="4.121">
        <ele>1184.96</ele>
        <time>2022-10-16T12:28:48Z</time>
      </trkpt>
      <trkpt lat="44.98104" lon="4.12085">
        <ele>1187.85</ele>
        <time>2022-10-16T12:28:59Z</time>
      </trkpt>
      <trkpt lat="44.98113" lon="4.12075">
        <ele>1188.81</ele>
        <time>2022-10-16T12:29:07Z</time>
      </trkpt>
      <trkpt lat="44.98125" lon="4.12064">
        <ele>1189.29</ele>
        <time>2022-10-16T12:29:17Z</time>
      </trkpt>
      <trkpt lat="44.98136" lon="4.12055">
        <ele>1190.25</ele>
        <time>2022-10-16T12:29:27Z</time>
      </trkpt>
      <trkpt lat="44.98145" lon="4.12041">
        <ele>1191.21</ele>
        <time>2022-10-16T12:29:38Z</time>
      </trkpt>
      <trkpt lat="44.9815" lon="4.12034">
        <ele>1191.69</ele>
        <time>2022-10-16T12:29:45Z</time>
      </trkpt>
      <trkpt lat="44.98162" lon="4.12018">
        <ele>1191.21</ele>
        <time>2022-10-16T12:29:55Z</time>
      </trkpt>
      <trkpt lat="44.98172" lon="4.12004">
        <ele>1191.69</ele>
        <time>2022-10-16T12:30:06Z</time>
      </trkpt>
      <trkpt lat="44.98188" lon="4.11987">
        <ele>1191.21</ele>
        <time>2022-10-16T12:30:20Z</time>
      </trkpt>
      <trkpt lat="44.98203" lon="4.11975">
        <ele>1188.33</ele>
        <time>2022-10-16T12:30:34Z</time>
      </trkpt>
      <trkpt lat="44.98217" lon="4.11962">
        <ele>1186.88</ele>
        <time>2022-10-16T12:30:48Z</time>
      </trkpt>
      <trkpt lat="44.98234" lon="4.11949">
        <ele>1185.92</ele>
        <time>2022-10-16T12:31:01Z</time>
      </trkpt>
      <trkpt lat="44.98238" lon="4.11947">
        <ele>1185.44</ele>
        <time>2022-10-16T12:31:05Z</time>
      </trkpt>
      <trkpt lat="44.98245" lon="4.11941">
        <ele>1185.92</ele>
        <time>2022-10-16T12:31:10Z</time>
      </trkpt>
      <trkpt lat="44.98259" lon="4.11932">
        <ele>1185.92</ele>
        <time>2022-10-16T12:31:22Z</time>
      </trkpt>
      <trkpt lat="44.98269" lon="4.11919">
        <ele>1184.48</ele>
        <time>2022-10-16T12:31:32Z</time>
      </trkpt>
      <trkpt lat="44.98273" lon="4.11916">
        <ele>1184.96</ele>
        <time>2022-10-16T12:31:36Z</time>
      </trkpt>
      <trkpt lat="44.98279" lon="4.11894">
        <ele>1182.08</ele>
        <time>2022-10-16T12:31:47Z</time>
      </trkpt>
      <trkpt lat="44.98282" lon="4.11882">
        <ele>1181.6</ele>
        <time>2022-10-16T12:31:55Z</time>
      </trkpt>
      <trkpt lat="44.98283" lon="4.11876">
        <ele>1181.6</ele>
        <time>2022-10-16T12:31:58Z</time>
      </trkpt>
      <trkpt lat="44.98288" lon="4.11864">
        <ele>1181.12</ele>
        <time>2022-10-16T12:32:07Z</time>
      </trkpt>
      <trkpt lat="44.98289" lon="4.11859">
        <ele>1181.12</ele>
        <time>2022-10-16T12:32:11Z</time>
      </trkpt>
      <trkpt lat="44.98289" lon="4.11855">
        <ele>1181.6</ele>
        <time>2022-10-16T12:32:15Z</time>
      </trkpt>
      <trkpt lat="44.98289" lon="4.11843">
        <ele>1184.96</ele>
        <time>2022-10-16T12:32:26Z</time>
      </trkpt>
      <trkpt lat="44.98291" lon="4.11841">
        <ele>1184.96</ele>
        <time>2022-10-16T12:32:29Z</time>
      </trkpt>
      <trkpt lat="44.98301" lon="4.11829">
        <ele>1187.37</ele>
        <time>2022-10-16T12:32:43Z</time>
      </trkpt>
      <trkpt lat="44.98314" lon="4.11825">
        <ele>1189.29</ele>
        <time>2022-10-16T12:32:55Z</time>
      </trkpt>
      <trkpt lat="44.9834" lon="4.11816">
        <ele>1189.77</ele>
        <time>2022-10-16T12:33:16Z</time>
      </trkpt>
      <trkpt lat="44.98358" lon="4.11803">
        <ele>1192.65</ele>
        <time>2022-10-16T12:33:35Z</time>
      </trkpt>
      <trkpt lat="44.98385" lon="4.11788">
        <ele>1190.25</ele>
        <time>2022-10-16T12:33:57Z</time>
      </trkpt>
      <trkpt lat="44.98408" lon="4.11775">
        <ele>1189.29</ele>
        <time>2022-10-16T12:34:18Z</time>
      </trkpt>
      <trkpt lat="44.98424" lon="4.11763">
        <ele>1192.17</ele>
        <time>2022-10-16T12:34:35Z</time>
      </trkpt>
      <trkpt lat="44.9844" lon="4.11747">
        <ele>1197.94</ele>
        <time>2022-10-16T12:34:53Z</time>
      </trkpt>
      <trkpt lat="44.98454" lon="4.11729">
        <ele>1202.27</ele>
        <time>2022-10-16T12:35:10Z</time>
      </trkpt>
      <trkpt lat="44.98467" lon="4.11716">
        <ele>1205.15</ele>
        <time>2022-10-16T12:35:26Z</time>
      </trkpt>
      <trkpt lat="44.98477" lon="4.117">
        <ele>1203.71</ele>
        <time>2022-10-16T12:35:38Z</time>
      </trkpt>
      <trkpt lat="44.98479" lon="4.11696">
        <ele>1203.71</ele>
        <time>2022-10-16T12:35:42Z</time>
      </trkpt>
      <trkpt lat="44.98487" lon="4.11679">
        <ele>1201.79</ele>
        <time>2022-10-16T12:35:54Z</time>
      </trkpt>
      <trkpt lat="44.98493" lon="4.11662">
        <ele>1200.82</ele>
        <time>2022-10-16T12:36:04Z</time>
      </trkpt>
      <trkpt lat="44.98497" lon="4.11648">
        <ele>1199.86</ele>
        <time>2022-10-16T12:36:15Z</time>
      </trkpt>
      <trkpt lat="44.98503" lon="4.11631">
        <ele>1198.42</ele>
        <time>2022-10-16T12:36:26Z</time>
      </trkpt>
      <trkpt lat="44.98509" lon="4.11614">
        <ele>1197.94</ele>
        <time>2022-10-16T12:36:38Z</time>
      </trkpt>
      <trkpt lat="44.98519" lon="4.11589">
        <ele>1197.46</ele>
        <time>2022-10-16T12:36:56Z</time>
      </trkpt>
      <trkpt lat="44.98527" lon="4.11574">
        <ele>1195.06</ele>
        <time>2022-10-16T12:37:08Z</time>
      </trkpt>
      <trkpt lat="44.98534" lon="4.11563">
        <ele>1192.65</ele>
        <time>2022-10-16T12:37:17Z</time>
      </trkpt>
      <trkpt lat="44.98538" lon="4.11545">
        <ele>1190.73</ele>
        <time>2022-10-16T12:37:28Z</time>
      </trkpt>
      <trkpt lat="44.98541" lon="4.11532">
        <ele>1190.25</ele>
        <time>2022-10-16T12:37:36Z</time>
      </trkpt>
      <trkpt lat="44.98543" lon="4.11523">
        <ele>1189.77</ele>
        <time>2022-10-16T12:37:41Z</time>
      </trkpt>
      <trkpt lat="44.98544" lon="4.11516">
        <ele>1190.25</ele>
        <time>2022-10-16T12:37:45Z</time>
      </trkpt>
      <trkpt lat="44.98546" lon="4.11512">
        <ele>1190.25</ele>
        <time>2022-10-16T12:37:48Z</time>
      </trkpt>
      <trkpt lat="44.98547" lon="4.11506">
        <ele>1190.25</ele>
        <time>2022-10-16T12:37:52Z</time>
      </trkpt>
      <trkpt lat="44.9855" lon="4.11489">
        <ele>1190.25</ele>
        <time>2022-10-16T12:38:03Z</time>
      </trkpt>
      <trkpt lat="44.98553" lon="4.11469">
        <ele>1190.73</ele>
        <time>2022-10-16T12:38:13Z</time>
      </trkpt>
      <trkpt lat="44.98555" lon="4.11462">
        <ele>1189.77</ele>
        <time>2022-10-16T12:38:18Z</time>
      </trkpt>
      <trkpt lat="44.98556" lon="4.11443">
        <ele>1189.77</ele>
        <time>2022-10-16T12:38:28Z</time>
      </trkpt>
      <trkpt lat="44.98558" lon="4.11426">
        <ele>1189.29</ele>
        <time>2022-10-16T12:38:38Z</time>
      </trkpt>
      <trkpt lat="44.98556" lon="4.11414">
        <ele>1188.33</ele>
        <time>2022-10-16T12:38:46Z</time>
      </trkpt>
      <trkpt lat="44.98554" lon="4.11395">
        <ele>1188.33</ele>
        <time>2022-10-16T12:38:57Z</time>
      </trkpt>
      <trkpt lat="44.98553" lon="4.11392">
        <ele>1187.85</ele>
        <time>2022-10-16T12:38:59Z</time>
      </trkpt>
      <trkpt lat="44.98549" lon="4.11388">
        <ele>1187.85</ele>
        <time>2022-10-16T12:39:13Z</time>
      </trkpt>
      <trkpt lat="44.9855" lon="4.11387">
        <ele>1187.85</ele>
        <time>2022-10-16T12:39:37Z</time>
      </trkpt>
      <trkpt lat="44.98549" lon="4.11389">
        <ele>1188.81</ele>
        <time>2022-10-16T12:39:54Z</time>
      </trkpt>
      <trkpt lat="44.9855" lon="4.11385">
        <ele>1188.81</ele>
        <time>2022-10-16T12:39:57Z</time>
      </trkpt>
      <trkpt lat="44.98553" lon="4.11372">
        <ele>1188.81</ele>
        <time>2022-10-16T12:40:05Z</time>
      </trkpt>
      <trkpt lat="44.98569" lon="4.11354">
        <ele>1189.29</ele>
        <time>2022-10-16T12:40:22Z</time>
      </trkpt>
      <trkpt lat="44.98584" lon="4.11338">
        <ele>1190.25</ele>
        <time>2022-10-16T12:40:36Z</time>
      </trkpt>
      <trkpt lat="44.98599" lon="4.11321">
        <ele>1189.29</ele>
        <time>2022-10-16T12:40:51Z</time>
      </trkpt>
      <trkpt lat="44.98613" lon="4.11305">
        <ele>1188.81</ele>
        <time>2022-10-16T12:41:05Z</time>
      </trkpt>
      <trkpt lat="44.98628" lon="4.11288">
        <ele>1188.81</ele>
        <time>2022-10-16T12:41:20Z</time>
      </trkpt>
      <trkpt lat="44.98645" lon="4.11275">
        <ele>1188.33</ele>
        <time>2022-10-16T12:41:36Z</time>
      </trkpt>
      <trkpt lat="44.98659" lon="4.11275">
        <ele>1186.88</ele>
        <time>2022-10-16T12:41:49Z</time>
      </trkpt>
      <trkpt lat="44.98676" lon="4.11278">
        <ele>1186.4</ele>
        <time>2022-10-16T12:42:02Z</time>
      </trkpt>
      <trkpt lat="44.98687" lon="4.11281">
        <ele>1186.88</ele>
        <time>2022-10-16T12:42:12Z</time>
      </trkpt>
      <trkpt lat="44.98697" lon="4.11283">
        <ele>1187.85</ele>
        <time>2022-10-16T12:42:20Z</time>
      </trkpt>
      <trkpt lat="44.98711" lon="4.11282">
        <ele>1187.85</ele>
        <time>2022-10-16T12:42:31Z</time>
      </trkpt>
      <trkpt lat="44.98725" lon="4.11284">
        <ele>1186.88</ele>
        <time>2022-10-16T12:42:41Z</time>
      </trkpt>
      <trkpt lat="44.98736" lon="4.11286">
        <ele>1185.92</ele>
        <time>2022-10-16T12:42:50Z</time>
      </trkpt>
      <trkpt lat="44.98752" lon="4.11288">
        <ele>1184.96</ele>
        <time>2022-10-16T12:43:01Z</time>
      </trkpt>
      <trkpt lat="44.98765" lon="4.1129">
        <ele>1184.48</ele>
        <time>2022-10-16T12:43:11Z</time>
      </trkpt>
      <trkpt lat="44.98777" lon="4.1129">
        <ele>1184.48</ele>
        <time>2022-10-16T12:43:20Z</time>
      </trkpt>
      <trkpt lat="44.98791" lon="4.11289">
        <ele>1184</ele>
        <time>2022-10-16T12:43:31Z</time>
      </trkpt>
      <trkpt lat="44.98805" lon="4.11289">
        <ele>1184.96</ele>
        <time>2022-10-16T12:43:42Z</time>
      </trkpt>
      <trkpt lat="44.98824" lon="4.11288">
        <ele>1185.92</ele>
        <time>2022-10-16T12:43:57Z</time>
      </trkpt>
      <trkpt lat="44.98838" lon="4.11288">
        <ele>1185.44</ele>
        <time>2022-10-16T12:44:07Z</time>
      </trkpt>
      <trkpt lat="44.98852" lon="4.11288">
        <ele>1185.92</ele>
        <time>2022-10-16T12:44:18Z</time>
      </trkpt>
      <trkpt lat="44.98867" lon="4.11286">
        <ele>1187.37</ele>
        <time>2022-10-16T12:44:28Z</time>
      </trkpt>
      <trkpt lat="44.98879" lon="4.11285">
        <ele>1186.88</ele>
        <time>2022-10-16T12:44:38Z</time>
      </trkpt>
      <trkpt lat="44.98894" lon="4.11284">
        <ele>1185.92</ele>
        <time>2022-10-16T12:44:48Z</time>
      </trkpt>
      <trkpt lat="44.98909" lon="4.11284">
        <ele>1185.92</ele>
        <time>2022-10-16T12:44:58Z</time>
      </trkpt>
      <trkpt lat="44.98923" lon="4.11287">
        <ele>1185.92</ele>
        <time>2022-10-16T12:45:09Z</time>
      </trkpt>
      <trkpt lat="44.98924" lon="4.11288">
        <ele>1185.92</ele>
        <time>2022-10-16T12:45:11Z</time>
      </trkpt>
      <trkpt lat="44.9894" lon="4.11297">
        <ele>1187.85</ele>
        <time>2022-10-16T12:45:23Z</time>
      </trkpt>
      <trkpt lat="44.98956" lon="4.11298">
        <ele>1190.25</ele>
        <time>2022-10-16T12:45:34Z</time>
      </trkpt>
      <trkpt lat="44.98971" lon="4.11294">
        <ele>1190.25</ele>
        <time>2022-10-16T12:45:45Z</time>
      </trkpt>
      <trkpt lat="44.98986" lon="4.11289">
        <ele>1190.73</ele>
        <time>2022-10-16T12:45:57Z</time>
      </trkpt>
      <trkpt lat="44.99002" lon="4.11284">
        <ele>1189.77</ele>
        <time>2022-10-16T12:46:10Z</time>
      </trkpt>
      <trkpt lat="44.99016" lon="4.11283">
        <ele>1189.77</ele>
        <time>2022-10-16T12:46:20Z</time>
      </trkpt>
      <trkpt lat="44.99018" lon="4.11283">
        <ele>1190.25</ele>
        <time>2022-10-16T12:46:22Z</time>
      </trkpt>
      <trkpt lat="44.9903" lon="4.11281">
        <ele>1190.73</ele>
        <time>2022-10-16T12:46:32Z</time>
      </trkpt>
      <trkpt lat="44.99043" lon="4.11284">
        <ele>1191.21</ele>
        <time>2022-10-16T12:46:43Z</time>
      </trkpt>
      <trkpt lat="44.99044" lon="4.11285">
        <ele>1190.73</ele>
        <time>2022-10-16T12:46:44Z</time>
      </trkpt>
      <trkpt lat="44.99053" lon="4.11291">
        <ele>1189.77</ele>
        <time>2022-10-16T12:46:54Z</time>
      </trkpt>
      <trkpt lat="44.99064" lon="4.11299">
        <ele>1188.81</ele>
        <time>2022-10-16T12:47:04Z</time>
      </trkpt>
      <trkpt lat="44.99077" lon="4.11307">
        <ele>1189.77</ele>
        <time>2022-10-16T12:47:14Z</time>
      </trkpt>
      <trkpt lat="44.99087" lon="4.1131">
        <ele>1190.73</ele>
        <time>2022-10-16T12:47:22Z</time>
      </trkpt>
      <trkpt lat="44.99092" lon="4.1131">
        <ele>1191.21</ele>
        <time>2022-10-16T12:47:26Z</time>
      </trkpt>
      <trkpt lat="44.99098" lon="4.11315">
        <ele>1192.17</ele>
        <time>2022-10-16T12:47:33Z</time>
      </trkpt>
      <trkpt lat="44.99102" lon="4.11332">
        <ele>1189.77</ele>
        <time>2022-10-16T12:47:45Z</time>
      </trkpt>
      <trkpt lat="44.99104" lon="4.11353">
        <ele>1188.81</ele>
        <time>2022-10-16T12:47:57Z</time>
      </trkpt>
      <trkpt lat="44.99108" lon="4.11365">
        <ele>1187.85</ele>
        <time>2022-10-16T12:48:04Z</time>
      </trkpt>
      <trkpt lat="44.99111" lon="4.11367">
        <ele>1187.85</ele>
        <time>2022-10-16T12:48:07Z</time>
      </trkpt>
      <trkpt lat="44.99114" lon="4.11368">
        <ele>1187.37</ele>
        <time>2022-10-16T12:48:10Z</time>
      </trkpt>
      <trkpt lat="44.99124" lon="4.11388">
        <ele>1185.44</ele>
        <time>2022-10-16T12:48:26Z</time>
      </trkpt>
      <trkpt lat="44.99134" lon="4.11399">
        <ele>1183.52</ele>
        <time>2022-10-16T12:48:41Z</time>
      </trkpt>
      <trkpt lat="44.99147" lon="4.1142">
        <ele>1183.04</ele>
        <time>2022-10-16T12:48:59Z</time>
      </trkpt>
      <trkpt lat="44.99166" lon="4.11416">
        <ele>1182.08</ele>
        <time>2022-10-16T12:49:10Z</time>
      </trkpt>
      <trkpt lat="44.9917" lon="4.11421">
        <ele>1181.12</ele>
        <time>2022-10-16T12:49:16Z</time>
      </trkpt>
      <trkpt lat="44.99176" lon="4.11423">
        <ele>1180.16</ele>
        <time>2022-10-16T12:49:20Z</time>
      </trkpt>
      <trkpt lat="44.99187" lon="4.11434">
        <ele>1178.71</ele>
        <time>2022-10-16T12:49:32Z</time>
      </trkpt>
      <trkpt lat="44.99201" lon="4.11448">
        <ele>1174.87</ele>
        <time>2022-10-16T12:49:48Z</time>
      </trkpt>
      <trkpt lat="44.99214" lon="4.11459">
        <ele>1170.54</ele>
        <time>2022-10-16T12:50:03Z</time>
      </trkpt>
      <trkpt lat="44.99215" lon="4.1146">
        <ele>1170.54</ele>
        <time>2022-10-16T12:50:04Z</time>
      </trkpt>
      <trkpt lat="44.99223" lon="4.11465">
        <ele>1167.66</ele>
        <time>2022-10-16T12:50:11Z</time>
      </trkpt>
      <trkpt lat="44.99232" lon="4.11472">
        <ele>1166.22</ele>
        <time>2022-10-16T12:50:18Z</time>
      </trkpt>
      <trkpt lat="44.9924" lon="4.11477">
        <ele>1164.77</ele>
        <time>2022-10-16T12:50:24Z</time>
      </trkpt>
      <trkpt lat="44.99241" lon="4.11477">
        <ele>1164.29</ele>
        <time>2022-10-16T12:50:26Z</time>
      </trkpt>
      <trkpt lat="44.99249" lon="4.1148">
        <ele>1163.81</ele>
        <time>2022-10-16T12:50:33Z</time>
      </trkpt>
      <trkpt lat="44.99255" lon="4.11484">
        <ele>1163.33</ele>
        <time>2022-10-16T12:50:39Z</time>
      </trkpt>
      <trkpt lat="44.99266" lon="4.11485">
        <ele>1161.41</ele>
        <time>2022-10-16T12:50:50Z</time>
      </trkpt>
      <trkpt lat="44.99279" lon="4.11484">
        <ele>1159.49</ele>
        <time>2022-10-16T12:51:02Z</time>
      </trkpt>
      <trkpt lat="44.99293" lon="4.11487">
        <ele>1156.12</ele>
        <time>2022-10-16T12:51:14Z</time>
      </trkpt>
      <trkpt lat="44.99308" lon="4.11482">
        <ele>1154.2</ele>
        <time>2022-10-16T12:51:24Z</time>
      </trkpt>
      <trkpt lat="44.99322" lon="4.11471">
        <ele>1153.72</ele>
        <time>2022-10-16T12:51:36Z</time>
      </trkpt>
      <trkpt lat="44.99332" lon="4.11455">
        <ele>1154.68</ele>
        <time>2022-10-16T12:51:49Z</time>
      </trkpt>
      <trkpt lat="44.99336" lon="4.11447">
        <ele>1154.68</ele>
        <time>2022-10-16T12:51:54Z</time>
      </trkpt>
      <trkpt lat="44.99349" lon="4.11426">
        <ele>1155.64</ele>
        <time>2022-10-16T12:52:08Z</time>
      </trkpt>
      <trkpt lat="44.99359" lon="4.11406">
        <ele>1156.6</ele>
        <time>2022-10-16T12:52:22Z</time>
      </trkpt>
      <trkpt lat="44.9937" lon="4.11389">
        <ele>1157.56</ele>
        <time>2022-10-16T12:52:36Z</time>
      </trkpt>
      <trkpt lat="44.99374" lon="4.11382">
        <ele>1158.05</ele>
        <time>2022-10-16T12:52:41Z</time>
      </trkpt>
      <trkpt lat="44.9938" lon="4.11361">
        <ele>1159.97</ele>
        <time>2022-10-16T12:52:53Z</time>
      </trkpt>
      <trkpt lat="44.99384" lon="4.11341">
        <ele>1159.97</ele>
        <time>2022-10-16T12:53:05Z</time>
      </trkpt>
      <trkpt lat="44.99385" lon="4.11335">
        <ele>1159.49</ele>
        <time>2022-10-16T12:53:10Z</time>
      </trkpt>
      <trkpt lat="44.99384" lon="4.11315">
        <ele>1157.56</ele>
        <time>2022-10-16T12:53:27Z</time>
      </trkpt>
      <trkpt lat="44.99393" lon="4.11275">
        <ele>1155.64</ele>
        <time>2022-10-16T12:53:51Z</time>
      </trkpt>
      <trkpt lat="44.994" lon="4.11259">
        <ele>1149.39</ele>
        <time>2022-10-16T12:54:06Z</time>
      </trkpt>
      <trkpt lat="44.9941" lon="4.1125">
        <ele>1147.95</ele>
        <time>2022-10-16T12:54:14Z</time>
      </trkpt>
      <trkpt lat="44.99422" lon="4.11224">
        <ele>1145.07</ele>
        <time>2022-10-16T12:54:32Z</time>
      </trkpt>
      <trkpt lat="44.99423" lon="4.11223">
        <ele>1144.11</ele>
        <time>2022-10-16T12:54:34Z</time>
      </trkpt>
      <trkpt lat="44.99435" lon="4.11221">
        <ele>1144.11</ele>
        <time>2022-10-16T12:54:47Z</time>
      </trkpt>
      <trkpt lat="44.99444" lon="4.11228">
        <ele>1143.63</ele>
        <time>2022-10-16T12:54:59Z</time>
      </trkpt>
      <trkpt lat="44.99446" lon="4.11229">
        <ele>1143.63</ele>
        <time>2022-10-16T12:55:03Z</time>
      </trkpt>
      <trkpt lat="44.9946" lon="4.11229">
        <ele>1141.22</ele>
        <time>2022-10-16T12:55:17Z</time>
      </trkpt>
      <trkpt lat="44.99465" lon="4.11229">
        <ele>1140.26</ele>
        <time>2022-10-16T12:55:24Z</time>
      </trkpt>
      <trkpt lat="44.99477" lon="4.11242">
        <ele>1130.17</ele>
        <time>2022-10-16T12:55:39Z</time>
      </trkpt>
      <trkpt lat="44.99481" lon="4.11245">
        <ele>1129.69</ele>
        <time>2022-10-16T12:55:44Z</time>
      </trkpt>
      <trkpt lat="44.99496" lon="4.11252">
        <ele>1129.69</ele>
        <time>2022-10-16T12:55:58Z</time>
      </trkpt>
      <trkpt lat="44.99511" lon="4.11259">
        <ele>1129.69</ele>
        <time>2022-10-16T12:56:12Z</time>
      </trkpt>
      <trkpt lat="44.99527" lon="4.11267">
        <ele>1127.76</ele>
        <time>2022-10-16T12:56:29Z</time>
      </trkpt>
      <trkpt lat="44.9954" lon="4.11291">
        <ele>1119.59</ele>
        <time>2022-10-16T12:56:48Z</time>
      </trkpt>
      <trkpt lat="44.9956" lon="4.1131">
        <ele>1112.86</ele>
        <time>2022-10-16T12:57:08Z</time>
      </trkpt>
      <trkpt lat="44.9958" lon="4.11327">
        <ele>1109.02</ele>
        <time>2022-10-16T12:57:29Z</time>
      </trkpt>
      <trkpt lat="44.99606" lon="4.11334">
        <ele>1106.61</ele>
        <time>2022-10-16T12:57:46Z</time>
      </trkpt>
      <trkpt lat="44.99624" lon="4.11325">
        <ele>1105.65</ele>
        <time>2022-10-16T12:57:57Z</time>
      </trkpt>
      <trkpt lat="44.9963" lon="4.11305">
        <ele>1107.1</ele>
        <time>2022-10-16T12:58:11Z</time>
      </trkpt>
      <trkpt lat="44.9963" lon="4.11279">
        <ele>1109.02</ele>
        <time>2022-10-16T12:58:29Z</time>
      </trkpt>
      <trkpt lat="44.9963" lon="4.11263">
        <ele>1111.42</ele>
        <time>2022-10-16T12:58:38Z</time>
      </trkpt>
      <trkpt lat="44.9963" lon="4.11248">
        <ele>1116.23</ele>
        <time>2022-10-16T12:58:50Z</time>
      </trkpt>
      <trkpt lat="44.99635" lon="4.11239">
        <ele>1118.63</ele>
        <time>2022-10-16T12:59:10Z</time>
      </trkpt>
      <trkpt lat="44.9964" lon="4.11223">
        <ele>1121.52</ele>
        <time>2022-10-16T12:59:20Z</time>
      </trkpt>
      <trkpt lat="44.99653" lon="4.11195">
        <ele>1122.48</ele>
        <time>2022-10-16T12:59:41Z</time>
      </trkpt>
      <trkpt lat="44.99654" lon="4.11172">
        <ele>1126.32</ele>
        <time>2022-10-16T12:59:55Z</time>
      </trkpt>
      <trkpt lat="44.99657" lon="4.11155">
        <ele>1129.69</ele>
        <time>2022-10-16T13:00:07Z</time>
      </trkpt>
      <trkpt lat="44.99665" lon="4.11133">
        <ele>1132.09</ele>
        <time>2022-10-16T13:00:22Z</time>
      </trkpt>
      <trkpt lat="44.99664" lon="4.11117">
        <ele>1132.57</ele>
        <time>2022-10-16T13:00:36Z</time>
      </trkpt>
      <trkpt lat="44.99666" lon="4.11098">
        <ele>1135.45</ele>
        <time>2022-10-16T13:00:51Z</time>
      </trkpt>
      <trkpt lat="44.99671" lon="4.11078">
        <ele>1140.26</ele>
        <time>2022-10-16T13:01:06Z</time>
      </trkpt>
      <trkpt lat="44.99672" lon="4.1107">
        <ele>1141.22</ele>
        <time>2022-10-16T13:01:12Z</time>
      </trkpt>
      <trkpt lat="44.99674" lon="4.11056">
        <ele>1141.7</ele>
        <time>2022-10-16T13:01:20Z</time>
      </trkpt>
      <trkpt lat="44.99678" lon="4.11038">
        <ele>1141.7</ele>
        <time>2022-10-16T13:01:35Z</time>
      </trkpt>
      <trkpt lat="44.9968" lon="4.1103">
        <ele>1139.78</ele>
        <time>2022-10-16T13:01:52Z</time>
      </trkpt>
      <trkpt lat="44.99677" lon="4.11026">
        <ele>1136.42</ele>
        <time>2022-10-16T13:02:03Z</time>
      </trkpt>
      <trkpt lat="44.9966" lon="4.10999">
        <ele>1124.88</ele>
        <time>2022-10-16T13:02:11Z</time>
      </trkpt>
      <trkpt lat="44.99646" lon="4.10984">
        <ele>1120.55</ele>
        <time>2022-10-16T13:02:21Z</time>
      </trkpt>
      <trkpt lat="44.99637" lon="4.10974">
        <ele>1118.15</ele>
        <time>2022-10-16T13:02:29Z</time>
      </trkpt>
      <trkpt lat="44.99624" lon="4.10967">
        <ele>1118.15</ele>
        <time>2022-10-16T13:02:40Z</time>
      </trkpt>
      <trkpt lat="44.99608" lon="4.10967">
        <ele>1120.07</ele>
        <time>2022-10-16T13:02:55Z</time>
      </trkpt>
      <trkpt lat="44.99595" lon="4.10971">
        <ele>1122</ele>
        <time>2022-10-16T13:03:07Z</time>
      </trkpt>
      <trkpt lat="44.99585" lon="4.10975">
        <ele>1122.48</ele>
        <time>2022-10-16T13:03:20Z</time>
      </trkpt>
      <trkpt lat="44.99576" lon="4.10963">
        <ele>1123.44</ele>
        <time>2022-10-16T13:03:30Z</time>
      </trkpt>
      <trkpt lat="44.99561" lon="4.10935">
        <ele>1124.88</ele>
        <time>2022-10-16T13:03:51Z</time>
      </trkpt>
      <trkpt lat="44.99551" lon="4.10922">
        <ele>1124.88</ele>
        <time>2022-10-16T13:04:08Z</time>
      </trkpt>
      <trkpt lat="44.99549" lon="4.10893">
        <ele>1126.32</ele>
        <time>2022-10-16T13:04:31Z</time>
      </trkpt>
      <trkpt lat="44.99544" lon="4.10861">
        <ele>1124.4</ele>
        <time>2022-10-16T13:04:52Z</time>
      </trkpt>
      <trkpt lat="44.99539" lon="4.10836">
        <ele>1124.88</ele>
        <time>2022-10-16T13:05:06Z</time>
      </trkpt>
      <trkpt lat="44.99537" lon="4.10805">
        <ele>1126.8</ele>
        <time>2022-10-16T13:05:24Z</time>
      </trkpt>
      <trkpt lat="44.99527" lon="4.10792">
        <ele>1125.36</ele>
        <time>2022-10-16T13:05:32Z</time>
      </trkpt>
      <trkpt lat="44.99511" lon="4.10773">
        <ele>1127.28</ele>
        <time>2022-10-16T13:05:52Z</time>
      </trkpt>
      <trkpt lat="44.99494" lon="4.10757">
        <ele>1131.61</ele>
        <time>2022-10-16T13:06:09Z</time>
      </trkpt>
      <trkpt lat="44.99481" lon="4.10742">
        <ele>1136.9</ele>
        <time>2022-10-16T13:06:27Z</time>
      </trkpt>
      <trkpt lat="44.99475" lon="4.10733">
        <ele>1138.34</ele>
        <time>2022-10-16T13:06:43Z</time>
      </trkpt>
      <trkpt lat="44.99466" lon="4.10726">
        <ele>1140.74</ele>
        <time>2022-10-16T13:07:00Z</time>
      </trkpt>
      <trkpt lat="44.99458" lon="4.10715">
        <ele>1143.14</ele>
        <time>2022-10-16T13:07:11Z</time>
      </trkpt>
      <trkpt lat="44.99459" lon="4.10693">
        <ele>1145.55</ele>
        <time>2022-10-16T13:07:24Z</time>
      </trkpt>
      <trkpt lat="44.99457" lon="4.10675">
        <ele>1145.07</ele>
        <time>2022-10-16T13:07:38Z</time>
      </trkpt>
      <trkpt lat="44.9946" lon="4.10658">
        <ele>1146.51</ele>
        <time>2022-10-16T13:07:52Z</time>
      </trkpt>
      <trkpt lat="44.99465" lon="4.10637">
        <ele>1147.95</ele>
        <time>2022-10-16T13:08:08Z</time>
      </trkpt>
      <trkpt lat="44.99472" lon="4.10609">
        <ele>1148.43</ele>
        <time>2022-10-16T13:08:29Z</time>
      </trkpt>
      <trkpt lat="44.99478" lon="4.10587">
        <ele>1149.87</ele>
        <time>2022-10-16T13:08:47Z</time>
      </trkpt>
      <trkpt lat="44.9948" lon="4.10562">
        <ele>1150.84</ele>
        <time>2022-10-16T13:09:02Z</time>
      </trkpt>
      <trkpt lat="44.99482" lon="4.10539">
        <ele>1150.35</ele>
        <time>2022-10-16T13:09:17Z</time>
      </trkpt>
      <trkpt lat="44.99486" lon="4.10516">
        <ele>1150.35</ele>
        <time>2022-10-16T13:09:33Z</time>
      </trkpt>
      <trkpt lat="44.99492" lon="4.10496">
        <ele>1150.35</ele>
        <time>2022-10-16T13:09:47Z</time>
      </trkpt>
      <trkpt lat="44.99495" lon="4.10475">
        <ele>1150.35</ele>
        <time>2022-10-16T13:10:01Z</time>
      </trkpt>
      <trkpt lat="44.99495" lon="4.10454">
        <ele>1150.35</ele>
        <time>2022-10-16T13:10:16Z</time>
      </trkpt>
      <trkpt lat="44.99497" lon="4.1043">
        <ele>1152.76</ele>
        <time>2022-10-16T13:10:32Z</time>
      </trkpt>
      <trkpt lat="44.99499" lon="4.10402">
        <ele>1155.16</ele>
        <time>2022-10-16T13:10:51Z</time>
      </trkpt>
      <trkpt lat="44.995" lon="4.10398">
        <ele>1155.64</ele>
        <time>2022-10-16T13:10:54Z</time>
      </trkpt>
      <trkpt lat="44.99508" lon="4.10373">
        <ele>1157.56</ele>
        <time>2022-10-16T13:11:10Z</time>
      </trkpt>
      <trkpt lat="44.99517" lon="4.10354">
        <ele>1159.49</ele>
        <time>2022-10-16T13:11:26Z</time>
      </trkpt>
      <trkpt lat="44.99526" lon="4.10333">
        <ele>1159.01</ele>
        <time>2022-10-16T13:11:41Z</time>
      </trkpt>
      <trkpt lat="44.99532" lon="4.10319">
        <ele>1158.53</ele>
        <time>2022-10-16T13:11:53Z</time>
      </trkpt>
      <trkpt lat="44.99542" lon="4.10297">
        <ele>1157.56</ele>
        <time>2022-10-16T13:12:10Z</time>
      </trkpt>
      <trkpt lat="44.99544" lon="4.10295">
        <ele>1158.05</ele>
        <time>2022-10-16T13:12:12Z</time>
      </trkpt>
      <trkpt lat="44.99555" lon="4.10277">
        <ele>1158.53</ele>
        <time>2022-10-16T13:12:26Z</time>
      </trkpt>
      <trkpt lat="44.99563" lon="4.10264">
        <ele>1160.45</ele>
        <time>2022-10-16T13:12:36Z</time>
      </trkpt>
      <trkpt lat="44.99571" lon="4.10255">
        <ele>1162.37</ele>
        <time>2022-10-16T13:12:46Z</time>
      </trkpt>
      <trkpt lat="44.99576" lon="4.10246">
        <ele>1165.26</ele>
        <time>2022-10-16T13:12:56Z</time>
      </trkpt>
      <trkpt lat="44.99584" lon="4.1023">
        <ele>1166.22</ele>
        <time>2022-10-16T13:13:07Z</time>
      </trkpt>
      <trkpt lat="44.99586" lon="4.10226">
        <ele>1166.22</ele>
        <time>2022-10-16T13:13:10Z</time>
      </trkpt>
      <trkpt lat="44.9959" lon="4.10222">
        <ele>1166.7</ele>
        <time>2022-10-16T13:13:14Z</time>
      </trkpt>
      <trkpt lat="44.99597" lon="4.10204">
        <ele>1168.14</ele>
        <time>2022-10-16T13:13:27Z</time>
      </trkpt>
      <trkpt lat="44.99602" lon="4.1019">
        <ele>1169.1</ele>
        <time>2022-10-16T13:13:37Z</time>
      </trkpt>
      <trkpt lat="44.99606" lon="4.1018">
        <ele>1170.06</ele>
        <time>2022-10-16T13:13:45Z</time>
      </trkpt>
      <trkpt lat="44.9961" lon="4.10167">
        <ele>1173.43</ele>
        <time>2022-10-16T13:13:56Z</time>
      </trkpt>
      <trkpt lat="44.99616" lon="4.10152">
        <ele>1173.91</ele>
        <time>2022-10-16T13:14:09Z</time>
      </trkpt>
      <trkpt lat="44.99616" lon="4.10146">
        <ele>1177.27</ele>
        <time>2022-10-16T13:14:25Z</time>
      </trkpt>
      <trkpt lat="44.99627" lon="4.10127">
        <ele>1182.08</ele>
        <time>2022-10-16T13:14:41Z</time>
      </trkpt>
      <trkpt lat="44.99632" lon="4.10117">
        <ele>1185.44</ele>
        <time>2022-10-16T13:14:51Z</time>
      </trkpt>
      <trkpt lat="44.99635" lon="4.10114">
        <ele>1186.88</ele>
        <time>2022-10-16T13:14:53Z</time>
      </trkpt>
      <trkpt lat="44.99652" lon="4.10089">
        <ele>1182.08</ele>
        <time>2022-10-16T13:15:05Z</time>
      </trkpt>
      <trkpt lat="44.99655" lon="4.10086">
        <ele>1181.6</ele>
        <time>2022-10-16T13:15:09Z</time>
      </trkpt>
      <trkpt lat="44.99656" lon="4.10082">
        <ele>1181.12</ele>
        <time>2022-10-16T13:15:12Z</time>
      </trkpt>
      <trkpt lat="44.99661" lon="4.10068">
        <ele>1179.67</ele>
        <time>2022-10-16T13:15:25Z</time>
      </trkpt>
      <trkpt lat="44.99664" lon="4.10065">
        <ele>1180.64</ele>
        <time>2022-10-16T13:15:37Z</time>
      </trkpt>
      <trkpt lat="44.99664" lon="4.10062">
        <ele>1182.08</ele>
        <time>2022-10-16T13:15:49Z</time>
      </trkpt>
      <trkpt lat="44.99671" lon="4.10049">
        <ele>1183.04</ele>
        <time>2022-10-16T13:16:03Z</time>
      </trkpt>
      <trkpt lat="44.99672" lon="4.10046">
        <ele>1183.52</ele>
        <time>2022-10-16T13:16:04Z</time>
      </trkpt>
      <trkpt lat="44.99684" lon="4.10032">
        <ele>1181.12</ele>
        <time>2022-10-16T13:16:10Z</time>
      </trkpt>
      <trkpt lat="44.99692" lon="4.10015">
        <ele>1180.64</ele>
        <time>2022-10-16T13:16:23Z</time>
      </trkpt>
      <trkpt lat="44.9969" lon="4.10007">
        <ele>1182.08</ele>
        <time>2022-10-16T13:16:31Z</time>
      </trkpt>
      <trkpt lat="44.99683" lon="4.10005">
        <ele>1182.08</ele>
        <time>2022-10-16T13:16:44Z</time>
      </trkpt>
      <trkpt lat="44.99684" lon="4.10003">
        <ele>1182.56</ele>
        <time>2022-10-16T13:16:59Z</time>
      </trkpt>
      <trkpt lat="44.99683" lon="4.09999">
        <ele>1186.4</ele>
        <time>2022-10-16T13:17:14Z</time>
      </trkpt>
      <trkpt lat="44.99683" lon="4.09997">
        <ele>1186.4</ele>
        <time>2022-10-16T13:17:41Z</time>
      </trkpt>
      <trkpt lat="44.99689" lon="4.0999">
        <ele>1185.92</ele>
        <time>2022-10-16T13:18:32Z</time>
      </trkpt>
      <trkpt lat="44.997" lon="4.09968">
        <ele>1179.67</ele>
        <time>2022-10-16T13:18:54Z</time>
      </trkpt>
      <trkpt lat="44.99705" lon="4.09966">
        <ele>1181.12</ele>
        <time>2022-10-16T13:19:09Z</time>
      </trkpt>
      <trkpt lat="44.99733" lon="4.0994">
        <ele>1179.3</ele>
      </trkpt>
      <trkpt lat="44.99744" lon="4.09934">
        <ele>1177</ele>
      </trkpt>
      <trkpt lat="44.99704" lon="4.09975">
        <ele>1178.9</ele>
      </trkpt>
      <trkpt lat="44.9967" lon="4.10009">
        <ele>1177.8</ele>
      </trkpt>
      <trkpt lat="44.99635" lon="4.10033">
        <ele>1180.1</ele>
      </trkpt>
      <trkpt lat="44.99649" lon="4.09922">
        <ele>1184.96</ele>
        <time>2022-10-16T13:25:57Z</time>
      </trkpt>
      <trkpt lat="44.99648" lon="4.09922">
        <ele>1184.96</ele>
        <time>2022-10-16T13:25:59Z</time>
      </trkpt>
      <trkpt lat="44.99645" lon="4.09922">
        <ele>1183.52</ele>
        <time>2022-10-16T13:26:08Z</time>
      </trkpt>
      <trkpt lat="44.99645" lon="4.0992">
        <ele>1183.04</ele>
        <time>2022-10-16T13:26:16Z</time>
      </trkpt>
      <trkpt lat="44.99636" lon="4.0991">
        <ele>1181.12</ele>
        <time>2022-10-16T13:26:25Z</time>
      </trkpt>
      <trkpt lat="44.99635" lon="4.09908">
        <ele>1181.12</ele>
        <time>2022-10-16T13:26:26Z</time>
      </trkpt>
      <trkpt lat="44.99625" lon="4.09891">
        <ele>1177.75</ele>
        <time>2022-10-16T13:26:40Z</time>
      </trkpt>
      <trkpt lat="44.99622" lon="4.09882">
        <ele>1176.31</ele>
        <time>2022-10-16T13:26:46Z</time>
      </trkpt>
      <trkpt lat="44.99614" lon="4.09865">
        <ele>1174.39</ele>
        <time>2022-10-16T13:26:57Z</time>
      </trkpt>
      <trkpt lat="44.99607" lon="4.09852">
        <ele>1174.39</ele>
        <time>2022-10-16T13:27:05Z</time>
      </trkpt>
      <trkpt lat="44.99602" lon="4.09844">
        <ele>1172.95</ele>
        <time>2022-10-16T13:27:12Z</time>
      </trkpt>
      <trkpt lat="44.99598" lon="4.09836">
        <ele>1171.5</ele>
        <time>2022-10-16T13:27:21Z</time>
      </trkpt>
      <trkpt lat="44.9959" lon="4.09824">
        <ele>1169.1</ele>
        <time>2022-10-16T13:27:29Z</time>
      </trkpt>
      <trkpt lat="44.99582" lon="4.0981">
        <ele>1167.66</ele>
        <time>2022-10-16T13:27:39Z</time>
      </trkpt>
      <trkpt lat="44.99577" lon="4.09805">
        <ele>1166.7</ele>
        <time>2022-10-16T13:27:44Z</time>
      </trkpt>
      <trkpt lat="44.99575" lon="4.09803">
        <ele>1166.7</ele>
        <time>2022-10-16T13:27:46Z</time>
      </trkpt>
      <trkpt lat="44.9957" lon="4.09797">
        <ele>1167.18</ele>
        <time>2022-10-16T13:27:52Z</time>
      </trkpt>
      <trkpt lat="44.99568" lon="4.09797">
        <ele>1167.18</ele>
        <time>2022-10-16T13:27:54Z</time>
      </trkpt>
      <trkpt lat="44.99561" lon="4.0979">
        <ele>1167.66</ele>
        <time>2022-10-16T13:28:06Z</time>
      </trkpt>
      <trkpt lat="44.9955" lon="4.09779">
        <ele>1164.29</ele>
        <time>2022-10-16T13:28:17Z</time>
      </trkpt>
      <trkpt lat="44.99538" lon="4.09772">
        <ele>1160.93</ele>
        <time>2022-10-16T13:28:28Z</time>
      </trkpt>
      <trkpt lat="44.99528" lon="4.09761">
        <ele>1158.05</ele>
        <time>2022-10-16T13:28:41Z</time>
      </trkpt>
      <trkpt lat="44.99527" lon="4.09758">
        <ele>1157.08</ele>
        <time>2022-10-16T13:28:47Z</time>
      </trkpt>
      <trkpt lat="44.99521" lon="4.09742">
        <ele>1157.08</ele>
        <time>2022-10-16T13:28:59Z</time>
      </trkpt>
      <trkpt lat="44.99516" lon="4.0973">
        <ele>1156.12</ele>
        <time>2022-10-16T13:29:08Z</time>
      </trkpt>
      <trkpt lat="44.99517" lon="4.0972">
        <ele>1155.16</ele>
        <time>2022-10-16T13:29:17Z</time>
      </trkpt>
      <trkpt lat="44.99525" lon="4.09709">
        <ele>1152.76</ele>
        <time>2022-10-16T13:29:29Z</time>
      </trkpt>
      <trkpt lat="44.9953" lon="4.09698">
        <ele>1150.84</ele>
        <time>2022-10-16T13:29:39Z</time>
      </trkpt>
      <trkpt lat="44.99532" lon="4.09689">
        <ele>1148.91</ele>
        <time>2022-10-16T13:29:48Z</time>
      </trkpt>
      <trkpt lat="44.9953" lon="4.09679">
        <ele>1146.99</ele>
        <time>2022-10-16T13:29:55Z</time>
      </trkpt>
      <trkpt lat="44.99525" lon="4.09671">
        <ele>1143.63</ele>
        <time>2022-10-16T13:30:06Z</time>
      </trkpt>
      <trkpt lat="44.99523" lon="4.09669">
        <ele>1142.18</ele>
        <time>2022-10-16T13:30:09Z</time>
      </trkpt>
      <trkpt lat="44.99521" lon="4.09663">
        <ele>1140.74</ele>
        <time>2022-10-16T13:30:17Z</time>
      </trkpt>
      <trkpt lat="44.9952" lon="4.09649">
        <ele>1138.82</ele>
        <time>2022-10-16T13:30:31Z</time>
      </trkpt>
      <trkpt lat="44.99519" lon="4.09648">
        <ele>1138.34</ele>
        <time>2022-10-16T13:30:33Z</time>
      </trkpt>
      <trkpt lat="44.99522" lon="4.09636">
        <ele>1136.9</ele>
        <time>2022-10-16T13:30:46Z</time>
      </trkpt>
      <trkpt lat="44.99526" lon="4.0963">
        <ele>1135.94</ele>
        <time>2022-10-16T13:30:53Z</time>
      </trkpt>
      <trkpt lat="44.99524" lon="4.09626">
        <ele>1135.94</ele>
        <time>2022-10-16T13:30:57Z</time>
      </trkpt>
      <trkpt lat="44.99511" lon="4.0963">
        <ele>1134.01</ele>
        <time>2022-10-16T13:31:13Z</time>
      </trkpt>
      <trkpt lat="44.99494" lon="4.09635">
        <ele>1133.53</ele>
        <time>2022-10-16T13:31:29Z</time>
      </trkpt>
      <trkpt lat="44.99489" lon="4.09639">
        <ele>1134.01</ele>
        <time>2022-10-16T13:31:42Z</time>
      </trkpt>
      <trkpt lat="44.99487" lon="4.09638">
        <ele>1134.01</ele>
        <time>2022-10-16T13:32:01Z</time>
      </trkpt>
      <trkpt lat="44.99493" lon="4.09637">
        <ele>1133.05</ele>
        <time>2022-10-16T13:32:15Z</time>
      </trkpt>
      <trkpt lat="44.99496" lon="4.09641">
        <ele>1132.57</ele>
        <time>2022-10-16T13:32:33Z</time>
      </trkpt>
      <trkpt lat="44.99497" lon="4.09645">
        <ele>1133.53</ele>
        <time>2022-10-16T13:32:47Z</time>
      </trkpt>
      <trkpt lat="44.995" lon="4.09635">
        <ele>1133.53</ele>
        <time>2022-10-16T13:33:00Z</time>
      </trkpt>
      <trkpt lat="44.99504" lon="4.0963">
        <ele>1136.9</ele>
        <time>2022-10-16T13:33:11Z</time>
      </trkpt>
      <trkpt lat="44.99502" lon="4.09631">
        <ele>1136.9</ele>
        <time>2022-10-16T13:33:17Z</time>
      </trkpt>
      <trkpt lat="44.99503" lon="4.09631">
        <ele>1136.42</ele>
        <time>2022-10-16T13:33:21Z</time>
      </trkpt>
      <trkpt lat="44.9951" lon="4.09628">
        <ele>1136.42</ele>
        <time>2022-10-16T13:33:26Z</time>
      </trkpt>
      <trkpt lat="44.99523" lon="4.09624">
        <ele>1134.97</ele>
        <time>2022-10-16T13:33:38Z</time>
      </trkpt>
      <trkpt lat="44.99532" lon="4.09622">
        <ele>1134.49</ele>
        <time>2022-10-16T13:33:52Z</time>
      </trkpt>
      <trkpt lat="44.99547" lon="4.09622">
        <ele>1134.97</ele>
        <time>2022-10-16T13:34:03Z</time>
      </trkpt>
      <trkpt lat="44.99557" lon="4.09622">
        <ele>1135.45</ele>
        <time>2022-10-16T13:34:12Z</time>
      </trkpt>
      <trkpt lat="44.99564" lon="4.09622">
        <ele>1136.42</ele>
        <time>2022-10-16T13:34:18Z</time>
      </trkpt>
      <trkpt lat="44.99555" lon="4.09619">
        <ele>1138.82</ele>
        <time>2022-10-16T13:34:27Z</time>
      </trkpt>
      <trkpt lat="44.99565" lon="4.09626">
        <ele>1141.22</ele>
        <time>2022-10-16T13:34:49Z</time>
      </trkpt>
      <trkpt lat="44.99579" lon="4.09633">
        <ele>1141.22</ele>
        <time>2022-10-16T13:35:12Z</time>
      </trkpt>
      <trkpt lat="44.99591" lon="4.09641">
        <ele>1139.78</ele>
        <time>2022-10-16T13:35:32Z</time>
      </trkpt>
      <trkpt lat="44.99605" lon="4.09636">
        <ele>1139.3</ele>
        <time>2022-10-16T13:35:44Z</time>
      </trkpt>
      <trkpt lat="44.99615" lon="4.0963">
        <ele>1137.86</ele>
        <time>2022-10-16T13:35:57Z</time>
      </trkpt>
      <trkpt lat="44.9962" lon="4.09631">
        <ele>1138.34</ele>
        <time>2022-10-16T13:36:04Z</time>
      </trkpt>
      <trkpt lat="44.99617" lon="4.09627">
        <ele>1137.86</ele>
        <time>2022-10-16T13:36:18Z</time>
      </trkpt>
      <trkpt lat="44.99616" lon="4.09626">
        <ele>1137.38</ele>
        <time>2022-10-16T13:36:29Z</time>
      </trkpt>
      <trkpt lat="44.99629" lon="4.09629">
        <ele>1134.97</ele>
        <time>2022-10-16T13:36:41Z</time>
      </trkpt>
      <trkpt lat="44.99635" lon="4.09633">
        <ele>1133.53</ele>
        <time>2022-10-16T13:36:48Z</time>
      </trkpt>
      <trkpt lat="44.99643" lon="4.09638">
        <ele>1132.09</ele>
        <time>2022-10-16T13:37:01Z</time>
      </trkpt>
      <trkpt lat="44.9965" lon="4.09642">
        <ele>1132.09</ele>
        <time>2022-10-16T13:37:20Z</time>
      </trkpt>
      <trkpt lat="44.99655" lon="4.09649">
        <ele>1133.53</ele>
        <time>2022-10-16T13:37:40Z</time>
      </trkpt>
      <trkpt lat="44.99669" lon="4.0965">
        <ele>1135.94</ele>
        <time>2022-10-16T13:37:55Z</time>
      </trkpt>
      <trkpt lat="44.99687" lon="4.09651">
        <ele>1136.9</ele>
        <time>2022-10-16T13:38:13Z</time>
      </trkpt>
      <trkpt lat="44.99697" lon="4.09655">
        <ele>1138.34</ele>
        <time>2022-10-16T13:38:28Z</time>
      </trkpt>
      <trkpt lat="44.99722" lon="4.09656">
        <ele>1137.86</ele>
        <time>2022-10-16T13:38:46Z</time>
      </trkpt>
      <trkpt lat="44.99742" lon="4.09658">
        <ele>1138.34</ele>
        <time>2022-10-16T13:39:06Z</time>
      </trkpt>
      <trkpt lat="44.99761" lon="4.09664">
        <ele>1137.86</ele>
        <time>2022-10-16T13:39:22Z</time>
      </trkpt>
      <trkpt lat="44.99755" lon="4.09662">
        <ele>1136.9</ele>
        <time>2022-10-16T13:39:36Z</time>
      </trkpt>
      <trkpt lat="44.99747" lon="4.0966">
        <ele>1136.42</ele>
        <time>2022-10-16T13:39:53Z</time>
      </trkpt>
      <trkpt lat="44.99753" lon="4.09664">
        <ele>1136.9</ele>
        <time>2022-10-16T13:40:12Z</time>
      </trkpt>
      <trkpt lat="44.99764" lon="4.09667">
        <ele>1137.38</ele>
        <time>2022-10-16T13:40:21Z</time>
      </trkpt>
      <trkpt lat="44.99766" lon="4.09668">
        <ele>1137.38</ele>
        <time>2022-10-16T13:40:27Z</time>
      </trkpt>
      <trkpt lat="44.99774" lon="4.09663">
        <ele>1137.38</ele>
        <time>2022-10-16T13:40:37Z</time>
      </trkpt>
      <trkpt lat="44.99777" lon="4.09659">
        <ele>1137.38</ele>
        <time>2022-10-16T13:40:48Z</time>
      </trkpt>
      <trkpt lat="44.99786" lon="4.09639">
        <ele>1134.01</ele>
        <time>2022-10-16T13:41:05Z</time>
      </trkpt>
      <trkpt lat="44.9979" lon="4.09622">
        <ele>1131.61</ele>
        <time>2022-10-16T13:41:15Z</time>
      </trkpt>
      <trkpt lat="44.99791" lon="4.09604">
        <ele>1128.24</ele>
        <time>2022-10-16T13:41:25Z</time>
      </trkpt>
      <trkpt lat="44.99791" lon="4.09591">
        <ele>1127.28</ele>
        <time>2022-10-16T13:41:32Z</time>
      </trkpt>
      <trkpt lat="44.99787" lon="4.09577">
        <ele>1125.84</ele>
        <time>2022-10-16T13:41:43Z</time>
      </trkpt>
      <trkpt lat="44.99782" lon="4.0957">
        <ele>1123.92</ele>
        <time>2022-10-16T13:42:01Z</time>
      </trkpt>
      <trkpt lat="44.99782" lon="4.09568">
        <ele>1123.44</ele>
        <time>2022-10-16T13:42:22Z</time>
      </trkpt>
      <trkpt lat="44.99782" lon="4.09566">
        <ele>1123.44</ele>
        <time>2022-10-16T13:42:24Z</time>
      </trkpt>
      <trkpt lat="44.9978" lon="4.09555">
        <ele>1122</ele>
        <time>2022-10-16T13:42:33Z</time>
      </trkpt>
      <trkpt lat="44.99783" lon="4.09548">
        <ele>1122</ele>
        <time>2022-10-16T13:42:36Z</time>
      </trkpt>
      <trkpt lat="44.99791" lon="4.09541">
        <ele>1120.07</ele>
        <time>2022-10-16T13:42:44Z</time>
      </trkpt>
      <trkpt lat="44.99801" lon="4.09541">
        <ele>1118.63</ele>
        <time>2022-10-16T13:42:57Z</time>
      </trkpt>
      <trkpt lat="44.9981" lon="4.09542">
        <ele>1118.15</ele>
        <time>2022-10-16T13:43:06Z</time>
      </trkpt>
      <trkpt lat="44.99815" lon="4.09543">
        <ele>1119.11</ele>
        <time>2022-10-16T13:43:11Z</time>
      </trkpt>
      <trkpt lat="44.99828" lon="4.09551">
        <ele>1119.11</ele>
        <time>2022-10-16T13:43:23Z</time>
      </trkpt>
      <trkpt lat="44.99835" lon="4.09553">
        <ele>1119.11</ele>
        <time>2022-10-16T13:43:29Z</time>
      </trkpt>
      <trkpt lat="44.99843" lon="4.09555">
        <ele>1119.59</ele>
        <time>2022-10-16T13:43:36Z</time>
      </trkpt>
      <trkpt lat="44.99853" lon="4.09556">
        <ele>1121.03</ele>
        <time>2022-10-16T13:43:47Z</time>
      </trkpt>
      <trkpt lat="44.99863" lon="4.09556">
        <ele>1122</ele>
        <time>2022-10-16T13:43:56Z</time>
      </trkpt>
      <trkpt lat="44.99876" lon="4.09559">
        <ele>1121.03</ele>
        <time>2022-10-16T13:44:06Z</time>
      </trkpt>
      <trkpt lat="44.99886" lon="4.09562">
        <ele>1120.55</ele>
        <time>2022-10-16T13:44:16Z</time>
      </trkpt>
      <trkpt lat="44.99895" lon="4.09564">
        <ele>1119.59</ele>
        <time>2022-10-16T13:44:23Z</time>
      </trkpt>
      <trkpt lat="44.99897" lon="4.09564">
        <ele>1119.59</ele>
        <time>2022-10-16T13:44:24Z</time>
      </trkpt>
      <trkpt lat="44.99909" lon="4.09569">
        <ele>1120.07</ele>
        <time>2022-10-16T13:44:34Z</time>
      </trkpt>
      <trkpt lat="44.9992" lon="4.09573">
        <ele>1119.11</ele>
        <time>2022-10-16T13:44:42Z</time>
      </trkpt>
      <trkpt lat="44.99924" lon="4.09574">
        <ele>1119.11</ele>
        <time>2022-10-16T13:44:46Z</time>
      </trkpt>
      <trkpt lat="44.99935" lon="4.09581">
        <ele>1118.15</ele>
        <time>2022-10-16T13:44:57Z</time>
      </trkpt>
      <trkpt lat="44.99947" lon="4.09584">
        <ele>1117.67</ele>
        <time>2022-10-16T13:45:07Z</time>
      </trkpt>
      <trkpt lat="44.99958" lon="4.09583">
        <ele>1116.23</ele>
        <time>2022-10-16T13:45:16Z</time>
      </trkpt>
      <trkpt lat="44.9997" lon="4.09581">
        <ele>1113.34</ele>
        <time>2022-10-16T13:45:26Z</time>
      </trkpt>
      <trkpt lat="44.99981" lon="4.09577">
        <ele>1113.34</ele>
        <time>2022-10-16T13:45:37Z</time>
      </trkpt>
      <trkpt lat="44.99982" lon="4.09576">
        <ele>1113.34</ele>
        <time>2022-10-16T13:45:38Z</time>
      </trkpt>
      <trkpt lat="44.99995" lon="4.0957">
        <ele>1112.86</ele>
        <time>2022-10-16T13:45:50Z</time>
      </trkpt>
      <trkpt lat="45.00008" lon="4.09571">
        <ele>1111.9</ele>
        <time>2022-10-16T13:46:00Z</time>
      </trkpt>
      <trkpt lat="45.00018" lon="4.09573">
        <ele>1109.98</ele>
        <time>2022-10-16T13:46:10Z</time>
      </trkpt>
      <trkpt lat="45.00028" lon="4.09571">
        <ele>1109.5</ele>
        <time>2022-10-16T13:46:19Z</time>
      </trkpt>
      <trkpt lat="45.00039" lon="4.0957">
        <ele>1108.54</ele>
        <time>2022-10-16T13:46:27Z</time>
      </trkpt>
      <trkpt lat="45.0005" lon="4.09569">
        <ele>1107.1</ele>
        <time>2022-10-16T13:46:36Z</time>
      </trkpt>
      <trkpt lat="45.00059" lon="4.09566">
        <ele>1105.17</ele>
        <time>2022-10-16T13:46:44Z</time>
      </trkpt>
      <trkpt lat="45.00067" lon="4.09565">
        <ele>1104.69</ele>
        <time>2022-10-16T13:46:52Z</time>
      </trkpt>
      <trkpt lat="45.00074" lon="4.09565">
        <ele>1103.25</ele>
        <time>2022-10-16T13:47:07Z</time>
      </trkpt>
      <trkpt lat="45.00077" lon="4.09567">
        <ele>1102.29</ele>
        <time>2022-10-16T13:47:29Z</time>
      </trkpt>
      <trkpt lat="45.00079" lon="4.09568">
        <ele>1102.29</ele>
        <time>2022-10-16T13:47:47Z</time>
      </trkpt>
      <trkpt lat="45.00079" lon="4.09569">
        <ele>1102.29</ele>
        <time>2022-10-16T13:48:02Z</time>
      </trkpt>
      <trkpt lat="45.00079" lon="4.09567">
        <ele>1102.29</ele>
        <time>2022-10-16T13:48:10Z</time>
      </trkpt>
      <trkpt lat="45.00091" lon="4.0957">
        <ele>1101.33</ele>
        <time>2022-10-16T13:48:24Z</time>
      </trkpt>
      <trkpt lat="45.00097" lon="4.09572">
        <ele>1100.85</ele>
        <time>2022-10-16T13:48:28Z</time>
      </trkpt>
      <trkpt lat="45.00107" lon="4.0958">
        <ele>1099.89</ele>
        <time>2022-10-16T13:48:38Z</time>
      </trkpt>
      <trkpt lat="45.00116" lon="4.0959">
        <ele>1098.92</ele>
        <time>2022-10-16T13:48:48Z</time>
      </trkpt>
      <trkpt lat="45.00126" lon="4.09597">
        <ele>1097.48</ele>
        <time>2022-10-16T13:48:57Z</time>
      </trkpt>
      <trkpt lat="45.00136" lon="4.09603">
        <ele>1097</ele>
        <time>2022-10-16T13:49:07Z</time>
      </trkpt>
      <trkpt lat="45.00144" lon="4.09607">
        <ele>1096.04</ele>
        <time>2022-10-16T13:49:14Z</time>
      </trkpt>
      <trkpt lat="45.00153" lon="4.09615">
        <ele>1094.6</ele>
        <time>2022-10-16T13:49:23Z</time>
      </trkpt>
      <trkpt lat="45.00154" lon="4.09615">
        <ele>1094.12</ele>
        <time>2022-10-16T13:49:25Z</time>
      </trkpt>
      <trkpt lat="45.0016" lon="4.09617">
        <ele>1092.68</ele>
        <time>2022-10-16T13:49:30Z</time>
      </trkpt>
      <trkpt lat="45.00166" lon="4.09616">
        <ele>1090.75</ele>
        <time>2022-10-16T13:49:39Z</time>
      </trkpt>
      <trkpt lat="45.00171" lon="4.09618">
        <ele>1089.79</ele>
        <time>2022-10-16T13:49:47Z</time>
      </trkpt>
      <trkpt lat="45.00181" lon="4.09621">
        <ele>1087.39</ele>
        <time>2022-10-16T13:50:00Z</time>
      </trkpt>
      <trkpt lat="45.0019" lon="4.09623">
        <ele>1084.5</ele>
        <time>2022-10-16T13:50:09Z</time>
      </trkpt>
      <trkpt lat="45.00194" lon="4.09626">
        <ele>1083.54</ele>
        <time>2022-10-16T13:50:15Z</time>
      </trkpt>
      <trkpt lat="45.00204" lon="4.09627">
        <ele>1083.06</ele>
        <time>2022-10-16T13:50:24Z</time>
      </trkpt>
      <trkpt lat="45.00214" lon="4.09629">
        <ele>1082.1</ele>
        <time>2022-10-16T13:50:35Z</time>
      </trkpt>
      <trkpt lat="45.00224" lon="4.09632">
        <ele>1081.14</ele>
        <time>2022-10-16T13:50:45Z</time>
      </trkpt>
      <trkpt lat="45.00239" lon="4.09639">
        <ele>1079.22</ele>
        <time>2022-10-16T13:51:01Z</time>
      </trkpt>
      <trkpt lat="45.00242" lon="4.0964">
        <ele>1078.74</ele>
        <time>2022-10-16T13:51:06Z</time>
      </trkpt>
      <trkpt lat="45.00246" lon="4.09642">
        <ele>1078.26</ele>
        <time>2022-10-16T13:51:10Z</time>
      </trkpt>
      <trkpt lat="45.00253" lon="4.09646">
        <ele>1078.26</ele>
        <time>2022-10-16T13:51:19Z</time>
      </trkpt>
      <trkpt lat="45.0026" lon="4.09662">
        <ele>1076.81</ele>
        <time>2022-10-16T13:51:33Z</time>
      </trkpt>
      <trkpt lat="45.0026" lon="4.09669">
        <ele>1076.33</ele>
        <time>2022-10-16T13:51:45Z</time>
      </trkpt>
      <trkpt lat="45.00264" lon="4.09679">
        <ele>1075.85</ele>
        <time>2022-10-16T13:52:05Z</time>
      </trkpt>
      <trkpt lat="45.00267" lon="4.09683">
        <ele>1075.37</ele>
        <time>2022-10-16T13:52:11Z</time>
      </trkpt>
      <trkpt lat="45.00272" lon="4.09682">
        <ele>1075.37</ele>
        <time>2022-10-16T13:52:22Z</time>
      </trkpt>
      <trkpt lat="45.00276" lon="4.09682">
        <ele>1074.89</ele>
        <time>2022-10-16T13:52:31Z</time>
      </trkpt>
      <trkpt lat="45.00282" lon="4.09684">
        <ele>1075.37</ele>
        <time>2022-10-16T13:52:41Z</time>
      </trkpt>
      <trkpt lat="45.00281" lon="4.09684">
        <ele>1075.37</ele>
        <time>2022-10-16T13:52:52Z</time>
      </trkpt>
      <trkpt lat="45.00282" lon="4.09685">
        <ele>1075.85</ele>
        <time>2022-10-16T13:53:06Z</time>
      </trkpt>
      <trkpt lat="45.00282" lon="4.09684">
        <ele>1075.85</ele>
        <time>2022-10-16T13:53:09Z</time>
      </trkpt>
      <trkpt lat="45.00285" lon="4.09684">
        <ele>1075.37</ele>
        <time>2022-10-16T13:53:14Z</time>
      </trkpt>
      <trkpt lat="45.00289" lon="4.09684">
        <ele>1075.37</ele>
        <time>2022-10-16T13:53:20Z</time>
      </trkpt>
      <trkpt lat="45.00289" lon="4.09684">
        <ele>1075.37</ele>
        <time>2022-10-16T13:53:22Z</time>
      </trkpt>
      <trkpt lat="45.0029" lon="4.09686">
        <ele>1075.37</ele>
        <time>2022-10-16T13:53:25Z</time>
      </trkpt>
      <trkpt lat="45.00292" lon="4.09692">
        <ele>1075.37</ele>
        <time>2022-10-16T13:53:37Z</time>
      </trkpt>
      <trkpt lat="45.00294" lon="4.09702">
        <ele>1074.89</ele>
        <time>2022-10-16T13:53:47Z</time>
      </trkpt>
      <trkpt lat="45.00297" lon="4.09713">
        <ele>1073.45</ele>
        <time>2022-10-16T13:53:57Z</time>
      </trkpt>
      <trkpt lat="45.00297" lon="4.09715">
        <ele>1072.97</ele>
        <time>2022-10-16T13:54:01Z</time>
      </trkpt>
      <trkpt lat="45.00298" lon="4.09718">
        <ele>1072.97</ele>
        <time>2022-10-16T13:54:04Z</time>
      </trkpt>
      <trkpt lat="45.00299" lon="4.09718">
        <ele>1072.97</ele>
        <time>2022-10-16T13:54:07Z</time>
      </trkpt>
      <trkpt lat="45.00309" lon="4.09732">
        <ele>1070.08</ele>
        <time>2022-10-16T13:54:23Z</time>
      </trkpt>
      <trkpt lat="45.00317" lon="4.09742">
        <ele>1068.16</ele>
        <time>2022-10-16T13:54:34Z</time>
      </trkpt>
      <trkpt lat="45.00319" lon="4.09744">
        <ele>1067.68</ele>
        <time>2022-10-16T13:54:38Z</time>
      </trkpt>
      <trkpt lat="45.00325" lon="4.09741">
        <ele>1067.2</ele>
        <time>2022-10-16T13:54:47Z</time>
      </trkpt>
      <trkpt lat="45.00327" lon="4.09739">
        <ele>1067.2</ele>
        <time>2022-10-16T13:54:50Z</time>
      </trkpt>
      <trkpt lat="45.00329" lon="4.09734">
        <ele>1066.24</ele>
        <time>2022-10-16T13:54:55Z</time>
      </trkpt>
      <trkpt lat="45.00332" lon="4.09726">
        <ele>1064.32</ele>
        <time>2022-10-16T13:55:07Z</time>
      </trkpt>
      <trkpt lat="45.0034" lon="4.09723">
        <ele>1063.84</ele>
        <time>2022-10-16T13:55:20Z</time>
      </trkpt>
      <trkpt lat="45.00347" lon="4.09723">
        <ele>1063.36</ele>
        <time>2022-10-16T13:55:33Z</time>
      </trkpt>
      <trkpt lat="45.00347" lon="4.09723">
        <ele>1063.36</ele>
        <time>2022-10-16T13:55:34Z</time>
      </trkpt>
      <trkpt lat="45.00359" lon="4.09735">
        <ele>1061.91</ele>
        <time>2022-10-16T13:55:48Z</time>
      </trkpt>
      <trkpt lat="45.00364" lon="4.09748">
        <ele>1061.43</ele>
        <time>2022-10-16T13:55:57Z</time>
      </trkpt>
      <trkpt lat="45.00368" lon="4.09757">
        <ele>1059.99</ele>
        <time>2022-10-16T13:56:06Z</time>
      </trkpt>
      <trkpt lat="45.00371" lon="4.09765">
        <ele>1059.99</ele>
        <time>2022-10-16T13:56:12Z</time>
      </trkpt>
      <trkpt lat="45.00378" lon="4.09778">
        <ele>1059.99</ele>
        <time>2022-10-16T13:56:22Z</time>
      </trkpt>
      <trkpt lat="45.00382" lon="4.09781">
        <ele>1059.51</ele>
        <time>2022-10-16T13:56:28Z</time>
      </trkpt>
      <trkpt lat="45.00391" lon="4.098">
        <ele>1058.55</ele>
        <time>2022-10-16T13:56:42Z</time>
      </trkpt>
      <trkpt lat="45.00397" lon="4.09806">
        <ele>1057.11</ele>
        <time>2022-10-16T13:56:56Z</time>
      </trkpt>
      <trkpt lat="45.0042" lon="4.09836">
        <ele>1051.82</ele>
        <time>2022-10-16T13:57:19Z</time>
      </trkpt>
      <trkpt lat="45.0044" lon="4.09852">
        <ele>1047.97</ele>
        <time>2022-10-16T13:57:40Z</time>
      </trkpt>
      <trkpt lat="45.00453" lon="4.09872">
        <ele>1045.57</ele>
        <time>2022-10-16T13:58:00Z</time>
      </trkpt>
      <trkpt lat="45.00467" lon="4.09898">
        <ele>1043.65</ele>
        <time>2022-10-16T13:58:20Z</time>
      </trkpt>
      <trkpt lat="45.0048" lon="4.09922">
        <ele>1042.21</ele>
        <time>2022-10-16T13:58:42Z</time>
      </trkpt>
      <trkpt lat="45.00489" lon="4.09945">
        <ele>1040.28</ele>
        <time>2022-10-16T13:59:04Z</time>
      </trkpt>
      <trkpt lat="45.00502" lon="4.09965">
        <ele>1037.4</ele>
        <time>2022-10-16T13:59:26Z</time>
      </trkpt>
      <trkpt lat="45.00512" lon="4.09985">
        <ele>1035.48</ele>
        <time>2022-10-16T13:59:50Z</time>
      </trkpt>
      <trkpt lat="45.00518" lon="4.10003">
        <ele>1035</ele>
        <time>2022-10-16T14:00:06Z</time>
      </trkpt>
      <trkpt lat="45.00532" lon="4.10012">
        <ele>1033.07</ele>
        <time>2022-10-16T14:00:23Z</time>
      </trkpt>
      <trkpt lat="45.00547" lon="4.10024">
        <ele>1032.59</ele>
        <time>2022-10-16T14:00:38Z</time>
      </trkpt>
      <trkpt lat="45.0056" lon="4.10031">
        <ele>1032.59</ele>
        <time>2022-10-16T14:00:51Z</time>
      </trkpt>
      <trkpt lat="45.00568" lon="4.1004">
        <ele>1030.19</ele>
        <time>2022-10-16T14:01:03Z</time>
      </trkpt>
      <trkpt lat="45.00575" lon="4.10053">
        <ele>1027.79</ele>
        <time>2022-10-16T14:01:15Z</time>
      </trkpt>
      <trkpt lat="45.00575" lon="4.10054">
        <ele>1027.31</ele>
        <time>2022-10-16T14:01:17Z</time>
      </trkpt>
      <trkpt lat="45.00578" lon="4.1006">
        <ele>1026.34</ele>
        <time>2022-10-16T14:01:22Z</time>
      </trkpt>
      <trkpt lat="45.00578" lon="4.10069">
        <ele>1024.42</ele>
        <time>2022-10-16T14:01:32Z</time>
      </trkpt>
      <trkpt lat="45.00579" lon="4.10076">
        <ele>1024.42</ele>
        <time>2022-10-16T14:01:36Z</time>
      </trkpt>
      <trkpt lat="45.00578" lon="4.10092">
        <ele>1024.42</ele>
        <time>2022-10-16T14:01:45Z</time>
      </trkpt>
      <trkpt lat="45.00581" lon="4.101">
        <ele>1024.9</ele>
        <time>2022-10-16T14:01:51Z</time>
      </trkpt>
      <trkpt lat="45.00582" lon="4.10118">
        <ele>1026.34</ele>
        <time>2022-10-16T14:02:04Z</time>
      </trkpt>
      <trkpt lat="45.00581" lon="4.10132">
        <ele>1027.31</ele>
        <time>2022-10-16T14:02:18Z</time>
      </trkpt>
      <trkpt lat="45.00579" lon="4.10142">
        <ele>1027.79</ele>
        <time>2022-10-16T14:02:34Z</time>
      </trkpt>
      <trkpt lat="45.00586" lon="4.10141">
        <ele>1028.75</ele>
        <time>2022-10-16T14:02:47Z</time>
      </trkpt>
      <trkpt lat="45.00588" lon="4.10133">
        <ele>1027.31</ele>
        <time>2022-10-16T14:02:54Z</time>
      </trkpt>
      <trkpt lat="45.00597" lon="4.1012">
        <ele>1025.86</ele>
        <time>2022-10-16T14:03:09Z</time>
      </trkpt>
      <trkpt lat="45.00598" lon="4.10119">
        <ele>1025.86</ele>
        <time>2022-10-16T14:03:10Z</time>
      </trkpt>
      <trkpt lat="45.00611" lon="4.10101">
        <ele>1025.38</ele>
        <time>2022-10-16T14:03:29Z</time>
      </trkpt>
      <trkpt lat="45.00618" lon="4.10089">
        <ele>1023.46</ele>
        <time>2022-10-16T14:03:41Z</time>
      </trkpt>
      <trkpt lat="45.00621" lon="4.10081">
        <ele>1021.06</ele>
        <time>2022-10-16T14:03:57Z</time>
      </trkpt>
      <trkpt lat="45.00628" lon="4.10073">
        <ele>1017.69</ele>
        <time>2022-10-16T14:04:10Z</time>
      </trkpt>
      <trkpt lat="45.00629" lon="4.10068">
        <ele>1015.77</ele>
        <time>2022-10-16T14:04:22Z</time>
      </trkpt>
      <trkpt lat="45.00638" lon="4.10051">
        <ele>1012.89</ele>
        <time>2022-10-16T14:04:41Z</time>
      </trkpt>
      <trkpt lat="45.00633" lon="4.10039">
        <ele>1011.44</ele>
        <time>2022-10-16T14:04:59Z</time>
      </trkpt>
      <trkpt lat="45.00637" lon="4.10043">
        <ele>1010.96</ele>
        <time>2022-10-16T14:05:16Z</time>
      </trkpt>
      <trkpt lat="45.00639" lon="4.10047">
        <ele>1010.48</ele>
        <time>2022-10-16T14:05:29Z</time>
      </trkpt>
      <trkpt lat="45.00644" lon="4.10055">
        <ele>1010</ele>
        <time>2022-10-16T14:05:45Z</time>
      </trkpt>
      <trkpt lat="45.00651" lon="4.10069">
        <ele>1010</ele>
        <time>2022-10-16T14:05:59Z</time>
      </trkpt>
      <trkpt lat="45.00656" lon="4.1008">
        <ele>1010.96</ele>
        <time>2022-10-16T14:06:11Z</time>
      </trkpt>
      <trkpt lat="45.00661" lon="4.10093">
        <ele>1009.52</ele>
        <time>2022-10-16T14:06:26Z</time>
      </trkpt>
      <trkpt lat="45.00662" lon="4.10095">
        <ele>1009.52</ele>
        <time>2022-10-16T14:06:27Z</time>
      </trkpt>
      <trkpt lat="45.00659" lon="4.10109">
        <ele>1006.16</ele>
        <time>2022-10-16T14:06:38Z</time>
      </trkpt>
      <trkpt lat="45.00663" lon="4.10111">
        <ele>1002.31</ele>
        <time>2022-10-16T14:06:52Z</time>
      </trkpt>
      <trkpt lat="45.0067" lon="4.10102">
        <ele>996.06</ele>
        <time>2022-10-16T14:07:10Z</time>
      </trkpt>
      <trkpt lat="45.00677" lon="4.10095">
        <ele>993.66</ele>
        <time>2022-10-16T14:07:20Z</time>
      </trkpt>
      <trkpt lat="45.00689" lon="4.10082">
        <ele>990.78</ele>
        <time>2022-10-16T14:07:34Z</time>
      </trkpt>
      <trkpt lat="45.00688" lon="4.10067">
        <ele>989.33</ele>
        <time>2022-10-16T14:07:49Z</time>
      </trkpt>
      <trkpt lat="45.00691" lon="4.10058">
        <ele>986.93</ele>
        <time>2022-10-16T14:08:02Z</time>
      </trkpt>
      <trkpt lat="45.00694" lon="4.10063">
        <ele>985.49</ele>
        <time>2022-10-16T14:08:08Z</time>
      </trkpt>
      <trkpt lat="45.00703" lon="4.10075">
        <ele>982.6</ele>
        <time>2022-10-16T14:08:21Z</time>
      </trkpt>
      <trkpt lat="45.00709" lon="4.10088">
        <ele>978.28</ele>
        <time>2022-10-16T14:08:34Z</time>
      </trkpt>
      <trkpt lat="45.00715" lon="4.10098">
        <ele>975.39</ele>
        <time>2022-10-16T14:08:46Z</time>
      </trkpt>
      <trkpt lat="45.00724" lon="4.10097">
        <ele>973.47</ele>
        <time>2022-10-16T14:09:01Z</time>
      </trkpt>
      <trkpt lat="45.00726" lon="4.10092">
        <ele>970.59</ele>
        <time>2022-10-16T14:09:23Z</time>
      </trkpt>
      <trkpt lat="45.00737" lon="4.10074">
        <ele>965.3</ele>
        <time>2022-10-16T14:09:47Z</time>
      </trkpt>
      <trkpt lat="45.00738" lon="4.10067">
        <ele>963.86</ele>
        <time>2022-10-16T14:09:49Z</time>
      </trkpt>
      <trkpt lat="45.00746" lon="4.1004">
        <ele>959.05</ele>
        <time>2022-10-16T14:10:05Z</time>
      </trkpt>
      <trkpt lat="45.00745" lon="4.10023">
        <ele>957.13</ele>
        <time>2022-10-16T14:10:22Z</time>
      </trkpt>
      <trkpt lat="45.00738" lon="4.10018">
        <ele>955.21</ele>
        <time>2022-10-16T14:10:42Z</time>
      </trkpt>
      <trkpt lat="45.00744" lon="4.10016">
        <ele>956.17</ele>
        <time>2022-10-16T14:11:03Z</time>
      </trkpt>
      <trkpt lat="45.00748" lon="4.10027">
        <ele>955.69</ele>
        <time>2022-10-16T14:11:30Z</time>
      </trkpt>
      <trkpt lat="45.00751" lon="4.10034">
        <ele>953.77</ele>
        <time>2022-10-16T14:11:55Z</time>
      </trkpt>
      <trkpt lat="45.00763" lon="4.10049">
        <ele>948.48</ele>
        <time>2022-10-16T14:12:17Z</time>
      </trkpt>
      <trkpt lat="45.00768" lon="4.10047">
        <ele>947.04</ele>
        <time>2022-10-16T14:12:22Z</time>
      </trkpt>
      <trkpt lat="45.0077" lon="4.10058">
        <ele>946.07</ele>
        <time>2022-10-16T14:12:38Z</time>
      </trkpt>
      <trkpt lat="45.00769" lon="4.10061">
        <ele>946.56</ele>
        <time>2022-10-16T14:12:50Z</time>
      </trkpt>
      <trkpt lat="45.00772" lon="4.10071">
        <ele>946.07</ele>
        <time>2022-10-16T14:13:04Z</time>
      </trkpt>
      <trkpt lat="45.00775" lon="4.10086">
        <ele>945.11</ele>
        <time>2022-10-16T14:13:18Z</time>
      </trkpt>
      <trkpt lat="45.00774" lon="4.10103">
        <ele>943.19</ele>
        <time>2022-10-16T14:13:34Z</time>
      </trkpt>
      <trkpt lat="45.00775" lon="4.10119">
        <ele>941.75</ele>
        <time>2022-10-16T14:13:50Z</time>
      </trkpt>
      <trkpt lat="45.00773" lon="4.10124">
        <ele>940.79</ele>
        <time>2022-10-16T14:13:57Z</time>
      </trkpt>
      <trkpt lat="45.00763" lon="4.10134">
        <ele>939.35</ele>
        <time>2022-10-16T14:14:13Z</time>
      </trkpt>
      <trkpt lat="45.00763" lon="4.10135">
        <ele>939.35</ele>
        <time>2022-10-16T14:14:14Z</time>
      </trkpt>
      <trkpt lat="45.00764" lon="4.10147">
        <ele>938.38</ele>
        <time>2022-10-16T14:14:22Z</time>
      </trkpt>
      <trkpt lat="45.00761" lon="4.10164">
        <ele>934.06</ele>
        <time>2022-10-16T14:14:31Z</time>
      </trkpt>
      <trkpt lat="45.00769" lon="4.10165">
        <ele>934.54</ele>
        <time>2022-10-16T14:14:42Z</time>
      </trkpt>
      <trkpt lat="45.00777" lon="4.10166">
        <ele>931.65</ele>
        <time>2022-10-16T14:14:57Z</time>
      </trkpt>
      <trkpt lat="45.00779" lon="4.10173">
        <ele>929.73</ele>
        <time>2022-10-16T14:15:17Z</time>
      </trkpt>
      <trkpt lat="45.00779" lon="4.1017">
        <ele>929.73</ele>
        <time>2022-10-16T14:15:36Z</time>
      </trkpt>
      <trkpt lat="45.00778" lon="4.10167">
        <ele>930.21</ele>
        <time>2022-10-16T14:16:14Z</time>
      </trkpt>
      <trkpt lat="45.00779" lon="4.10165">
        <ele>926.85</ele>
        <time>2022-10-16T14:16:33Z</time>
      </trkpt>
      <trkpt lat="45.00779" lon="4.10164">
        <ele>926.85</ele>
        <time>2022-10-16T14:16:57Z</time>
      </trkpt>
      <trkpt lat="45.0078" lon="4.10166">
        <ele>926.85</ele>
        <time>2022-10-16T14:17:19Z</time>
      </trkpt>
      <trkpt lat="45.0078" lon="4.10165">
        <ele>926.85</ele>
        <time>2022-10-16T14:17:35Z</time>
      </trkpt>
      <trkpt lat="45.0078" lon="4.10164">
        <ele>926.85</ele>
        <time>2022-10-16T14:17:54Z</time>
      </trkpt>
      <trkpt lat="45.00779" lon="4.10165">
        <ele>927.33</ele>
        <time>2022-10-16T14:18:13Z</time>
      </trkpt>
      <trkpt lat="45.00779" lon="4.10164">
        <ele>927.33</ele>
        <time>2022-10-16T14:18:38Z</time>
      </trkpt>
      <trkpt lat="45.0078" lon="4.10164">
        <ele>927.81</ele>
        <time>2022-10-16T14:19:08Z</time>
      </trkpt>
      <trkpt lat="45.0078" lon="4.10163">
        <ele>926.85</ele>
        <time>2022-10-16T14:19:31Z</time>
      </trkpt>
      <trkpt lat="45.00779" lon="4.10163">
        <ele>926.85</ele>
        <time>2022-10-16T14:19:50Z</time>
      </trkpt>
      <trkpt lat="45.00778" lon="4.10163">
        <ele>927.33</ele>
        <time>2022-10-16T14:20:15Z</time>
      </trkpt>
      <trkpt lat="45.00779" lon="4.10163">
        <ele>927.33</ele>
        <time>2022-10-16T14:20:35Z</time>
      </trkpt>
      <trkpt lat="45.00779" lon="4.10163">
        <ele>926.85</ele>
        <time>2022-10-16T14:20:59Z</time>
      </trkpt>
      <trkpt lat="45.00779" lon="4.10164">
        <ele>926.85</ele>
        <time>2022-10-16T14:21:24Z</time>
      </trkpt>
      <trkpt lat="45.00779" lon="4.10164">
        <ele>926.85</ele>
        <time>2022-10-16T14:21:42Z</time>
      </trkpt>
      <trkpt lat="45.00783" lon="4.10168">
        <ele>925.89</ele>
        <time>2022-10-16T14:21:59Z</time>
      </trkpt>
      <trkpt lat="45.00789" lon="4.10185">
        <ele>925.89</ele>
        <time>2022-10-16T14:22:17Z</time>
      </trkpt>
      <trkpt lat="45.00796" lon="4.10187">
        <ele>930.21</ele>
        <time>2022-10-16T14:22:32Z</time>
      </trkpt>
      <trkpt lat="45.00795" lon="4.10185">
        <ele>932.14</ele>
        <time>2022-10-16T14:22:52Z</time>
      </trkpt>
      <trkpt lat="45.00797" lon="4.10187">
        <ele>931.65</ele>
        <time>2022-10-16T14:22:58Z</time>
      </trkpt>
      <trkpt lat="45.00809" lon="4.10196">
        <ele>932.62</ele>
        <time>2022-10-16T14:23:12Z</time>
      </trkpt>
      <trkpt lat="45.00815" lon="4.10198">
        <ele>934.06</ele>
        <time>2022-10-16T14:23:18Z</time>
      </trkpt>
      <trkpt lat="45.00825" lon="4.10195">
        <ele>936.94</ele>
        <time>2022-10-16T14:23:32Z</time>
      </trkpt>
      <trkpt lat="45.00825" lon="4.10194">
        <ele>936.94</ele>
        <time>2022-10-16T14:23:33Z</time>
      </trkpt>
      <trkpt lat="45.00829" lon="4.10185">
        <ele>937.42</ele>
        <time>2022-10-16T14:23:42Z</time>
      </trkpt>
      <trkpt lat="45.0083" lon="4.10182">
        <ele>937.42</ele>
        <time>2022-10-16T14:23:55Z</time>
      </trkpt>
      <trkpt lat="45.00834" lon="4.1017">
        <ele>935.5</ele>
        <time>2022-10-16T14:24:15Z</time>
      </trkpt>
      <trkpt lat="45.00836" lon="4.10165">
        <ele>935.5</ele>
        <time>2022-10-16T14:24:18Z</time>
      </trkpt>
      <trkpt lat="45.00843" lon="4.10156">
        <ele>935.5</ele>
        <time>2022-10-16T14:24:25Z</time>
      </trkpt>
      <trkpt lat="45.00851" lon="4.10147">
        <ele>934.54</ele>
        <time>2022-10-16T14:24:43Z</time>
      </trkpt>
      <trkpt lat="45.00867" lon="4.10129">
        <ele>937.42</ele>
        <time>2022-10-16T14:25:03Z</time>
      </trkpt>
      <trkpt lat="45.00879" lon="4.10109">
        <ele>941.27</ele>
        <time>2022-10-16T14:25:21Z</time>
      </trkpt>
      <trkpt lat="45.00886" lon="4.10094">
        <ele>941.27</ele>
        <time>2022-10-16T14:25:33Z</time>
      </trkpt>
      <trkpt lat="45.00898" lon="4.10075">
        <ele>942.71</ele>
        <time>2022-10-16T14:25:51Z</time>
      </trkpt>
      <trkpt lat="45.00901" lon="4.10068">
        <ele>943.19</ele>
        <time>2022-10-16T14:25:57Z</time>
      </trkpt>
      <trkpt lat="45.00905" lon="4.10051">
        <ele>946.56</ele>
        <time>2022-10-16T14:26:13Z</time>
      </trkpt>
      <trkpt lat="45.0091" lon="4.10035">
        <ele>945.59</ele>
        <time>2022-10-16T14:26:30Z</time>
      </trkpt>
      <trkpt lat="45.00916" lon="4.10021">
        <ele>946.07</ele>
        <time>2022-10-16T14:26:47Z</time>
      </trkpt>
      <trkpt lat="45.00922" lon="4.10007">
        <ele>949.92</ele>
        <time>2022-10-16T14:27:04Z</time>
      </trkpt>
      <trkpt lat="45.00905" lon="4.0999">
        <ele>956.65</ele>
        <time>2022-10-16T14:27:21Z</time>
      </trkpt>
      <trkpt lat="45.00886" lon="4.09982">
        <ele>961.94</ele>
        <time>2022-10-16T14:27:39Z</time>
      </trkpt>
      <trkpt lat="45.00875" lon="4.09967">
        <ele>962.42</ele>
        <time>2022-10-16T14:27:56Z</time>
      </trkpt>
      <trkpt lat="45.00875" lon="4.09965">
        <ele>961.94</ele>
        <time>2022-10-16T14:27:57Z</time>
      </trkpt>
      <trkpt lat="45.00866" lon="4.0994">
        <ele>959.05</ele>
        <time>2022-10-16T14:28:16Z</time>
      </trkpt>
      <trkpt lat="45.00856" lon="4.09916">
        <ele>959.53</ele>
        <time>2022-10-16T14:28:32Z</time>
      </trkpt>
      <trkpt lat="45.00845" lon="4.09892">
        <ele>957.13</ele>
        <time>2022-10-16T14:28:51Z</time>
      </trkpt>
      <trkpt lat="45.00846" lon="4.09878">
        <ele>957.13</ele>
        <time>2022-10-16T14:28:59Z</time>
      </trkpt>
      <trkpt lat="45.00848" lon="4.09858">
        <ele>957.13</ele>
        <time>2022-10-16T14:29:17Z</time>
      </trkpt>
      <trkpt lat="45.00858" lon="4.09839">
        <ele>959.05</ele>
        <time>2022-10-16T14:29:39Z</time>
      </trkpt>
      <trkpt lat="45.00879" lon="4.09824">
        <ele>964.82</ele>
        <time>2022-10-16T14:30:02Z</time>
      </trkpt>
      <trkpt lat="45.00887" lon="4.09816">
        <ele>966.26</ele>
        <time>2022-10-16T14:30:09Z</time>
      </trkpt>
      <trkpt lat="45.00893" lon="4.09789">
        <ele>972.51</ele>
        <time>2022-10-16T14:30:28Z</time>
      </trkpt>
      <trkpt lat="45.00876" lon="4.09773">
        <ele>978.28</ele>
        <time>2022-10-16T14:30:49Z</time>
      </trkpt>
      <trkpt lat="45.00873" lon="4.09758">
        <ele>980.2</ele>
        <time>2022-10-16T14:31:07Z</time>
      </trkpt>
      <trkpt lat="45.00858" lon="4.09746">
        <ele>984.05</ele>
        <time>2022-10-16T14:31:28Z</time>
      </trkpt>
      <trkpt lat="45.00849" lon="4.09726">
        <ele>985.49</ele>
        <time>2022-10-16T14:31:45Z</time>
      </trkpt>
      <trkpt lat="45.00845" lon="4.09699">
        <ele>984.05</ele>
        <time>2022-10-16T14:32:04Z</time>
      </trkpt>
      <trkpt lat="45.00835" lon="4.09673">
        <ele>985.97</ele>
        <time>2022-10-16T14:32:25Z</time>
      </trkpt>
      <trkpt lat="45.00827" lon="4.09663">
        <ele>987.41</ele>
        <time>2022-10-16T14:32:39Z</time>
      </trkpt>
      <trkpt lat="45.0082" lon="4.09665">
        <ele>987.89</ele>
        <time>2022-10-16T14:32:55Z</time>
      </trkpt>
      <trkpt lat="45.00822" lon="4.09666">
        <ele>988.37</ele>
        <time>2022-10-16T14:33:13Z</time>
      </trkpt>
      <trkpt lat="45.00826" lon="4.09664">
        <ele>987.89</ele>
        <time>2022-10-16T14:33:28Z</time>
      </trkpt>
      <trkpt lat="45.00825" lon="4.09663">
        <ele>987.89</ele>
        <time>2022-10-16T14:33:46Z</time>
      </trkpt>
      <trkpt lat="45.00824" lon="4.09662">
        <ele>988.37</ele>
        <time>2022-10-16T14:34:01Z</time>
      </trkpt>
      <trkpt lat="45.00823" lon="4.09663">
        <ele>988.85</ele>
        <time>2022-10-16T14:34:20Z</time>
      </trkpt>
      <trkpt lat="45.00823" lon="4.09663">
        <ele>988.85</ele>
        <time>2022-10-16T14:34:38Z</time>
      </trkpt>
      <trkpt lat="45.00825" lon="4.09662">
        <ele>988.85</ele>
        <time>2022-10-16T14:34:58Z</time>
      </trkpt>
      <trkpt lat="45.00832" lon="4.09657">
        <ele>988.85</ele>
        <time>2022-10-16T14:35:15Z</time>
      </trkpt>
      <trkpt lat="45.00841" lon="4.09641">
        <ele>989.33</ele>
        <time>2022-10-16T14:35:33Z</time>
      </trkpt>
      <trkpt lat="45.00852" lon="4.09627">
        <ele>990.78</ele>
        <time>2022-10-16T14:35:48Z</time>
      </trkpt>
      <trkpt lat="45.00866" lon="4.09615">
        <ele>994.14</ele>
        <time>2022-10-16T14:36:08Z</time>
      </trkpt>
      <trkpt lat="45.00873" lon="4.09601">
        <ele>996.54</ele>
        <time>2022-10-16T14:36:20Z</time>
      </trkpt>
      <trkpt lat="45.00865" lon="4.09573">
        <ele>1003.27</ele>
        <time>2022-10-16T14:36:39Z</time>
      </trkpt>
      <trkpt lat="45.00861" lon="4.09564">
        <ele>1001.83</ele>
        <time>2022-10-16T14:36:48Z</time>
      </trkpt>
      <trkpt lat="45.00846" lon="4.09543">
        <ele>1001.35</ele>
        <time>2022-10-16T14:37:08Z</time>
      </trkpt>
      <trkpt lat="45.0084" lon="4.09519">
        <ele>1002.79</ele>
        <time>2022-10-16T14:37:26Z</time>
      </trkpt>
      <trkpt lat="45.00844" lon="4.09499">
        <ele>1006.64</ele>
        <time>2022-10-16T14:37:42Z</time>
      </trkpt>
      <trkpt lat="45.00853" lon="4.09486">
        <ele>1005.68</ele>
        <time>2022-10-16T14:38:01Z</time>
      </trkpt>
      <trkpt lat="45.00865" lon="4.09469">
        <ele>1009.04</ele>
        <time>2022-10-16T14:38:18Z</time>
      </trkpt>
      <trkpt lat="45.00866" lon="4.09467">
        <ele>1009.52</ele>
        <time>2022-10-16T14:38:19Z</time>
      </trkpt>
      <trkpt lat="45.00877" lon="4.09451">
        <ele>1013.85</ele>
        <time>2022-10-16T14:38:35Z</time>
      </trkpt>
      <trkpt lat="45.00884" lon="4.09428">
        <ele>1016.25</ele>
        <time>2022-10-16T14:38:52Z</time>
      </trkpt>
      <trkpt lat="45.0089" lon="4.09401">
        <ele>1021.06</ele>
        <time>2022-10-16T14:39:11Z</time>
      </trkpt>
      <trkpt lat="45.0089" lon="4.0938">
        <ele>1024.9</ele>
        <time>2022-10-16T14:39:30Z</time>
      </trkpt>
      <trkpt lat="45.00884" lon="4.09357">
        <ele>1025.38</ele>
        <time>2022-10-16T14:39:48Z</time>
      </trkpt>
      <trkpt lat="45.00868" lon="4.0935">
        <ele>1024.42</ele>
        <time>2022-10-16T14:40:05Z</time>
      </trkpt>
      <trkpt lat="45.00861" lon="4.09349">
        <ele>1022.98</ele>
        <time>2022-10-16T14:40:14Z</time>
      </trkpt>
      <trkpt lat="45.00849" lon="4.09335">
        <ele>1021.06</ele>
        <time>2022-10-16T14:40:32Z</time>
      </trkpt>
      <trkpt lat="45.00848" lon="4.09328">
        <ele>1018.65</ele>
        <time>2022-10-16T14:40:39Z</time>
      </trkpt>
      <trkpt lat="45.00849" lon="4.09307">
        <ele>1017.21</ele>
        <time>2022-10-16T14:40:56Z</time>
      </trkpt>
      <trkpt lat="45.00841" lon="4.09286">
        <ele>1019.62</ele>
        <time>2022-10-16T14:41:17Z</time>
      </trkpt>
      <trkpt lat="45.00824" lon="4.09276">
        <ele>1021.06</ele>
        <time>2022-10-16T14:41:34Z</time>
      </trkpt>
      <trkpt lat="45.00815" lon="4.09275">
        <ele>1022.5</ele>
        <time>2022-10-16T14:41:41Z</time>
      </trkpt>
      <trkpt lat="45.00798" lon="4.09271">
        <ele>1024.9</ele>
        <time>2022-10-16T14:41:58Z</time>
      </trkpt>
      <trkpt lat="45.0079" lon="4.0927">
        <ele>1025.86</ele>
        <time>2022-10-16T14:42:10Z</time>
      </trkpt>
      <trkpt lat="45.00784" lon="4.09265">
        <ele>1030.67</ele>
        <time>2022-10-16T14:42:20Z</time>
      </trkpt>
      <trkpt lat="45.00777" lon="4.09258">
        <ele>1032.59</ele>
        <time>2022-10-16T14:42:29Z</time>
      </trkpt>
      <trkpt lat="45.00774" lon="4.09254">
        <ele>1034.04</ele>
        <time>2022-10-16T14:42:34Z</time>
      </trkpt>
      <trkpt lat="45.00772" lon="4.09245">
        <ele>1036.44</ele>
        <time>2022-10-16T14:42:41Z</time>
      </trkpt>
      <trkpt lat="45.0077" lon="4.09241">
        <ele>1036.92</ele>
        <time>2022-10-16T14:42:44Z</time>
      </trkpt>
      <trkpt lat="45.00765" lon="4.09223">
        <ele>1037.4</ele>
        <time>2022-10-16T14:42:55Z</time>
      </trkpt>
      <trkpt lat="45.00764" lon="4.0922">
        <ele>1037.4</ele>
        <time>2022-10-16T14:42:57Z</time>
      </trkpt>
      <trkpt lat="45.00763" lon="4.09216">
        <ele>1038.36</ele>
        <time>2022-10-16T14:43:02Z</time>
      </trkpt>
      <trkpt lat="45.00756" lon="4.09184">
        <ele>1040.76</ele>
        <time>2022-10-16T14:43:21Z</time>
      </trkpt>
      <trkpt lat="45.00748" lon="4.09159">
        <ele>1043.65</ele>
        <time>2022-10-16T14:43:39Z</time>
      </trkpt>
      <trkpt lat="45.00743" lon="4.0914">
        <ele>1045.57</ele>
        <time>2022-10-16T14:43:55Z</time>
      </trkpt>
      <trkpt lat="45.00738" lon="4.09135">
        <ele>1046.53</ele>
        <time>2022-10-16T14:43:59Z</time>
      </trkpt>
      <trkpt lat="45.00723" lon="4.0912">
        <ele>1047.49</ele>
        <time>2022-10-16T14:44:15Z</time>
      </trkpt>
      <trkpt lat="45.00717" lon="4.09118">
        <ele>1048.45</ele>
        <time>2022-10-16T14:44:20Z</time>
      </trkpt>
      <trkpt lat="45.00702" lon="4.09103">
        <ele>1048.45</ele>
        <time>2022-10-16T14:44:36Z</time>
      </trkpt>
      <trkpt lat="45.007" lon="4.09097">
        <ele>1048.45</ele>
        <time>2022-10-16T14:44:40Z</time>
      </trkpt>
      <trkpt lat="45.00699" lon="4.09087">
        <ele>1048.94</ele>
        <time>2022-10-16T14:44:54Z</time>
      </trkpt>
      <trkpt lat="45.00697" lon="4.09088">
        <ele>1049.42</ele>
        <time>2022-10-16T14:45:02Z</time>
      </trkpt>
      <trkpt lat="45.00693" lon="4.09093">
        <ele>1050.38</ele>
        <time>2022-10-16T14:45:08Z</time>
      </trkpt>
      <trkpt lat="45.00691" lon="4.09096">
        <ele>1050.86</ele>
        <time>2022-10-16T14:45:11Z</time>
      </trkpt>
      <trkpt lat="45.00687" lon="4.09099">
        <ele>1052.3</ele>
        <time>2022-10-16T14:45:24Z</time>
      </trkpt>
      <trkpt lat="45.00685" lon="4.091">
        <ele>1052.78</ele>
        <time>2022-10-16T14:45:38Z</time>
      </trkpt>
      <trkpt lat="45.00686" lon="4.091">
        <ele>1052.78</ele>
        <time>2022-10-16T14:45:51Z</time>
      </trkpt>
      <trkpt lat="45.00688" lon="4.09099">
        <ele>1053.26</ele>
        <time>2022-10-16T14:46:04Z</time>
      </trkpt>
      <trkpt lat="45.00696" lon="4.09094">
        <ele>1052.78</ele>
        <time>2022-10-16T14:46:16Z</time>
      </trkpt>
      <trkpt lat="45.00704" lon="4.09077">
        <ele>1052.3</ele>
        <time>2022-10-16T14:46:31Z</time>
      </trkpt>
      <trkpt lat="45.00705" lon="4.09067">
        <ele>1052.3</ele>
        <time>2022-10-16T14:46:40Z</time>
      </trkpt>
      <trkpt lat="45.00708" lon="4.09047">
        <ele>1053.26</ele>
        <time>2022-10-16T14:46:56Z</time>
      </trkpt>
      <trkpt lat="45.00707" lon="4.09045">
        <ele>1052.78</ele>
        <time>2022-10-16T14:46:59Z</time>
      </trkpt>
      <trkpt lat="45.00704" lon="4.09027">
        <ele>1054.7</ele>
        <time>2022-10-16T14:47:13Z</time>
      </trkpt>
      <trkpt lat="45.00703" lon="4.09015">
        <ele>1055.67</ele>
        <time>2022-10-16T14:47:23Z</time>
      </trkpt>
      <trkpt lat="45.00707" lon="4.08988">
        <ele>1056.15</ele>
        <time>2022-10-16T14:47:41Z</time>
      </trkpt>
      <trkpt lat="45.0071" lon="4.08989">
        <ele>1055.67</ele>
        <time>2022-10-16T14:47:51Z</time>
      </trkpt>
      <trkpt lat="45.00711" lon="4.08991">
        <ele>1055.67</ele>
        <time>2022-10-16T14:48:13Z</time>
      </trkpt>
      <trkpt lat="45.0071" lon="4.08992">
        <ele>1055.67</ele>
        <time>2022-10-16T14:48:38Z</time>
      </trkpt>
      <trkpt lat="45.0071" lon="4.08993">
        <ele>1056.63</ele>
        <time>2022-10-16T14:49:01Z</time>
      </trkpt>
      <trkpt lat="45.00711" lon="4.08994">
        <ele>1057.59</ele>
        <time>2022-10-16T14:49:25Z</time>
      </trkpt>
      <trkpt lat="45.00709" lon="4.08989">
        <ele>1057.11</ele>
        <time>2022-10-16T14:49:36Z</time>
      </trkpt>
      <trkpt lat="45.00708" lon="4.08981">
        <ele>1057.11</ele>
        <time>2022-10-16T14:49:40Z</time>
      </trkpt>
      <trkpt lat="45.00717" lon="4.08938">
        <ele>1055.67</ele>
        <time>2022-10-16T14:49:51Z</time>
      </trkpt>
      <trkpt lat="45.00746" lon="4.08882">
        <ele>1056.15</ele>
        <time>2022-10-16T14:50:07Z</time>
      </trkpt>
      <trkpt lat="45.00761" lon="4.08835">
        <ele>1055.18</ele>
        <time>2022-10-16T14:50:22Z</time>
      </trkpt>
      <trkpt lat="45.00763" lon="4.08799">
        <ele>1053.26</ele>
        <time>2022-10-16T14:50:36Z</time>
      </trkpt>
      <trkpt lat="45.00756" lon="4.0876">
        <ele>1056.15</ele>
        <time>2022-10-16T14:50:54Z</time>
      </trkpt>
      <trkpt lat="45.00751" lon="4.0873">
        <ele>1059.03</ele>
        <time>2022-10-16T14:51:09Z</time>
      </trkpt>
      <trkpt lat="45.0074" lon="4.08693">
        <ele>1057.11</ele>
        <time>2022-10-16T14:51:26Z</time>
      </trkpt>
      <trkpt lat="45.00738" lon="4.08672">
        <ele>1058.07</ele>
        <time>2022-10-16T14:51:37Z</time>
      </trkpt>
      <trkpt lat="45.00737" lon="4.0865">
        <ele>1059.03</ele>
        <time>2022-10-16T14:51:47Z</time>
      </trkpt>
      <trkpt lat="45.00741" lon="4.08629">
        <ele>1059.51</ele>
        <time>2022-10-16T14:51:57Z</time>
      </trkpt>
      <trkpt lat="45.00747" lon="4.08615">
        <ele>1059.99</ele>
        <time>2022-10-16T14:52:07Z</time>
      </trkpt>
      <trkpt lat="45.00758" lon="4.08598">
        <ele>1060.47</ele>
        <time>2022-10-16T14:52:21Z</time>
      </trkpt>
      <trkpt lat="45.00762" lon="4.08594">
        <ele>1061.43</ele>
        <time>2022-10-16T14:52:26Z</time>
      </trkpt>
    </trkseg>
  </trk>
</gpx>